Date StartTime U_cm/s V_cm/s W_cm/s Ustd_cm/s Vstd_cm/s Wstd_cm/s Uvar_(cm/s)^2 Vvar_(cm/s)^2 Wvar_(cm/s)^2 KE_(m/s)^2 TurbulentKE_(m/s)^2 HorizWindSpeed_cm/s FrictionSpeec_cm/s DragCoef SpeedOfSound_m/s SonicTemperature_C Pressure_mb 
10/18/2013  00:00:00      -95.892      -13.029       -7.493       29.021       27.882       20.149      842.213      777.431      405.977        0.572        0.101       96.773       17.958        0.034      336.375        7.635      865.371
10/18/2013  00:01:00      -51.903      -32.260       -9.464       36.457       18.723       14.083     1329.141      350.549      198.343        0.285        0.094       61.112        8.387        0.019      336.475        7.802      865.396
10/18/2013  00:02:00      -41.614      -56.573        0.269       33.211       19.676       18.551     1102.947      387.128      344.145        0.338        0.092       70.230       13.032        0.034      336.424        7.717      865.405
10/18/2013  00:03:00      -61.903      -49.582        3.109       51.327       19.968       18.548     2634.435      398.711      344.037        0.484        0.169       79.311       23.431        0.087      336.575        7.970      865.406
10/18/2013  00:04:00     -129.321      -64.830       -9.829       26.587       19.499       15.919      706.872      380.220      253.425        1.118        0.067      144.661       10.789        0.006      336.633        8.067      865.401
10/18/2013  00:05:00     -154.731      -64.312      -12.198       19.936       25.970       15.961      397.426      674.445      254.765        1.478        0.066      167.564       11.494        0.005      336.621        8.048      865.385
10/18/2013  00:06:00      -87.963      -60.436        3.782       50.414       33.397       24.993     2541.528     1115.392      624.671        0.784        0.214      106.724       25.538        0.057      336.616        8.038      865.394
10/18/2013  00:07:00      -40.804      -54.532        5.200       39.524       29.026       18.756     1562.123      842.489      351.777        0.371        0.138       68.108       13.440        0.039      336.740        8.245      865.412
10/18/2013  00:08:00      -10.219      -55.377        9.146       32.637       39.011       23.167     1065.147     1521.891      536.711        0.319        0.156       56.312       23.909        0.180      336.712        8.198      865.438
10/18/2013  00:09:00      -26.806     -127.270      -14.368       31.121       23.454       18.146      968.517      550.107      329.291        0.949        0.092      130.063       13.948        0.012      336.840        8.414      865.468
10/18/2013  00:10:00      -43.565      -93.633       -3.301       26.483       30.924       16.215      701.373      956.304      262.930        0.630        0.096      103.271        6.597        0.004      336.967        8.622      865.483
10/18/2013  00:11:00      -39.058     -105.455       -2.071       47.583       57.776       25.492     2264.108     3338.108      649.833        0.945        0.313      112.455       18.104        0.026      336.903        8.515      865.502
10/18/2013  00:12:00      -56.854      -71.719       11.062       47.196       53.823       34.477     2227.471     2896.936     1188.666        0.740        0.316       91.521       26.226        0.082      336.674        8.136      865.514
10/18/2013  00:13:00      -60.919      -44.021       -0.266       46.513       22.970       21.797     2163.430      527.613      475.112        0.441        0.158       75.160       16.240        0.047      336.685        8.154      865.525
10/18/2013  00:14:00      -75.706      -51.969       -7.609       49.661       34.190       24.457     2466.167     1168.952      598.148        0.636        0.212       91.827       27.328        0.089      336.602        8.014      865.536
10/18/2013  00:15:00     -128.434     -105.711       -7.880       49.327       35.803       26.183     2433.146     1281.827      685.530        1.607        0.220      166.343       26.789        0.026      336.597        8.007      865.529
10/18/2013  00:16:00     -108.200      -66.714        4.641       47.916       40.361       29.278     2295.912     1629.021      857.181        1.048        0.239      127.114       24.018        0.036      336.488        7.824      865.505
10/18/2013  00:17:00      -85.020      -47.883        0.837       37.821       26.165       19.768     1430.395      684.603      390.756        0.601        0.125       97.577       18.094        0.034      336.495        7.836      865.495
10/18/2013  00:18:00     -130.076      -26.644       -9.741       17.054       20.047       12.822      290.836      401.896      164.398        0.929        0.043      132.777        9.552        0.005      336.499        7.843      865.500
10/18/2013  00:19:00     -147.591      -29.777      -12.476       35.593       25.635       19.703     1266.874      657.129      388.213        1.257        0.116      150.564       16.577        0.012      336.452        7.764      865.488
10/18/2013  00:20:00     -152.394      -44.899       -5.478       21.109       20.730       17.561      445.580      429.723      308.390        1.323        0.059      158.871       12.032        0.006      336.427        7.721      865.474
10/18/2013  00:21:00     -122.568      -35.420       -0.246       47.509       39.259       22.532     2257.083     1541.291      507.707        1.029        0.215      127.584       25.727        0.041      336.414        7.698      865.489
10/18/2013  00:22:00     -147.980      -27.251       -8.696       36.495       23.711       17.505     1331.870      562.196      306.411        1.246        0.110      150.468       16.299        0.012      336.449        7.758      865.503
10/18/2013  00:23:00     -160.941      -38.780      -16.271       20.252       14.393       15.030      410.164      207.153      225.895        1.426        0.042      165.547        9.545        0.003      336.480        7.810      865.502
10/18/2013  00:24:00     -114.520      -55.692      -22.603       22.735       19.698       14.818      516.868      388.009      219.569        0.893        0.056      127.344       12.640        0.010      336.465        7.786      865.512
10/18/2013  00:25:00     -104.594      -46.634      -20.222       19.031       19.562       11.095      362.165      382.684      123.089        0.720        0.043      114.520       10.263        0.008      336.445        7.751      865.526
10/18/2013  00:26:00      -72.480      -62.658       -8.641       30.714       24.442       18.683      943.354      597.393      349.060        0.557        0.094       95.809       20.219        0.045      336.482        7.815      865.529
10/18/2013  00:27:00      -69.769      -10.018       -7.099       27.268       28.568       17.018      743.519      816.147      289.627        0.343        0.092       70.485       18.427        0.068      336.390        7.660      865.522
10/18/2013  00:28:00      -98.738        9.075      -10.812       26.191       21.139       15.639      685.989      446.861      244.565        0.566        0.069       99.154       14.462        0.021      336.565        7.954      865.503
10/18/2013  00:29:00     -111.793        0.857      -14.692       28.445       25.517       23.533      809.117      651.102      553.787        0.736        0.101      111.796       14.373        0.017      336.601        8.012      865.505
10/18/2013  00:30:00      -86.524      -10.323      -10.163       28.272       24.151       15.539      799.318      583.266      241.471        0.466        0.081       87.137        9.761        0.013      336.553        7.932      865.512
10/18/2013  00:31:00      -78.251      -39.521      -14.736       33.423       25.598       20.209     1117.094      655.262      408.404        0.504        0.109       87.665        6.704        0.006      336.656        8.106      865.518
10/18/2013  00:32:00      -63.960      -52.991       -5.391       35.685       20.402       22.100     1273.404      416.249      488.392        0.455        0.109       83.060       15.657        0.036      336.562        7.949      865.527
10/18/2013  00:33:00      -47.863      -35.709       10.588       47.256       24.081       25.438     2233.171      579.884      647.086        0.357        0.173       59.716       24.981        0.175      336.412        7.696      865.531
10/18/2013  00:34:00      -71.035      -15.797       -8.528       32.807       26.725       22.471     1076.318      714.203      504.965        0.383        0.115       72.770       15.296        0.044      336.423        7.714      865.531
10/18/2013  00:35:00      -58.155       -4.951      -12.159       21.435       15.187       18.178      459.466      230.641      330.435        0.229        0.051       58.365        9.327        0.026      336.383        7.648      865.530
10/18/2013  00:36:00      -83.384      -24.375      -14.559       21.188       23.126       14.446      448.928      534.816      208.692        0.448        0.060       86.874        9.585        0.012      336.363        7.615      865.525
10/18/2013  00:37:00      -87.788       -7.225      -11.084       18.117       25.517       13.961      328.222      651.093      194.923        0.453        0.059       88.085        9.442        0.011      336.388        7.655      865.525
10/18/2013  00:38:00      -81.567       -8.367       -8.740       30.769       21.774       16.590      946.712      474.110      275.234        0.425        0.085       81.995       14.757        0.032      336.351        7.593      865.524
10/18/2013  00:39:00     -107.221      -10.680      -15.701       15.495       26.478       15.922      240.101      701.060      253.500        0.653        0.060      107.752       11.352        0.011      336.386        7.654      865.522
10/18/2013  00:40:00      -70.291      -29.213      -13.686       20.127       19.660       13.972      405.083      386.514      195.203        0.348        0.049       76.120        8.111        0.011      336.445        7.750      865.530
10/18/2013  00:41:00      -89.759      -44.651      -25.072       18.847       24.788       18.120      355.227      614.467      328.328        0.599        0.065      100.251        9.562        0.009      336.535        7.902      865.536
10/18/2013  00:42:00      -83.233      -55.617      -17.550       26.593       23.073       22.611      707.174      532.378      511.250        0.604        0.088      100.105       13.607        0.018      336.444        7.752      865.528
10/18/2013  00:43:00      -79.181      -31.200       -8.932       32.966       24.186       26.681     1086.736      584.940      711.900        0.485        0.119       85.106       19.167        0.051      336.407        7.688      865.524
10/18/2013  00:44:00      -35.936      -36.751       -0.313       43.351       29.725       29.935     1879.318      883.573      896.099        0.315        0.183       51.401       25.977        0.255      336.327        7.555      865.511
10/18/2013  00:45:00      -31.379      -18.260        0.393       31.336       15.605       23.002      981.975      243.510      529.095        0.154        0.088       36.305       21.657        0.356      336.289        7.492      865.508
10/18/2013  00:46:00      -35.225      -39.734        0.749       28.875       18.442       20.337      833.770      340.094      413.602        0.220        0.079       53.100       12.119        0.052      336.363        7.614      865.504
10/18/2013  00:47:00      -26.862      -25.483        2.905       47.273       24.968       22.743     2234.703      623.391      517.242        0.238        0.169       37.027       24.819        0.449      336.344        7.581      865.497
10/18/2013  00:48:00      -90.688      -48.988      -19.603       22.882       16.080       12.845      523.587      258.559      165.005        0.598        0.047      103.073        5.306        0.003      336.326        7.551      865.490
10/18/2013  00:49:00     -112.252      -53.540      -14.474       15.829       18.678       13.445      250.543      348.878      180.775        0.823        0.039      124.367        9.989        0.006      336.273        7.464      865.487
10/18/2013  00:50:00      -93.951      -51.127       -6.972       35.660       20.188       17.830     1271.629      407.565      317.909        0.674        0.100      106.962       11.138        0.011      336.302        7.512      865.501
10/18/2013  00:51:00      -65.660      -70.254        6.416       36.912       33.449       27.559     1362.491     1118.834      759.487        0.626        0.162       96.161       23.162        0.058      336.304        7.515      865.501
10/18/2013  00:52:00     -132.140      -82.289       -4.678       44.793       33.136       26.779     2006.407     1097.990      717.112        1.404        0.191      155.667       23.869        0.024      336.286        7.486      865.507
10/18/2013  00:53:00     -121.230      -73.326       -4.804       40.313       36.186       21.443     1625.109     1309.461      459.798        1.174        0.170      141.681       22.765        0.026      336.167        7.286      865.505
10/18/2013  00:54:00      -88.783      -63.552       -0.529       47.949       34.360       26.098     2299.071     1180.610      681.104        0.804        0.208      109.184       29.984        0.075      336.072        7.127      865.522
10/18/2013  00:55:00      -91.572      -82.381       -1.456       40.139       36.384       22.653     1611.140     1323.832      513.178        0.931        0.172      123.175       18.355        0.022      336.056        7.101      865.525
10/18/2013  00:56:00      -59.762      -74.172        4.101       40.158       31.767       23.149     1612.633     1009.113      535.859        0.612        0.158       95.252       22.780        0.057      336.121        7.210      865.524
10/18/2013  00:57:00     -104.257      -66.961       -6.282       34.227       42.126       22.698     1171.492     1774.579      515.204        0.943        0.173      123.909       17.906        0.021      336.159        7.274      865.535
10/18/2013  00:58:00      -60.679      -88.111       -0.467       38.606       30.622       21.299     1490.457      937.719      453.631        0.716        0.144      106.983       18.229        0.029      336.240        7.410      865.548
10/18/2013  00:59:00     -108.552     -107.569       -7.293       30.241       33.220       16.320      914.493     1103.539      266.332        1.285        0.114      152.822        8.597        0.003      336.277        7.471      865.562
10/18/2013  01:00:00     -102.780      -83.849        3.509       38.385       48.694       26.399     1473.407     2371.102      696.912        1.107        0.227      132.643       19.419        0.021      336.247        7.421      865.576
10/18/2013  01:01:00      -57.224      -59.924       -1.397       42.944       36.150       28.042     1844.213     1306.818      786.344        0.540        0.197       82.858       25.224        0.093      336.138        7.237      865.593
10/18/2013  01:02:00      -67.187      -21.121      -13.743       26.271       38.331       22.285      690.181     1469.277      496.618        0.390        0.133       70.429       21.142        0.090      336.149        7.257      865.602
10/18/2013  01:03:00     -128.171      -57.324       -9.783       48.173       45.051       23.662     2320.667     2029.558      559.899        1.236        0.246      140.406       17.547        0.016      336.047        7.085      865.599
10/18/2013  01:04:00     -120.230      -72.420       -0.379       43.729       44.582       24.780     1912.216     1987.589      614.047        1.211        0.226      140.357       19.662        0.020      336.001        7.010      865.586
10/18/2013  01:05:00      -73.762      -50.913        2.486       45.228       25.348       22.631     2045.611      642.524      512.164        0.562        0.160       89.627       25.632        0.082      335.916        6.869      865.581
10/18/2013  01:06:00      -89.475      -53.922       -4.463       28.851       15.653       14.914      832.360      245.026      222.437        0.612        0.065      104.467        9.012        0.007      335.933        6.897      865.587
10/18/2013  01:07:00     -116.364      -45.967      -15.250       10.186       11.209       11.025      103.751      125.641      121.540        0.812        0.018      125.114        4.109        0.001      335.876        6.802      865.584
10/18/2013  01:08:00     -111.914      -39.304      -12.553       18.790       13.018       12.262      353.081      169.469      150.368        0.745        0.034      118.615       11.662        0.010      335.893        6.831      865.574
10/18/2013  01:09:00     -140.689      -29.626      -21.745       13.326       12.269       11.599      177.579      150.517      134.526        1.080        0.023      143.775        5.928        0.002      335.882        6.811      865.561
10/18/2013  01:10:00     -129.868      -39.810      -21.267       12.920       13.967        8.825      166.931      195.088       77.878        0.967        0.022      135.833        7.847        0.003      335.882        6.811      865.561
10/18/2013  01:11:00      -94.611      -51.409      -14.490       19.028       21.453       14.081      362.055      460.240      198.263        0.641        0.051      107.676        7.430        0.005      335.923        6.881      865.567
10/18/2013  01:12:00      -44.241      -60.967      -12.190       20.673       21.893       17.035      427.365      479.306      290.184        0.351        0.060       75.328        6.525        0.008      335.886        6.819      865.573
10/18/2013  01:13:00      -20.294      -22.468        7.734       25.823       14.428       20.487      666.837      208.182      419.737        0.114        0.065       30.277       17.224        0.324      335.887        6.821      865.582
10/18/2013  01:14:00      -69.103      -40.731      -16.024       31.102       17.269       12.414      967.306      298.225      154.096        0.406        0.071       80.213        7.628        0.009      335.964        6.947      865.585
10/18/2013  01:15:00      -95.372      -17.245       -9.339       17.129       14.412       12.655      293.407      207.716      160.151        0.507        0.033       96.919       11.107        0.013      335.889        6.823      865.567
10/18/2013  01:16:00      -44.499      -34.571      -12.007       25.457       15.608       12.195      648.049      243.603      148.725        0.218        0.052       56.350        6.144        0.012      335.941        6.910      865.562
10/18/2013  01:17:00      -50.893      -24.308       -3.986       21.802       20.828       13.648      475.335      433.812      186.261        0.215        0.055       56.400        8.326        0.022      335.969        6.956      865.565
10/18/2013  01:18:00      -45.085      -40.411       -1.961       20.065       22.067       14.013      402.607      486.966      196.365        0.238        0.054       60.545       11.314        0.035      335.939        6.905      865.560
10/18/2013  01:19:00      -53.574      -26.224      -11.554       24.171       19.292       18.364      584.219      372.175      337.220        0.249        0.065       59.648       12.894        0.047      335.910        6.857      865.557
10/18/2013  01:20:00      -40.569      -35.302       -7.975       29.941       21.408       22.713      896.492      458.302      515.866        0.241        0.094       53.779       21.412        0.159      335.869        6.791      865.553
10/18/2013  01:21:00      -60.288      -26.689      -14.548       31.788       21.395       19.871     1010.458      457.735      394.846        0.321        0.093       65.931       19.747        0.090      335.883        6.813      865.564
10/18/2013  01:22:00      -64.745      -40.763       -3.803       41.479       26.742       19.240     1720.544      715.160      370.178        0.434        0.140       76.508       16.831        0.048      335.841        6.745      865.561
10/18/2013  01:23:00      -98.921      -65.013       -7.301       28.116       22.480       17.117      790.512      505.345      292.985        0.783        0.079      118.373       15.180        0.016      335.772        6.628      865.562
10/18/2013  01:24:00     -108.124      -39.802      -10.517       19.781       20.699       15.634      391.300      428.456      244.407        0.722        0.053      115.217       13.441        0.014      335.805        6.684      865.570
10/18/2013  01:25:00     -101.411      -37.934       -7.199       16.041       17.618       13.894      257.325      310.388      193.050        0.627        0.038      108.273        8.201        0.006      335.791        6.662      865.574
10/18/2013  01:26:00      -76.147      -52.150       -7.578       28.097       16.374       15.308      789.438      268.107      234.325        0.493        0.065       92.292        9.385        0.010      335.827        6.722      865.564
10/18/2013  01:27:00      -65.496      -54.445       -0.559       37.286       29.036       19.228     1390.260      843.111      369.708        0.493        0.130       85.171       14.844        0.030      335.792        6.662      865.576
10/18/2013  01:28:00      -77.622      -46.757       -4.220       29.121       21.667       15.510      848.022      469.448      240.568        0.489        0.078       90.617        7.112        0.006      335.847        6.753      865.584
10/18/2013  01:29:00      -70.202      -41.961        4.110       39.680       21.086       17.078     1574.499      444.602      291.646        0.451        0.116       81.786       18.876        0.053      335.801        6.678      865.580
10/18/2013  01:30:00      -34.022      -38.062       12.015       26.209       24.417       20.904      686.927      596.208      436.993        0.224        0.086       51.051       16.892        0.109      335.839        6.741      865.584
10/18/2013  01:31:00      -52.456      -62.271        9.089       31.995       30.704       21.279     1023.709      942.724      452.779        0.457        0.121       81.421       23.503        0.083      335.776        6.634      865.596
10/18/2013  01:32:00     -100.061      -56.422        3.261       36.556       29.970       20.200     1336.363      898.223      408.026        0.792        0.132      114.872       13.979        0.015      335.760        6.609      865.610
10/18/2013  01:33:00      -83.139      -51.250       -0.640       49.073       32.073       21.019     2408.192     1028.678      441.797        0.671        0.194       97.666       14.084        0.021      335.737        6.571      865.608
10/18/2013  01:34:00      -53.086      -61.110        7.797       51.451       49.750       24.256     2647.235     2475.056      588.341        0.616        0.286       80.948       29.583        0.134      335.649        6.426      865.605
10/18/2013  01:35:00      -97.407      -61.647        2.696       58.259       36.997       25.113     3394.082     1368.762      630.647        0.934        0.270      115.275       30.660        0.071      335.657        6.438      865.602
10/18/2013  01:36:00      -68.097      -49.735        5.056       56.542       37.754       27.337     3196.955     1425.369      747.326        0.625        0.268       84.325       29.448        0.122      335.613        6.363      865.600
10/18/2013  01:37:00      -78.563      -58.408        3.310       56.464       40.721       29.733     3188.203     1658.229      884.071        0.766        0.287       97.896       31.350        0.103      335.579        6.308      865.585
10/18/2013  01:38:00     -104.634      -66.097        4.180       59.660       42.652       33.604     3559.324     1819.208     1129.235        1.092        0.325      123.762       36.615        0.088      335.571        6.294      865.568
10/18/2013  01:39:00     -116.502      -70.232       -2.882       46.292       38.497       26.928     2142.932     1481.986      725.121        1.143        0.218      136.034       25.981        0.036      335.514        6.199      865.559
10/18/2013  01:40:00      -69.033      -59.171       14.689       59.117       40.550       30.942     3494.878     1644.330      957.430        0.729        0.305       90.922       30.116        0.110      335.493        6.162      865.555
10/18/2013  01:41:00      -73.760      -71.640        9.505       47.508       43.878       31.578     2256.995     1925.316      997.190        0.792        0.259      102.824       30.120        0.086      335.515        6.201      865.550
10/18/2013  01:42:00      -73.300      -57.363        5.733       45.594       35.445       25.494     2078.785     1256.340      649.969        0.634        0.199       93.077       26.525        0.081      335.546        6.252      865.547
10/18/2013  01:43:00      -81.968      -75.457        2.277       41.906       25.112       21.405     1756.094      630.636      458.153        0.763        0.142      111.412       17.423        0.024      335.564        6.283      865.542
10/18/2013  01:44:00      -32.882      -45.163       14.647       46.044       36.183       28.791     2120.005     1309.241      828.947        0.380        0.213       55.865       25.422        0.207      335.482        6.146      865.539
10/18/2013  01:45:00      -89.849      -52.571        8.569       48.730       35.181       25.719     2374.572     1237.684      661.459        0.759        0.214      104.099       25.496        0.060      335.436        6.068      865.544
10/18/2013  01:46:00     -123.709      -56.226       -3.455       27.850       21.450       17.958      775.595      460.082      322.497        1.002        0.078      135.887       13.164        0.009      335.471        6.128      865.532
10/18/2013  01:47:00     -106.510      -26.952       -9.467       17.854       14.995       11.768      318.752      224.858      138.492        0.642        0.034      109.867        9.350        0.007      335.471        6.127      865.520
10/18/2013  01:48:00     -111.117      -32.199      -13.911       20.178       14.046       12.964      407.158      197.278      168.076        0.717        0.039      115.688       10.829        0.009      335.519        6.207      865.522
10/18/2013  01:49:00     -101.695      -22.922      -13.670       16.835       11.216       11.777      283.426      125.802      138.690        0.580        0.027      104.247        7.741        0.006      335.550        6.259      865.529
10/18/2013  01:50:00      -80.094       -8.133      -14.748       16.970       17.961       11.526      287.993      322.613      132.838        0.372        0.037       80.506        7.360        0.008      335.615        6.367      865.523
10/18/2013  01:51:00      -95.963      -31.545      -19.637       19.897       31.522       11.777      395.875      993.651      138.687        0.606        0.076      101.015        5.471        0.003      335.695        6.501      865.519
10/18/2013  01:52:00      -68.236      -57.505       -5.149       29.861       36.526       21.692      891.680     1334.174      470.522        0.534        0.135       89.236       19.292        0.047      335.650        6.426      865.536
10/18/2013  01:53:00     -116.619      -71.337      -14.145       28.772       22.772       17.159      827.821      518.580      294.438        1.026        0.082      136.707        9.195        0.005      335.590        6.324      865.536
10/18/2013  01:54:00     -122.264      -63.761       -9.828       27.032       31.453       15.756      730.724      989.292      248.246        1.054        0.098      137.891        2.812        0.000      335.487        6.154      865.543
10/18/2013  01:55:00      -86.412      -64.495       -2.004       28.428       23.742       19.048      808.125      563.695      362.843        0.668        0.087      107.826       15.491        0.021      335.449        6.089      865.567
10/18/2013  01:56:00      -75.723      -56.458       -3.034       27.282       23.764       20.200      744.311      564.717      408.028        0.532        0.086       94.454       16.432        0.030      335.519        6.206      865.583
10/18/2013  01:57:00      -83.791      -64.850       -1.998       40.905       29.702       21.896     1673.189      882.230      479.449        0.713        0.152      105.955       19.910        0.035      335.534        6.232      865.587
10/18/2013  01:58:00     -101.373      -62.352       -0.300       38.132       31.406       19.993     1454.046      986.333      399.705        0.850        0.142      119.014       13.062        0.012      335.526        6.220      865.596
10/18/2013  01:59:00     -113.300      -62.096       -0.188       34.016       23.322       21.807     1157.121      543.938      475.546        0.943        0.109      129.200       17.179        0.018      335.482        6.144      865.583
10/18/2013  02:00:00      -98.629      -63.328       -6.232       43.949       26.752       18.791     1931.505      715.695      353.104        0.839        0.150      117.209       13.784        0.014      335.478        6.139      865.576
10/18/2013  02:01:00      -95.873      -67.233      -11.075       34.544       24.917       17.799     1193.316      620.860      316.814        0.798        0.107      117.098       12.433        0.011      335.454        6.097      865.582
10/18/2013  02:02:00      -84.410      -68.046        0.471       38.491       23.869       21.808     1481.534      569.721      475.568        0.714        0.126      108.421       19.672        0.033      335.420        6.041      865.592
10/18/2013  02:03:00     -104.672      -79.263       -0.993       30.862       22.477       17.431      952.457      505.216      303.842        0.950        0.088      131.297       14.839        0.013      335.465        6.117      865.595
10/18/2013  02:04:00     -121.010      -64.818       -8.919       14.414       21.638       11.761      207.769      468.190      138.331        0.987        0.041      137.276        7.492        0.003      335.456        6.102      865.593
10/18/2013  02:05:00     -111.147      -47.037       -5.798       19.784       18.057       13.722      391.409      326.069      188.284        0.775        0.045      120.690        9.613        0.006      335.379        5.972      865.594
10/18/2013  02:06:00     -119.030      -57.055       -9.401       15.609       20.462       17.554      243.645      418.709      308.152        0.924        0.049      131.998       10.733        0.007      335.364        5.947      865.597
10/18/2013  02:07:00     -111.977      -49.692      -17.345       16.371       27.879       13.188      268.017      777.235      173.916        0.826        0.061      122.508        9.583        0.006      335.398        6.005      865.598
10/18/2013  02:08:00     -121.013      -40.825       -3.961       22.880       26.636       14.907      523.473      709.466      222.221        0.889        0.073      127.713       10.869        0.007      335.438        6.069      865.596
10/18/2013  02:09:00     -127.069      -52.947       -4.915       22.197       21.580       10.945      492.696      465.697      119.800        1.003        0.054      137.658        8.143        0.003      335.429        6.057      865.615
10/18/2013  02:10:00     -121.040      -61.969       -1.353       34.130       23.357       22.023     1164.827      545.536      485.015        1.034        0.110      135.981       20.214        0.022      335.368        5.955      865.625
10/18/2013  02:11:00     -119.065      -64.708       -2.940       35.755       27.733       16.147     1278.407      769.110      260.727        1.034        0.115      135.513       14.703        0.012      335.433        6.063      865.616
10/18/2013  02:12:00     -125.032      -58.399       -3.118       36.450       30.448       17.133     1328.637      927.065      293.540        1.080        0.127      137.998       16.622        0.015      335.368        5.955      865.619
10/18/2013  02:13:00      -50.647      -39.000       11.801       45.690       31.622       22.918     2087.600      999.938      525.219        0.392        0.181       63.923       22.132        0.120      335.383        5.980      865.631
10/18/2013  02:14:00      -49.130      -42.914       10.883       42.350       29.203       24.247     1793.510      852.827      587.893        0.380        0.162       65.233       24.567        0.142      335.411        6.028      865.647
10/18/2013  02:15:00      -65.358      -56.450        9.849       46.671       29.490       19.071     2178.155      869.661      363.713        0.548        0.171       86.361       15.208        0.031      335.436        6.070      865.656
10/18/2013  02:16:00      -42.612      -33.151       10.566       49.856       27.521       20.885     2485.629      757.390      436.166        0.335        0.184       53.989       25.335        0.220      335.402        6.013      865.659
10/18/2013  02:17:00      -89.003      -61.843        3.558       42.781       27.496       17.575     1830.203      756.018      308.865        0.733        0.145      108.379       16.252        0.022      335.338        5.905      865.664
10/18/2013  02:18:00      -55.987      -42.283        1.200       39.002       25.871       19.537     1521.151      669.297      381.683        0.375        0.129       70.160       17.342        0.061      335.345        5.915      865.682
10/18/2013  02:19:00      -58.439      -35.482        8.953       42.704       26.637       21.432     1823.597      709.524      459.311        0.387        0.150       68.367       20.638        0.091      335.189        5.658      865.683
10/18/2013  02:20:00      -85.817      -61.184       -4.040       32.694       22.860       20.578     1068.901      522.563      423.450        0.657        0.101      105.394       15.101        0.021      335.165        5.617      865.678
10/18/2013  02:21:00     -123.286      -49.752      -10.661       21.048       19.258       13.779      443.021      370.886      189.851        0.940        0.050      132.946       11.487        0.007      335.120        5.543      865.683
10/18/2013  02:22:00     -132.605      -50.747       -9.947       10.926       14.421        9.055      119.382      207.956       81.995        1.033        0.020      141.984        3.424        0.001      335.146        5.587      865.692
10/18/2013  02:23:00     -118.618      -66.073      -13.112       22.348       16.611       12.404      499.431      275.922      153.855        0.977        0.046      135.779        8.993        0.004      335.153        5.598      865.693
10/18/2013  02:24:00      -80.937      -58.052       -7.512       50.528       25.361       17.370     2553.045      643.189      301.701        0.674        0.175       99.604       21.289        0.046      335.211        5.694      865.692
10/18/2013  02:25:00      -50.475      -36.367        1.303       55.023       27.279       15.518     3027.557      744.125      240.818        0.394        0.201       62.211       16.694        0.072      335.313        5.863      865.701
10/18/2013  02:26:00      -76.111      -25.014       -9.227       31.370       29.312       17.641      984.108      859.169      311.193        0.433        0.108       80.116       16.105        0.040      335.392        5.996      865.705
10/18/2013  02:27:00      -65.226      -17.828       -3.473       39.001       34.650       20.309     1521.078     1200.629      412.459        0.386        0.157       67.618        9.764        0.021      335.354        5.932      865.714
10/18/2013  02:28:00      -80.607      -12.429        4.375       48.267       47.144       25.693     2329.735     2222.591      660.127        0.594        0.261       81.560       19.633        0.058      335.351        5.925      865.709
10/18/2013  02:29:00     -115.764      -54.498       -6.189       53.571       48.588       28.537     2869.870     2360.841      814.374        1.123        0.302      127.951       25.677        0.040      335.275        5.800      865.698
10/18/2013  02:30:00     -190.105      -76.500       -9.487       44.384       36.625       27.814     1969.983     1341.377      773.613        2.308        0.204      204.920       15.360        0.006      335.224        5.715      865.704
10/18/2013  02:31:00     -176.401      -73.617       -7.282       44.323       47.513       28.020     1964.564     2257.505      785.134        2.080        0.250      191.146       24.375        0.016      335.171        5.625      865.713
10/18/2013  02:32:00     -123.321      -45.984        4.364       69.410       53.733       37.185     4817.713     2887.278     1382.745        1.321        0.454      131.616       33.226        0.064      335.130        5.560      865.727
10/18/2013  02:33:00     -119.857      -31.080       -7.120       50.878       34.527       22.615     2588.543     1192.110      511.438        0.984        0.215      123.821       20.345        0.027      335.099        5.509      865.739
10/18/2013  02:34:00      -58.390      -15.484       -1.129       51.214       39.179       23.375     2622.919     1534.966      546.401        0.418        0.235       60.409       21.864        0.131      335.128        5.557      865.753
10/18/2013  02:35:00      -73.453      -36.378       -2.492       40.867       35.060       24.193     1670.107     1229.172      585.281        0.510        0.174       81.968       21.811        0.071      335.141        5.578      865.763
10/18/2013  02:36:00     -121.702      -54.807      -13.491       28.906       23.927       18.850      835.560      572.510      355.313        0.988        0.088      133.473       11.587        0.008      335.120        5.544      865.759
10/18/2013  02:37:00      -64.535      -40.521        0.100       52.501       31.197       21.987     2756.376      973.229      483.431        0.501        0.211       76.202       23.232        0.093      335.171        5.628      865.750
10/18/2013  02:38:00      -93.871      -44.427      -12.255       37.820       28.069       22.158     1430.345      787.857      490.968        0.682        0.135      103.854       13.246        0.016      335.192        5.661      865.739
10/18/2013  02:39:00     -121.890      -39.537      -12.197       30.935       38.927       20.267      956.979     1515.335      410.753        0.973        0.144      128.142       16.521        0.017      335.126        5.554      865.742
10/18/2013  02:40:00      -71.941      -49.425        5.153       48.795       27.160       21.342     2380.928      737.670      455.479        0.561        0.179       87.283       19.302        0.049      335.174        5.631      865.752
10/18/2013  02:41:00      -80.953      -61.654        2.494       51.451       39.447       21.125     2647.226     1556.060      446.248        0.750        0.232      101.758       21.416        0.044      335.167        5.621      865.765
10/18/2013  02:42:00      -91.738      -20.766        2.264       42.262       31.612       22.492     1786.096      999.324      505.885        0.607        0.165       94.059       24.515        0.068      335.168        5.622      865.786
10/18/2013  02:43:00     -102.554      -15.124       -4.115       43.538       31.736       23.010     1895.565     1007.144      529.468        0.710        0.172      103.663       22.349        0.046      335.130        5.558      865.798
10/18/2013  02:44:00      -33.218      -23.423       11.512       34.519       26.029       21.364     1191.583      677.499      456.432        0.205        0.116       40.645       17.500        0.185      335.157        5.604      865.800
10/18/2013  02:45:00      -47.474      -31.292        2.854       40.810       23.835       22.400     1665.476      568.123      501.757        0.299        0.137       56.859       23.524        0.171      335.204        5.684      865.793
10/18/2013  02:46:00      -77.575      -48.318       -4.905       34.553       29.910       18.869     1193.880      894.596      356.050        0.541        0.122       91.392       17.699        0.038      335.175        5.633      865.803
10/18/2013  02:47:00      -84.309      -31.393       -8.530       20.322       16.713       15.369      412.971      279.329      236.199        0.455        0.046       89.964       13.488        0.022      335.133        5.563      865.796
10/18/2013  02:48:00      -60.649      -40.541        0.128       28.246       27.978       14.860      797.861      782.762      220.825        0.356        0.090       72.951       10.321        0.020      335.187        5.655      865.791
10/18/2013  02:49:00      -91.275      -44.886      -11.941       15.862       15.749       12.457      251.601      248.026      155.167        0.557        0.033      101.715        7.418        0.005      335.217        5.704      865.787
10/18/2013  02:50:00      -92.155      -43.566       -5.257       19.430       19.424       15.230      377.517      377.311      231.944        0.570        0.049      101.934       10.444        0.010      335.142        5.579      865.793
10/18/2013  02:51:00      -59.682      -34.658        2.086       29.291       16.929       14.928      857.952      286.606      222.851        0.307        0.068       69.016       12.438        0.032      335.213        5.697      865.811
10/18/2013  02:52:00      -53.837      -36.113        5.479       29.054       17.825       16.415      844.138      317.726      269.458        0.283        0.072       64.827       15.833        0.060      335.123        5.548      865.824
10/18/2013  02:53:00      -87.040      -43.816       -2.276       21.726       19.746       19.033      472.026      389.914      362.249        0.536        0.061       97.446       15.443        0.025      335.187        5.654      865.833
10/18/2013  02:54:00      -67.099      -48.708       -4.310       41.911       29.512       18.712     1756.539      870.956      350.121        0.493        0.149       82.914       15.046        0.033      335.121        5.546      865.832
10/18/2013  02:55:00     -112.289      -59.128      -12.464       18.994       13.858       10.242      360.790      192.050      104.890        0.846        0.033      126.905        5.493        0.002      335.067        5.456      865.847
10/18/2013  02:56:00     -109.038      -54.512      -10.938       16.743       11.057       11.458      280.318      122.256      131.292        0.776        0.027      121.905        7.859        0.004      335.006        5.353      865.860
10/18/2013  02:57:00      -69.842      -45.660       -0.292       24.346       27.847       15.255      592.746      775.473      232.713        0.428        0.080       83.443       13.580        0.026      335.023        5.382      865.876
10/18/2013  02:58:00      -39.540      -39.513        6.982       42.552       26.989       23.380     1810.672      728.424      546.644        0.313        0.154       55.899       21.858        0.153      334.988        5.325      865.889
10/18/2013  02:59:00     -107.179      -54.262        2.313       44.399       25.428       25.213     1971.249      646.569      635.689        0.884        0.163      120.132       18.628        0.024      334.945        5.252      865.887
10/18/2013  03:00:00     -104.205      -48.643        0.195       22.864       24.628       18.090      522.776      606.538      327.243        0.734        0.073      114.999       15.811        0.019      334.966        5.287      865.888
10/18/2013  03:01:00     -119.648      -49.835       -8.469       16.843       15.856       10.594      283.695      251.414      112.237        0.876        0.032      129.612        6.062        0.002      334.955        5.268      865.894
10/18/2013  03:02:00      -81.374      -35.877      -11.016       14.330       18.293       10.553      205.354      334.626      111.366        0.434        0.033       88.932        4.847        0.003      334.965        5.286      865.891
10/18/2013  03:03:00      -95.483      -29.214       -7.097       16.857       19.163       12.261      284.161      367.203      150.329        0.541        0.040       99.852        8.859        0.008      334.993        5.334      865.884
10/18/2013  03:04:00     -100.241      -33.306       -7.085       15.264       12.675       10.370      233.005      160.647      107.546        0.585        0.025      105.629        9.137        0.007      334.985        5.320      865.892
10/18/2013  03:05:00      -78.646      -42.855        0.263       31.804       12.429       13.919     1011.499      154.472      193.745        0.469        0.068       89.564       14.448        0.026      334.978        5.308      865.919
10/18/2013  03:06:00      -59.240      -44.634       -4.142       11.611       19.011       12.463      134.823      361.405      155.329        0.309        0.033       74.173        9.678        0.017      335.010        5.361      865.944
10/18/2013  03:07:00      -31.117      -13.097        3.702       28.210       15.502       10.125      795.830      240.323      102.509        0.115        0.057       33.761       12.697        0.141      335.069        5.460      865.962
10/18/2013  03:08:00      -34.233      -23.923       -1.266       24.166       11.025       11.058      584.003      121.546      122.290        0.129        0.041       41.764       11.734        0.079      335.224        5.713      865.979
10/18/2013  03:09:00      -88.038      -44.125       -9.243       16.395       13.633       12.537      268.802      185.864      157.178        0.520        0.031       98.477        6.151        0.004      335.147        5.588      865.976
10/18/2013  03:10:00      -76.392      -48.761       -2.973       49.187       27.046       16.663     2419.404      731.466      277.641        0.582        0.171       90.628       11.059        0.015      334.954        5.268      865.966
10/18/2013  03:11:00      -54.449      -61.249        4.435       40.737       29.039       17.203     1659.544      843.279      295.939        0.477        0.140       81.952       12.991        0.025      334.913        5.200      865.960
10/18/2013  03:12:00      -60.493      -23.055       -3.094       27.431       21.348       14.676      752.462      455.747      215.391        0.281        0.071       64.738        9.162        0.020      334.880        5.145      865.964
10/18/2013  03:13:00      -60.898      -36.458        2.485       50.329       23.037       17.803     2532.989      530.687      316.929        0.421        0.169       70.977       19.333        0.074      334.863        5.117      865.965
10/18/2013  03:14:00      -71.388      -52.223        0.350       39.663       21.976       18.820     1573.123      482.957      354.202        0.512        0.121       88.450       21.148        0.057      334.847        5.089      865.976
10/18/2013  03:15:00      -71.479      -41.316        4.768       36.053       23.959       14.969     1299.787      574.016      224.064        0.447        0.105       82.561       17.692        0.046      334.855        5.103      865.988
10/18/2013  03:16:00      -99.971      -49.634       -1.647       16.219       17.594       13.573      263.064      309.552      184.220        0.661        0.038      111.614        9.298        0.007      334.824        5.050      865.977
10/18/2013  03:17:00      -91.310      -41.431      -13.699        9.893       12.233        9.653       97.875      149.639       93.182        0.529        0.017      100.270        5.908        0.003      334.854        5.101      865.968
10/18/2013  03:18:00      -80.765      -40.027      -12.909       11.546       14.410        8.875      133.308      207.641       78.774        0.436        0.021       90.140        4.041        0.002      334.880        5.145      865.960
10/18/2013  03:19:00      -83.275      -30.707       -9.991        8.022       12.447        7.108       64.353      154.938       50.526        0.412        0.013       88.756        5.731        0.004      334.963        5.283      865.962
10/18/2013  03:20:00      -74.902      -30.115       -8.101       11.258       11.539       10.509      126.736      133.148      110.441        0.348        0.019       80.729        2.213        0.001      334.967        5.288      865.971
10/18/2013  03:21:00      -88.518      -27.120      -10.875       12.360       12.710        7.387      152.774      161.543       54.566        0.453        0.018       92.579        3.692        0.002      334.947        5.256      865.969
10/18/2013  03:22:00      -91.222      -17.566      -13.266        8.910       10.597       10.092       79.395      112.305      101.844        0.455        0.015       92.898        7.383        0.006      334.910        5.195      865.960
10/18/2013  03:23:00     -103.150      -27.987      -16.434       11.822        8.501        7.738      139.756       72.271       59.869        0.598        0.014      106.879        3.666        0.001      334.858        5.108      865.947
10/18/2013  03:24:00     -108.311      -23.713      -16.445       15.677       11.967        8.911      245.755      143.220       79.399        0.652        0.023      110.877        6.658        0.004      334.887        5.157      865.933
10/18/2013  03:25:00      -86.852      -37.895       -3.427       13.806       17.301       12.774      190.604      299.328      163.182        0.482        0.033       94.760        9.064        0.009      334.847        5.090      865.917
10/18/2013  03:26:00      -66.204      -36.284       -3.254       20.184       13.819       12.835      407.409      190.967      164.738        0.324        0.038       75.495        7.836        0.011      334.888        5.158      865.928
10/18/2013  03:27:00      -37.980      -33.615       -3.336       16.809       13.966       11.667      282.530      195.054      136.117        0.160        0.031       50.719       12.009        0.056      334.981        5.312      865.950
10/18/2013  03:28:00      -70.606      -13.088       -8.122       12.297       10.209        7.872      151.226      104.218       61.970        0.277        0.016       71.808        5.199        0.005      335.086        5.489      865.958
10/18/2013  03:29:00      -70.806      -31.976       -9.890        9.936       11.024        8.222       98.716      121.518       67.606        0.321        0.014       77.691        3.600        0.002      334.965        5.286      865.952
10/18/2013  03:30:00      -55.834      -24.448      -13.899       17.393       11.609        9.289      302.503      134.766       86.291        0.222        0.026       60.952        5.233        0.007      334.879        5.143      865.944
10/18/2013  03:31:00      -78.725      -12.919      -14.743        8.699        9.442        8.646       75.668       89.145       74.752        0.341        0.012       79.778        3.853        0.002      334.929        5.227      865.929
10/18/2013  03:32:00      -60.925      -28.923       -8.244        9.571       11.728        9.231       91.599      137.541       85.202        0.247        0.016       67.442        5.783        0.007      334.921        5.213      865.915
10/18/2013  03:33:00      -75.048      -35.735      -13.102        9.701        7.557        5.384       94.103       57.113       28.987        0.363        0.009       83.121        4.818        0.003      334.894        5.168      865.908
10/18/2013  03:34:00      -84.435      -43.466      -13.663        8.621        8.862        7.508       74.329       78.527       56.370        0.471        0.010       94.966        5.003        0.003      334.854        5.103      865.911
10/18/2013  03:35:00      -82.104      -44.426      -15.441       18.065       10.329       10.627      326.342      106.689      112.937        0.475        0.027       93.353        2.606        0.001      334.914        5.200      865.919
10/18/2013  03:36:00      -98.832      -63.099       -6.771       30.134       24.138       16.248      908.043      582.660      264.004        0.777        0.088      117.257       12.657        0.012      334.867        5.122      865.939
10/18/2013  03:37:00     -118.169      -75.906       -3.045       39.290       29.857       24.838     1543.704      891.429      616.918        1.139        0.153      140.448        7.964        0.003      334.872        5.130      865.943
10/18/2013  03:38:00     -105.423      -59.020       -3.561       17.601       29.002       16.917      309.784      841.134      286.184        0.802        0.072      120.820        8.111        0.005      335.023        5.383      865.939
10/18/2013  03:39:00     -105.368      -51.283       -5.226       36.735       22.456       19.859     1349.430      504.256      394.375        0.800        0.112      117.185       11.905        0.010      334.855        5.103      865.929
10/18/2013  03:40:00      -92.795      -53.537       -3.917       36.988       24.302       19.775     1368.082      590.581      391.061        0.692        0.117      107.131       21.460        0.040      334.719        4.878      865.916
10/18/2013  03:41:00     -108.478      -62.135       -8.043       20.957       24.586       16.908      439.207      604.453      285.892        0.851        0.066      125.013       10.240        0.007      334.696        4.838      865.912
10/18/2013  03:42:00     -105.422      -51.925      -12.883       16.095       18.076       13.024      259.043      326.731      169.612        0.737        0.038      117.516        7.642        0.004      334.674        4.803      865.909
10/18/2013  03:43:00      -83.391      -63.308       -1.328       34.154       22.407       16.397     1166.501      502.079      268.860        0.645        0.097      104.699       17.093        0.027      334.680        4.811      865.902
10/18/2013  03:44:00      -82.556      -67.973       -1.330       39.890       24.346       18.043     1591.186      592.745      325.544        0.697        0.125      106.938       15.317        0.021      334.644        4.752      865.897
10/18/2013  03:45:00     -108.886      -79.704       -3.487       35.289       41.397       19.062     1245.340     1713.684      363.348        1.077        0.166      134.941       14.089        0.011      334.754        4.934      865.888
10/18/2013  03:46:00      -89.852      -60.093       -0.619       36.356       26.815       19.348     1321.762      719.027      374.354        0.705        0.121      108.095       18.624        0.030      334.740        4.911      865.877
10/18/2013  03:47:00     -110.641      -54.460       -5.649       23.501       19.981       14.945      552.298      399.228      223.368        0.821        0.059      123.318       12.038        0.010      334.681        4.815      865.866
10/18/2013  03:48:00      -95.708      -47.130      -10.944       25.174       16.744       14.018      633.746      280.350      196.491        0.631        0.056      106.683        4.750        0.002      334.677        4.806      865.854
10/18/2013  03:49:00      -74.321      -48.668       -6.272       25.013       16.735       14.638      625.672      280.072      214.283        0.453        0.056       88.838       15.259        0.030      334.636        4.739      865.852
10/18/2013  03:50:00      -95.517      -43.820        1.366       28.763       23.963       14.410      827.301      574.233      207.638        0.633        0.080      105.089       14.519        0.019      334.652        4.764      865.843
10/18/2013  03:51:00      -87.738      -46.861       -0.051       23.418       22.564       14.268      548.390      509.128      203.574        0.558        0.063       99.469       11.297        0.013      334.618        4.710      865.837
10/18/2013  03:52:00      -44.727      -30.017        3.522       29.879       26.680       18.123      892.755      711.829      328.442        0.242        0.097       53.865       12.520        0.054      334.588        4.659      865.833
10/18/2013  03:53:00      -83.524      -49.717       -2.972       36.049       20.939       17.518     1299.525      438.434      306.890        0.575        0.102       97.202       11.432        0.014      334.696        4.839      865.835
10/18/2013  03:54:00      -77.148      -57.715       -6.576       34.579       24.560       15.991     1195.730      603.185      255.709        0.569        0.103       96.347       10.358        0.012      334.723        4.884      865.839
10/18/2013  03:55:00      -84.830      -44.672        0.808       21.649       19.339       15.939      468.678      373.996      254.045        0.514        0.055       95.874       11.684        0.015      334.620        4.713      865.860
10/18/2013  03:56:00      -78.850      -44.611        1.991       25.338       17.508       17.093      642.037      306.540      292.181        0.473        0.062       90.595       11.327        0.016      334.612        4.700      865.864
10/18/2013  03:57:00      -73.274      -34.151       -4.651       14.855       14.850       14.961      220.661      220.512      223.826        0.361        0.033       80.842       11.900        0.022      334.604        4.685      865.883
10/18/2013  03:58:00       -6.713      -15.024       15.596        9.453       14.060       11.846       89.352      197.684      140.336        0.047        0.021       16.456        7.558        0.211      334.589        4.661      865.912
10/18/2013  03:59:00      -51.809      -45.186        3.927       27.693       30.339       14.728      766.876      920.435      216.909        0.332        0.095       68.746       12.186        0.031      334.678        4.809      865.929
10/18/2013  04:00:00     -114.812      -65.175       -3.272       30.066       29.040       17.955      903.979      843.350      322.394        0.975        0.103      132.021       14.866        0.013      334.699        4.844      865.930
10/18/2013  04:01:00     -136.589      -80.273       -4.627       35.244       46.125       27.766     1242.111     2127.494      770.975        1.463        0.207      158.431       18.028        0.013      334.848        5.090      865.924
10/18/2013  04:02:00     -130.901     -117.127       -8.233       37.123       29.443       27.114     1378.086      866.863      735.193        1.695        0.149      175.652       16.344        0.009      334.794        5.002      865.925
10/18/2013  04:03:00     -110.840      -69.349       -4.749       23.720       24.660       17.188      562.656      608.096      295.418        0.929        0.073      130.747        9.229        0.005      334.723        4.882      865.921
10/18/2013  04:04:00      -88.979      -50.259       -4.816       29.341       24.023       15.731      860.879      577.091      247.456        0.608        0.084      102.192        7.937        0.006      334.635        4.737      865.908
10/18/2013  04:05:00      -76.417      -41.473       -8.987       15.869       21.963       12.786      251.824      482.387      163.483        0.427        0.045       86.946       10.353        0.014      334.591        4.664      865.907
10/18/2013  04:06:00      -91.994      -37.741      -13.688        9.865       10.636        9.556       97.311      113.131       91.323        0.519        0.015       99.435        2.657        0.001      334.519        4.545      865.922
10/18/2013  04:07:00      -95.896      -47.711       -5.198       16.494       15.939       11.511      272.062      254.053      132.504        0.608        0.033      107.110        7.208        0.005      334.432        4.402      865.941
10/18/2013  04:08:00      -93.266      -49.710       -3.939       24.227       14.483       12.105      586.952      209.761      146.537        0.606        0.047      105.687        4.779        0.002      334.452        4.436      865.960
10/18/2013  04:09:00     -112.883      -52.706       -0.028       24.664       17.207       12.264      608.305      296.096      150.413        0.829        0.053      124.582        9.895        0.006      334.450        4.431      865.967
10/18/2013  04:10:00     -127.733      -47.047       -8.728       16.817       16.280       11.995      282.815      265.039      143.892        0.965        0.035      136.122       11.032        0.007      334.445        4.421      865.970
10/18/2013  04:11:00     -119.530      -26.257      -16.491       11.827       15.308       11.132      139.875      234.324      123.932        0.787        0.025      122.380        6.197        0.003      334.381        4.316      865.979
10/18/2013  04:12:00     -115.714      -33.140      -12.113       19.286       13.898       12.423      371.968      193.154      154.322        0.768        0.036      120.366        6.927        0.003      334.435        4.406      865.977
10/18/2013  04:13:00     -108.566      -36.030       -4.299       26.062       14.781       11.306      679.207      218.490      127.819        0.706        0.051      114.389        9.369        0.007      334.382        4.318      865.973
10/18/2013  04:14:00     -113.597      -45.452       -5.465       21.281       17.532       13.938      452.871      307.373      194.275        0.798        0.048      122.353       10.468        0.007      334.349        4.264      865.986
10/18/2013  04:15:00     -119.115      -43.792        0.949       25.329       17.843       15.927      641.580      318.361      253.669        0.866        0.061      126.910       14.131        0.012      334.429        4.397      865.994
10/18/2013  04:16:00      -91.724      -43.390        0.224       34.076       23.561       16.800     1161.166      555.106      282.247        0.615        0.100      101.469       20.637        0.041      334.457        4.442      866.002
10/18/2013  04:17:00     -102.547      -43.703       -6.182       20.193       15.235       14.158      407.745      232.103      200.440        0.665        0.042      111.471       10.708        0.009      334.412        4.368      866.000
10/18/2013  04:18:00     -113.562      -45.309       -6.897       16.788       21.956       11.514      281.844      482.072      132.566        0.795        0.045      122.267        8.992        0.005      334.462        4.452      866.007
10/18/2013  04:19:00     -113.076      -34.755      -12.429       12.060       10.923       10.099      145.454      119.304      101.998        0.726        0.018      118.297        5.533        0.002      334.416        4.374      866.007
10/18/2013  04:20:00     -128.977      -44.519      -13.028        8.088        8.415        6.463       65.423       70.808       41.775        0.948        0.009      136.444        2.938        0.000      334.405        4.357      866.003
10/18/2013  04:21:00     -114.736      -59.418      -10.078       15.403       14.994       13.473      237.267      224.824      181.512        0.872        0.032      129.208       10.711        0.007      334.379        4.313      866.006
10/18/2013  04:22:00     -131.157      -53.956      -18.094       19.205       14.794       11.933      368.830      218.874      142.385        1.059        0.037      141.822        6.464        0.002      334.393        4.336      866.021
10/18/2013  04:23:00      -92.151      -70.287       -2.814       21.912       18.131       13.715      480.121      328.743      188.112        0.722        0.050      115.897        5.528        0.002      334.354        4.271      866.028
10/18/2013  04:24:00      -77.273      -62.563       -3.550       40.867       29.423       21.682     1670.097      865.720      470.128        0.645        0.150       99.424       24.866        0.063      334.364        4.289      866.037
10/18/2013  04:25:00      -88.694      -64.027       -5.518       29.210       21.261       18.247      853.243      452.017      332.960        0.682        0.082      109.390       14.832        0.018      334.315        4.207      866.038
10/18/2013  04:26:00      -98.820      -72.454      -13.461       21.796       28.336       14.175      475.057      802.946      200.923        0.834        0.074      122.536        8.110        0.004      334.289        4.165      866.054
10/18/2013  04:27:00      -91.863      -67.769      -15.031       27.971       19.089       13.673      782.351      364.394      186.948        0.730        0.067      114.155       10.767        0.009      334.275        4.141      866.063
10/18/2013  04:28:00      -93.836      -61.423      -12.338       22.497       18.574       14.635      506.125      345.008      214.178        0.690        0.053      112.151       12.824        0.013      334.246        4.092      866.071
10/18/2013  04:29:00     -110.651      -42.414       -8.029       12.340       15.931       10.242      152.275      253.811      104.905        0.731        0.026      118.501        4.894        0.002      334.203        4.020      866.084
10/18/2013  04:30:00      -91.416      -32.688       -4.627       16.121       11.898        8.915      259.892      141.570       79.486        0.496        0.024       97.084        4.952        0.003      334.245        4.090      866.109
10/18/2013  04:31:00      -87.695      -38.770       -7.739       17.540       14.487        9.548      307.644      209.859       91.173        0.493        0.030       95.883        8.147        0.007      334.327        4.227      866.119
10/18/2013  04:32:00      -94.401      -41.115      -11.461       11.867       14.309        9.220      140.818      204.746       85.004        0.558        0.022      102.967        5.956        0.003      334.418        4.378      866.120
10/18/2013  04:33:00      -66.512      -45.800       -7.629       21.816       12.648       12.023      475.918      159.979      144.562        0.368        0.039       80.756        7.667        0.009      334.480        4.480      866.136
10/18/2013  04:34:00      -65.201      -31.427       -4.258       15.897        8.825        7.382      252.714       77.877       54.496        0.282        0.019       72.379        3.038        0.002      334.518        4.543      866.150
10/18/2013  04:35:00      -50.610      -37.347       -0.319       28.235       13.963       10.231      797.227      194.975      104.668        0.253        0.055       62.898        5.104        0.007      334.437        4.410      866.158
10/18/2013  04:36:00      -21.193      -29.057        3.810       28.230       18.956       16.633      796.950      359.318      276.647        0.137        0.072       35.965       15.314        0.181      334.457        4.442      866.178
10/18/2013  04:37:00      -74.038      -55.950       -2.579       31.715       20.284       22.625     1005.863      411.443      511.910        0.527        0.096       92.801       18.054        0.038      334.545        4.588      866.188
10/18/2013  04:38:00      -94.111      -49.726        2.565       36.759       26.476       22.148     1351.258      700.997      490.536        0.694        0.127      106.440       21.416        0.040      334.434        4.405      866.195
10/18/2013  04:39:00     -111.557      -58.266       -0.885       36.906       31.649       23.878     1362.024     1001.684      570.151        0.939        0.147      125.857       17.006        0.018      334.407        4.360      866.201
10/18/2013  04:40:00      -96.877      -60.434       -3.329       33.174       40.413       21.640     1100.496     1633.217      468.300        0.812        0.160      114.181       17.043        0.022      334.525        4.555      866.207
10/18/2013  04:41:00      -78.026      -66.650        1.914       60.500       53.810       31.891     3660.283     2895.485     1017.014        0.905        0.379      102.617       34.510        0.113      334.437        4.410      866.224
10/18/2013  04:42:00     -123.333      -95.328      -14.889       43.442       33.026       25.904     1887.222     1090.708      671.038        1.408        0.182      155.879       17.111        0.012      334.350        4.265      866.228
10/18/2013  04:43:00     -120.061     -101.204      -12.964       56.286       44.755       26.663     3168.141     2003.015      710.904        1.535        0.294      157.025       27.160        0.030      334.167        3.961      866.228
10/18/2013  04:44:00     -113.933      -74.321      -17.673       35.558       29.967       23.081     1264.340      898.023      532.736        1.076        0.135      136.030        8.599        0.004      334.224        4.056      866.225
10/18/2013  04:45:00      -73.573      -73.687       -4.267       43.403       32.515       18.616     1883.858     1057.218      346.550        0.707        0.164      104.129       18.100        0.030      334.259        4.114      866.221
10/18/2013  04:46:00     -110.885      -90.207       -4.961       43.862       33.088       21.280     1923.832     1094.826      452.857        1.196        0.174      142.943       16.942        0.014      334.227        4.062      866.220
10/18/2013  04:47:00     -113.699      -78.203        0.171       54.697       43.570       26.282     2991.740     1898.376      690.722        1.231        0.279      137.997       28.633        0.043      334.201        4.018      866.228
10/18/2013  04:48:00     -123.760      -86.554       -9.951       35.157       35.211       19.173     1236.043     1239.805      367.593        1.287        0.142      151.024        6.593        0.002      334.242        4.084      866.223
10/18/2013  04:49:00     -110.881      -74.913        4.250       49.428       36.263       25.124     2443.092     1315.008      631.222        1.116        0.219      133.815       23.713        0.031      334.261        4.117      866.218
10/18/2013  04:50:00     -121.712      -61.470       -4.614       41.040       28.531       27.565     1684.302      814.000      759.809        1.094        0.163      136.354       24.576        0.032      334.251        4.101      866.217
10/18/2013  04:51:00     -111.049      -82.531       -1.968       41.769       33.402       26.766     1744.662     1115.689      716.445        1.136        0.179      138.359       23.841        0.030      334.217        4.044      866.219
10/18/2013  04:52:00      -94.588      -78.097       -8.556       36.924       29.443       18.139     1363.402      866.868      329.031        0.884        0.128      122.662       18.347        0.022      334.210        4.033      866.218
10/18/2013  04:53:00      -94.854      -45.421       -7.260       25.742       16.182       14.151      662.669      261.843      200.251        0.612        0.056      105.168       13.840        0.017      334.180        3.982      866.207
10/18/2013  04:54:00      -99.115      -19.540       -6.320       31.039       28.642       21.014      963.426      820.344      441.583        0.624        0.111      101.023       20.809        0.042      334.079        3.814      866.200
10/18/2013  04:55:00     -109.769      -25.095       -3.029       26.643       17.143       15.119      709.833      293.874      228.593        0.696        0.062      112.601       13.097        0.014      333.990        3.669      866.200
10/18/2013  04:56:00     -100.922      -35.514        1.471       23.177       24.097       16.734      537.187      580.677      280.012        0.642        0.070      106.988       14.371        0.018      334.016        3.711      866.201
10/18/2013  04:57:00     -126.899      -34.325       -6.076       21.143       21.382       14.640      447.026      457.173      214.333        0.922        0.056      131.459        8.194        0.004      333.995        3.676      866.217
10/18/2013  04:58:00     -107.031      -35.675        1.084       31.144       21.650       17.888      969.949      468.727      319.973        0.724        0.088      112.820       16.494        0.021      333.969        3.633      866.233
10/18/2013  04:59:00      -87.117      -28.555        5.817       35.861       25.134       18.596     1286.015      631.710      345.805        0.535        0.113       91.677       18.918        0.043      334.012        3.705      866.243
10/18/2013  05:00:00     -103.563      -30.549        2.133       25.146       21.504       14.905      632.304      462.442      222.171        0.649        0.066      107.975       14.604        0.018      334.024        3.724      866.250
10/18/2013  05:01:00     -111.660      -45.573        1.561       27.188       24.007       18.645      739.164      576.353      347.618        0.810        0.083      120.602       17.709        0.022      334.011        3.703      866.254
10/18/2013  05:02:00     -136.418      -27.514      -13.081       17.739       20.115       12.422      314.686      404.624      154.315        1.021        0.044      139.165        7.357        0.003      334.021        3.718      866.237
10/18/2013  05:03:00     -111.381      -26.924       -5.736       25.595       16.814       14.300      655.128      282.727      204.499        0.715        0.057      114.589       11.349        0.010      333.932        3.571      866.227
10/18/2013  05:04:00     -125.014      -28.737       -7.861       29.003       29.566       17.405      841.184      874.128      302.937        0.927        0.101      128.274       15.810        0.015      333.909        3.533      866.232
10/18/2013  05:05:00     -132.923      -44.544       -9.135       31.093       24.937       17.612      966.756      621.863      310.178        1.082        0.095      140.188       16.663        0.014      333.978        3.647      866.236
10/18/2013  05:06:00      -99.188      -67.066       -2.087       34.413       39.286       20.226     1184.276     1543.414      409.105        0.874        0.157      119.734       18.554        0.024      334.026        3.726      866.254
10/18/2013  05:07:00     -124.442      -73.480       -5.730       30.164       25.647       16.777      909.882      657.766      281.479        1.138        0.092      144.516       17.792        0.015      334.019        3.716      866.281
10/18/2013  05:08:00     -118.158      -61.998       -0.284       28.709       24.268       19.429      824.201      588.942      377.474        0.980        0.090      133.436       10.920        0.007      334.010        3.700      866.296
10/18/2013  05:09:00     -114.911      -57.777        4.179       34.381       27.059       21.164     1182.025      732.198      447.905        0.946        0.118      128.618       19.225        0.022      334.017        3.712      866.300
10/18/2013  05:10:00     -136.170      -64.340       -2.856       25.851       23.376       21.216      668.282      546.426      450.107        1.218        0.083      150.605       14.554        0.009      334.055        3.776      866.305
10/18/2013  05:11:00     -123.962      -46.974       -2.298       31.419       20.013       16.792      987.163      400.516      281.971        0.962        0.083      132.564       15.562        0.014      334.056        3.777      866.306
10/18/2013  05:12:00     -110.283      -38.355        0.559       35.938       24.310       18.118     1291.554      590.988      328.265        0.792        0.111      116.762       17.106        0.021      333.989        3.665      866.306
10/18/2013  05:13:00     -132.935      -53.798       -3.447       30.129       25.336       13.912      907.769      641.907      193.534        1.116        0.087      143.409        9.830        0.005      333.998        3.681      866.309
10/18/2013  05:14:00      -98.681      -45.258        2.864       41.576       24.604       23.197     1728.554      605.343      538.079        0.733        0.144      108.565       24.539        0.051      334.065        3.792      866.319
10/18/2013  05:15:00      -68.483      -48.637        2.746       42.379       27.554       24.432     1795.987      759.246      596.923        0.511        0.158       83.997       23.133        0.076      334.094        3.839      866.333
10/18/2013  05:16:00      -63.912      -50.379       -1.108       53.769       27.391       20.434     2891.055      750.247      417.560        0.534        0.203       81.381       23.334        0.082      334.007        3.695      866.345
10/18/2013  05:17:00      -85.931      -39.506        4.708       41.721       29.870       25.583     1740.656      892.231      654.486        0.613        0.164       94.577       22.221        0.055      333.982        3.655      866.351
10/18/2013  05:18:00      -98.448      -50.459        2.603       34.300       20.991       16.821     1176.516      440.620      282.931        0.707        0.095      110.626       14.999        0.018      333.946        3.596      866.347
10/18/2013  05:19:00     -114.428      -54.530       -6.159       18.296       17.299       10.411      334.740      299.266      108.399        0.842        0.037      126.757        7.242        0.003      333.956        3.611      866.344
10/18/2013  05:20:00      -75.482      -48.251        6.103       38.507       24.884       21.514     1482.763      619.225      462.849        0.531        0.128       89.586       20.269        0.051      333.998        3.682      866.339
10/18/2013  05:21:00      -89.871      -42.007       -2.660       32.917       18.466       15.470     1083.502      340.990      239.325        0.576        0.083       99.204       15.870        0.026      333.896        3.512      866.344
10/18/2013  05:22:00     -109.242      -36.026       -3.542       20.286       22.784       14.987      411.510      519.118      224.599        0.720        0.058      115.029       12.215        0.011      333.920        3.551      866.363
10/18/2013  05:23:00     -101.140      -51.272       -2.586       36.845       18.808       17.114     1357.580      353.724      292.884        0.743        0.100      113.394       19.754        0.030      333.872        3.472      866.376
10/18/2013  05:24:00      -87.833      -58.054       -4.791       33.269       23.594       22.397     1106.842      556.656      501.610        0.664        0.108      105.285       21.164        0.040      333.758        3.283      866.385
10/18/2013  05:25:00      -80.057      -58.293        2.632       39.632       30.576       23.787     1570.667      934.904      565.841        0.644        0.154       99.031       15.530        0.025      333.777        3.313      866.390
10/18/2013  05:26:00      -83.136      -62.704        5.703       49.617       37.281       24.506     2461.830     1389.854      600.533        0.766        0.223      104.132       22.968        0.049      333.848        3.431      866.404
10/18/2013  05:27:00     -119.730      -65.567       -3.921       30.149       29.718       18.794      908.963      883.130      353.197        1.040        0.107      136.508       16.089        0.014      333.877        3.481      866.412
10/18/2013  05:28:00      -93.653      -75.326        0.135       49.573       32.457       23.382     2457.494     1053.437      546.735        0.925        0.203      120.187       22.226        0.034      333.876        3.480      866.412
10/18/2013  05:29:00      -77.440      -48.237        3.646       42.827       25.408       21.986     1834.162      645.587      483.389        0.565        0.148       91.235       20.320        0.050      333.824        3.392      866.420
10/18/2013  05:30:00      -50.828      -30.354        6.540       42.783       24.491       20.644     1830.415      599.799      426.183        0.320        0.143       59.202       24.398        0.170      333.861        3.453      866.436
10/18/2013  05:31:00      -91.929      -60.221       -7.618       18.513       17.025       14.851      342.719      289.844      220.564        0.649        0.043      109.898        7.649        0.005      333.836        3.412      866.444
10/18/2013  05:32:00     -108.156      -21.963       -7.989       19.298       21.512       14.988      372.429      462.766      224.627        0.665        0.053      110.364        9.439        0.007      333.842        3.422      866.441
10/18/2013  05:33:00     -106.104      -14.457       -6.126       33.369       19.183       16.164     1113.508      368.003      261.282        0.662        0.087      107.084       15.384        0.021      333.747        3.264      866.441
10/18/2013  05:34:00     -134.577      -24.091       -2.932       20.738       16.942       14.770      430.049      287.028      218.167        0.982        0.047      136.716       13.613        0.010      333.698        3.183      866.447
10/18/2013  05:35:00     -120.819      -37.797       -0.785       20.888       25.128       13.879      436.290      631.407      192.631        0.864        0.063      126.594        9.914        0.006      333.763        3.291      866.453
10/18/2013  05:36:00     -129.822      -52.919       -3.045       23.997       20.118       14.255      575.837      404.738      203.213        1.042        0.059      140.194       13.542        0.009      333.780        3.319      866.453
10/18/2013  05:37:00     -114.917      -61.761       -1.980       36.530       24.498       22.163     1334.436      600.154      491.192        0.972        0.121      130.462       20.362        0.024      333.727        3.232      866.452
10/18/2013  05:38:00     -102.269      -35.949       -9.249       22.075       32.195       18.859      487.315     1036.533      355.652        0.686        0.094      108.404       14.339        0.017      333.705        3.194      866.449
10/18/2013  05:39:00     -120.413      -19.524       -5.560       28.466       19.669       17.607      810.331      386.879      309.999        0.821        0.075      121.985       15.514        0.016      333.738        3.250      866.446
10/18/2013  05:40:00     -137.074      -31.726       -8.883       19.477       16.404       14.190      379.359      269.089      201.357        1.036        0.042      140.698       11.087        0.006      333.698        3.183      866.447
10/18/2013  05:41:00     -133.398      -13.372      -11.330       38.355       22.839       18.994     1471.105      521.642      360.787        1.023        0.118      134.067       17.657        0.017      333.760        3.286      866.439
10/18/2013  05:42:00      -96.531      -44.858       -4.331       30.538       34.430       17.094      932.572     1185.399      292.195        0.688        0.121      106.445       14.340        0.018      333.771        3.305      866.443
10/18/2013  05:43:00      -70.199      -40.306        0.457       36.036       23.259       18.762     1298.615      540.990      352.013        0.437        0.110       80.948       20.259        0.063      333.814        3.376      866.447
10/18/2013  05:44:00      -22.396      -30.884        0.212       28.798       17.109       19.146      829.310      292.732      366.555        0.147        0.074       38.150       16.513        0.187      333.817        3.382      866.453
10/18/2013  05:45:00      -69.346      -57.871       -7.479       19.220       17.280       12.584      369.392      298.594      158.347        0.452        0.041       90.321        3.835        0.002      333.780        3.319      866.464
10/18/2013  05:46:00     -102.966      -56.238      -12.083       12.719       12.973       12.306      161.768      168.297      151.438        0.720        0.024      117.323        7.520        0.004      333.717        3.214      866.470
10/18/2013  05:47:00      -82.907      -46.358       -4.068       26.425       20.911       16.882      698.259      437.281      284.994        0.523        0.071       94.987       16.037        0.029      333.785        3.328      866.479
10/18/2013  05:48:00      -57.403      -44.172        0.490       24.572       20.439       14.926      603.763      417.773      222.793        0.325        0.062       72.431        7.755        0.011      333.871        3.470      866.487
10/18/2013  05:49:00      -72.614      -49.983        2.537       24.735       22.441       12.486      611.818      503.603      155.907        0.452        0.064       88.154       12.183        0.019      334.004        3.690      866.494
10/18/2013  05:50:00      -39.099      -21.321       12.013       36.375       23.583       18.481     1323.156      556.176      341.550        0.217        0.111       44.534       17.067        0.147      333.913        3.540      866.498
10/18/2013  05:51:00      -66.416      -46.979        3.303       33.336       27.557       19.112     1111.301      759.382      365.287        0.443        0.112       81.351       16.419        0.041      333.880        3.484      866.506
10/18/2013  05:52:00      -74.274      -69.761        4.596       43.739       47.892       26.880     1913.124     2293.599      722.533        0.767        0.246      101.898       26.193        0.066      333.806        3.361      866.510
10/18/2013  05:53:00      -83.136      -54.160        7.611       44.705       36.551       25.515     1998.494     1335.974      651.005        0.694        0.199       99.222       24.642        0.062      333.712        3.206      866.516
10/18/2013  05:54:00      -89.645      -63.464       -2.205       44.433       26.267       18.784     1974.263      689.963      352.836        0.754        0.151      109.836       21.540        0.038      333.688        3.167      866.509
10/18/2013  05:55:00     -116.766      -65.991       -3.129       28.488       24.225       17.738      811.555      586.831      314.619        0.986        0.086      134.124       18.236        0.018      333.748        3.266      866.512
10/18/2013  05:56:00      -78.215      -53.167       -2.414       34.029       21.968       19.798     1157.959      482.597      391.980        0.549        0.102       94.575       20.403        0.047      333.723        3.225      866.504
10/18/2013  05:57:00      -79.599      -45.706       -9.258       28.647       22.194       16.419      820.629      492.562      269.584        0.505        0.079       91.788       17.255        0.035      333.788        3.332      866.503
10/18/2013  05:58:00      -69.562      -60.636        0.831       28.788       27.743       16.699      828.771      769.690      278.867        0.520        0.094       92.280       14.320        0.024      333.797        3.348      866.504
10/18/2013  05:59:00      -75.310      -77.513        2.739       30.007       26.509       17.627      900.406      702.725      310.728        0.680        0.096      108.073       16.967        0.025      333.896        3.512      866.506
10/18/2013  06:00:00      -80.293      -88.315       -6.133       24.692       32.820       18.534      609.714     1077.153      343.504        0.816        0.102      119.359       13.814        0.013      333.915        3.544      866.520
10/18/2013  06:01:00     -123.312      -92.334       -2.022       59.754       35.458       34.775     3570.568     1257.246     1209.305        1.489        0.302      154.050       30.102        0.038      333.905        3.525      866.522
10/18/2013  06:02:00      -97.016      -47.991        1.385       62.131       48.182       40.297     3860.314     2321.525     1623.863        0.976        0.390      108.237       33.406        0.095      333.786        3.328      866.524
10/18/2013  06:03:00     -142.393     -111.798       -8.746       85.348       66.519       40.879     7284.304     4424.762     1671.094        2.311        0.669      181.038       40.238        0.049      333.728        3.229      866.517
10/18/2013  06:04:00     -135.618     -103.178      -17.037       54.710       43.740       26.381     2993.200     1913.203      695.959        1.746        0.280      170.405       17.109        0.010      333.786        3.327      866.519
10/18/2013  06:05:00     -111.302     -104.704       -6.966       40.513       34.292       24.430     1641.292     1175.963      596.832        1.341        0.171      152.810       19.665        0.017      333.849        3.434      866.520
10/18/2013  06:06:00      -95.015      -94.774       -4.045       44.553       37.562       25.743     1984.997     1410.890      662.682        1.104        0.203      134.202       22.599        0.028      333.842        3.421      866.531
10/18/2013  06:07:00     -125.652      -94.615      -12.144       34.294       29.137       26.633     1176.047      848.983      709.331        1.381        0.137      157.291       18.064        0.013      333.801        3.352      866.542
10/18/2013  06:08:00     -102.431      -84.049       -3.335       59.061       33.306       31.645     3488.170     1109.309     1001.418        1.158        0.280      132.500       34.519        0.068      333.808        3.365      866.562
10/18/2013  06:09:00      -99.136      -68.414       -9.207       65.962       33.375       33.371     4350.964     1113.888     1113.651        1.058        0.329      120.450       19.134        0.025      333.723        3.224      866.580
10/18/2013  06:10:00     -143.127     -128.037      -11.010       70.204       67.429       35.595     4928.631     4546.718     1266.976        2.387        0.537      192.039       41.605        0.047      333.588        2.998      866.582
10/18/2013  06:11:00     -155.784     -128.942      -18.633       43.243       51.787       32.600     1869.946     2681.863     1062.775        2.343        0.281      202.224       21.097        0.011      333.581        2.987      866.583
10/18/2013  06:12:00     -121.130     -120.078        3.590       62.750       42.539       36.032     3937.557     1809.530     1298.295        1.807        0.352      170.562       38.464        0.051      333.645        3.094      866.582
10/18/2013  06:13:00     -144.243     -123.031       -5.654       55.441       59.492       35.964     3073.684     3539.249     1293.427        2.194        0.395      189.586       27.740        0.021      333.572        2.972      866.577
10/18/2013  06:14:00     -142.720     -137.219      -10.023       47.969       44.102       30.301     2301.037     1945.010      918.153        2.223        0.258      197.985        9.535        0.002      333.607        3.030      866.577
10/18/2013  06:15:00      -83.443      -84.462        3.678       56.608       36.321       28.108     3204.501     1319.246      790.085        0.971        0.266      118.729       19.728        0.028      333.651        3.105      866.580
10/18/2013  06:16:00      -69.738      -57.759       11.401       47.400       38.399       27.955     2246.717     1474.512      781.505        0.642        0.225       90.551       28.815        0.101      333.644        3.093      866.577
10/18/2013  06:17:00      -78.119      -50.123        4.060       35.548       29.240       21.319     1263.657      854.990      454.480        0.560        0.129       92.816       18.206        0.038      333.606        3.031      866.570
10/18/2013  06:18:00      -85.839      -46.952        0.552       45.291       25.900       21.789     2051.252      670.819      474.748        0.638        0.160       97.841       20.968        0.046      333.612        3.041      866.577
10/18/2013  06:19:00      -63.333      -45.937       -0.594       50.129       24.492       20.968     2512.886      599.874      439.643        0.484        0.178       78.239       27.032        0.119      333.650        3.105      866.582
10/18/2013  06:20:00      -70.242      -51.983       -4.683       25.443       16.328       18.215      647.327      266.618      331.770        0.445        0.062       87.385       15.049        0.030      333.692        3.174      866.579
10/18/2013  06:21:00      -60.430      -34.889        4.730       32.489       27.480       18.308     1055.537      755.168      335.201        0.352        0.107       69.779       16.338        0.055      333.687        3.165      866.574
10/18/2013  06:22:00      -85.871      -13.572       -6.057       27.887       20.494       15.381      777.661      419.997      236.577        0.451        0.072       86.937       15.743        0.033      333.566        2.963      866.569
10/18/2013  06:23:00      -54.711      -45.113        5.908       37.214       30.510       20.390     1384.876      930.837      415.753        0.390        0.137       70.912       20.628        0.085      333.682        3.158      866.562
10/18/2013  06:24:00      -60.422      -38.636        0.256       33.110       21.438       16.199     1096.271      459.606      262.416        0.348        0.091       71.718       15.852        0.049      333.635        3.080      866.572
10/18/2013  06:25:00      -32.584      -16.291       -1.431       24.275       11.136        9.248      589.253      124.012       85.521        0.106        0.040       36.429       12.566        0.119      333.707        3.198      866.587
10/18/2013  06:26:00      -33.295       -7.108        0.747       15.027       12.028        8.323      225.824      144.678       69.278        0.080        0.022       34.045        7.735        0.052      333.707        3.198      866.601
10/18/2013  06:27:00      -20.704       -7.656       -5.398        9.863        9.661        8.414       97.269       93.333       70.794        0.039        0.013       22.074        3.913        0.031      333.815        3.379      866.605
10/18/2013  06:28:00      -49.263      -14.252       -5.102       18.788        9.901        6.415      352.971       98.025       41.151        0.157        0.025       51.283        4.245        0.007      333.862        3.456      866.598
10/18/2013  06:29:00      -57.604       -8.221       -9.675       10.332       12.815        7.005      106.742      164.217       49.068        0.190        0.016       58.187        5.040        0.008      333.821        3.388      866.595
10/18/2013  06:30:00      -59.218       -2.269      -10.141        8.524       12.109        9.873       72.652      146.637       97.486        0.197        0.016       59.261        6.090        0.011      333.748        3.267      866.605
10/18/2013  06:31:00      -47.822      -13.563       -9.266       14.553       10.252        7.560      211.786      105.103       57.148        0.147        0.019       49.708        4.848        0.010      333.679        3.151      866.615
10/18/2013  06:32:00      -23.035      -18.829       -5.661       14.659       12.962        9.747      214.883      168.015       94.994        0.070        0.024       29.752        6.890        0.054      333.817        3.381      866.630
10/18/2013  06:33:00      -32.167      -18.223       -1.550       12.984        9.792        8.699      168.593       95.890       75.668        0.085        0.017       36.970        6.141        0.028      333.777        3.314      866.633
10/18/2013  06:34:00      -73.466      -23.687       -2.770       17.820       11.632        6.985      317.570      135.295       48.791        0.323        0.025       77.190        4.235        0.003      333.705        3.196      866.623
10/18/2013  06:35:00      -60.018      -38.487        5.180       37.344       26.330       14.601     1394.576      693.287      213.203        0.371        0.115       71.298       14.082        0.039      333.586        2.998      866.617
10/18/2013  06:36:00      -51.931      -39.047        6.448       36.384       24.997       17.234     1323.777      624.826      297.018        0.325        0.112       64.973       17.506        0.073      333.676        3.148      866.623
10/18/2013  06:37:00      -47.385      -40.530        4.750       30.818       28.219       16.068      949.748      796.301      258.196        0.296        0.100       62.354        9.313        0.022      333.698        3.183      866.634
10/18/2013  06:38:00        0.719      -25.070       21.371       23.440       22.045       20.367      549.444      485.989      414.823        0.127        0.073       25.080       13.355        0.284      333.712        3.207      866.638
10/18/2013  06:39:00      -73.479      -66.351       -2.152       46.027       40.321       26.394     2118.517     1625.819      696.644        0.712        0.222       99.003       21.094        0.045      333.748        3.266      866.634
10/18/2013  06:40:00      -78.943      -78.965       -1.864       31.217       35.407       20.985      974.472     1253.647      440.388        0.757        0.133      111.658       17.322        0.024      333.784        3.327      866.640
10/18/2013  06:41:00      -73.911      -36.916       -6.222       28.763       19.625       11.963      827.329      385.130      143.106        0.411        0.068       82.617        6.724        0.007      333.768        3.298      866.641
10/18/2013  06:42:00      -39.455      -24.073        8.196       28.627       16.198       15.901      819.501      262.381      252.843        0.177        0.067       46.219       15.893        0.118      333.755        3.279      866.653
10/18/2013  06:43:00      -77.509      -48.940       -3.943       18.063       13.795       13.978      326.288      190.313      195.390        0.456        0.036       91.666        6.021        0.004      333.766        3.297      866.661
10/18/2013  06:44:00      -39.610      -29.218        0.175       27.516       15.569       12.009      757.113      242.399      144.221        0.178        0.057       49.221       12.174        0.061      333.784        3.326      866.680
10/18/2013  06:45:00      -53.033      -23.358       -4.524       25.772       13.561       12.475      664.214      183.896      155.633        0.219        0.050       57.949       10.206        0.031      333.731        3.237      866.687
10/18/2013  06:46:00      -86.693      -36.848      -12.086       18.534       17.280       10.307      343.512      298.612      106.238        0.488        0.037       94.199        7.664        0.007      333.614        3.044      866.691
10/18/2013  06:47:00      -54.594      -30.511        0.330       33.130       23.246       15.873     1097.610      540.386      251.955        0.290        0.094       62.541       14.251        0.052      333.586        2.998      866.698
10/18/2013  06:48:00      -93.632      -33.581       -6.658       22.125       21.167       15.460      489.504      448.039      239.026        0.556        0.059       99.472       14.368        0.021      333.613        3.042      866.701
10/18/2013  06:49:00      -82.739      -12.421       -4.955       17.954       12.501        8.801      322.354      156.285       77.457        0.379        0.028       83.666        8.135        0.009      333.641        3.088      866.710
10/18/2013  06:50:00      -53.183      -17.441       10.202       31.237       17.419       16.173      975.773      303.404      261.570        0.239        0.077       55.970       18.098        0.105      333.614        3.043      866.732
10/18/2013  06:51:00      -50.982      -25.961        6.886       33.690       19.014       12.166     1135.048      361.522      148.021        0.248        0.082       57.211        8.627        0.023      333.626        3.064      866.758
10/18/2013  06:52:00      -51.326      -41.280        4.784       32.842       25.680       20.259     1078.585      659.455      410.415        0.325        0.107       65.866       18.278        0.077      333.644        3.094      866.778
10/18/2013  06:53:00      -66.065      -58.340        4.115       36.095       33.501       22.258     1302.820     1122.348      495.407        0.535        0.146       88.137       22.297        0.064      333.625        3.063      866.790
10/18/2013  06:54:00      -78.401      -70.375       -1.969       36.100       28.002       17.727     1303.205      784.091      314.234        0.675        0.120      105.353       15.018        0.020      333.660        3.120      866.802
10/18/2013  06:55:00      -75.267      -54.499        6.569       46.163       40.132       20.838     2130.978     1610.553      434.237        0.643        0.209       92.926       21.623        0.054      333.633        3.076      866.809
10/18/2013  06:56:00      -61.475      -39.557        3.626       34.641       35.408       21.256     1199.974     1253.737      451.824        0.413        0.145       73.102       21.715        0.088      333.664        3.126      866.815
10/18/2013  06:57:00      -66.393      -72.200       -2.375       32.675       29.201       15.840     1067.684      852.695      250.900        0.590        0.109       98.086       14.805        0.023      333.703        3.191      866.819
10/18/2013  06:58:00      -68.056      -57.545        0.626       38.613       33.530       23.153     1490.951     1124.283      536.057        0.555        0.158       89.124       22.903        0.066      333.656        3.113      866.829
10/18/2013  06:59:00      -57.312      -68.679        2.833       37.231       44.497       22.184     1386.136     1979.994      492.116        0.593        0.193       89.451       19.871        0.049      333.712        3.207      866.843
10/18/2013  07:00:00      -92.646      -87.321       -8.256       49.643       23.384       21.580     2464.405      546.791      465.684        0.988        0.174      127.311       23.010        0.033      333.661        3.120      866.857
10/18/2013  07:01:00      -67.062      -70.803        1.979       47.252       32.630       26.893     2232.782     1064.703      723.212        0.677        0.201       97.522       27.234        0.078      333.712        3.208      866.865
10/18/2013  07:02:00      -80.151      -74.506        2.844       53.020       39.930       25.314     2811.072     1594.439      640.798        0.851        0.252      109.432       27.266        0.062      333.689        3.168      866.874
10/18/2013  07:03:00      -61.635      -70.335       10.311       45.577       40.627       26.913     2077.234     1650.537      724.311        0.665        0.223       93.519       28.414        0.092      333.665        3.127      866.882
10/18/2013  07:04:00     -104.241      -82.970      -14.875       37.339       40.226       20.247     1394.212     1618.134      409.960        1.070        0.171      133.230       24.226        0.033      333.657        3.114      866.883
10/18/2013  07:05:00      -87.946      -57.775       -2.130       45.468       37.145       17.706     2067.323     1379.756      313.489        0.742        0.188      105.225       12.379        0.014      333.627        3.066      866.879
10/18/2013  07:06:00      -55.770      -26.157        8.318       45.744       25.685       18.526     2092.531      659.717      343.203        0.348        0.155       61.599       23.011        0.140      333.624        3.060      866.882
10/18/2013  07:07:00      -63.760      -47.740       -1.242       44.757       27.033       19.396     2003.200      730.766      376.209        0.473        0.156       79.652       20.927        0.069      333.669        3.134      866.881
10/18/2013  07:08:00      -74.127      -19.793       -2.436       33.138       23.553       19.580     1098.096      554.759      383.357        0.396        0.102       76.724       19.139        0.062      333.640        3.087      866.881
10/18/2013  07:09:00      -62.038       -6.852       -6.122       39.029       24.514       18.111     1523.253      600.929      327.993        0.319        0.123       62.415       20.972        0.113      333.513        2.875      866.883
10/18/2013  07:10:00      -69.822       -3.950       -0.751       32.267       13.895       14.836     1041.153      193.082      220.113        0.317        0.073       69.934       14.744        0.044      333.394        2.679      866.894
10/18/2013  07:11:00      -57.178       -1.020       -0.342       24.985       18.187       13.774      624.262      330.776      189.716        0.221        0.057       57.188       13.180        0.053      333.271        2.477      866.893
10/18/2013  07:12:00      -81.673        2.838       -5.825       19.764       16.454       14.872      390.606      270.720      221.176        0.380        0.044       81.722       11.373        0.019      333.381        2.659      866.890
10/18/2013  07:13:00      -78.331      -14.025       -5.575       24.735       21.081       13.079      611.827      444.389      171.056        0.380        0.061       79.577       10.569        0.018      333.343        2.596      866.883
10/18/2013  07:14:00      -71.643      -33.683       -2.979       22.882       15.060       10.783      523.599      226.818      116.278        0.357        0.043       79.166       10.162        0.016      333.364        2.630      866.879
10/18/2013  07:15:00      -77.469      -25.832       -4.370       25.204       28.221       14.780      635.242      796.416      218.434        0.417        0.083       81.662        8.127        0.010      333.363        2.628      866.878
10/18/2013  07:16:00      -75.407      -31.571        1.107       28.952       27.285       15.407      838.235      744.455      237.387        0.425        0.091       81.749       13.550        0.027      333.416        2.716      866.890
10/18/2013  07:17:00      -25.502      -29.882        9.738       35.138       15.069       11.744     1234.678      227.078      137.911        0.162        0.080       39.285       13.470        0.118      333.507        2.865      866.907
10/18/2013  07:18:00      -36.642      -46.956        9.483       41.617       35.796       19.496     1731.978     1281.349      380.085        0.351        0.170       59.561       17.980        0.091      333.515        2.881      866.914
10/18/2013  07:19:00      -70.886      -51.978        4.730       49.003       32.127       23.092     2401.246     1032.148      533.259        0.586        0.198       87.901       22.501        0.066      333.442        2.759      866.924
10/18/2013  07:20:00      -55.819      -47.395        2.627       45.936       31.172       20.482     2110.130      971.687      419.520        0.443        0.175       73.226       24.692        0.114      333.556        2.947      866.932
10/18/2013  07:21:00      -41.801      -52.294        3.942       34.200       25.743       20.270     1169.659      662.728      410.854        0.337        0.112       66.948       15.164        0.051      333.572        2.974      866.949
10/18/2013  07:22:00      -56.266      -32.160       13.406       37.562       20.640       19.203     1410.866      425.996      368.770        0.329        0.110       64.809       17.810        0.076      333.500        2.854      866.968
10/18/2013  07:23:00      -61.926      -51.253        1.984       44.015       38.219       23.199     1937.339     1460.686      538.216        0.520        0.197       80.385       23.880        0.088      333.462        2.792      866.968
10/18/2013  07:24:00      -70.818      -75.967       -1.761       31.682       23.662       22.319     1003.780      559.870      498.136        0.643        0.103      103.856       18.604        0.032      333.472        2.808      866.977
10/18/2013  07:25:00      -74.354      -81.801        5.425       45.543       33.705       20.809     2074.158     1136.040      432.994        0.795        0.182      110.544       21.641        0.038      333.514        2.878      866.991
10/18/2013  07:26:00      -97.739      -82.616       -1.745       38.370       31.645       22.895     1472.292     1001.414      524.170        0.969        0.150      127.978       19.509        0.023      333.453        2.776      866.997
10/18/2013  07:27:00      -67.284      -63.834       -1.233       31.965       23.275       19.721     1021.753      541.706      388.917        0.528        0.098       92.747       18.984        0.042      333.505        2.862      867.004
10/18/2013  07:28:00      -64.886      -33.585        1.912       33.717       20.958       18.248     1136.818      439.255      332.985        0.363        0.095       73.063       18.417        0.064      333.499        2.854      867.017
10/18/2013  07:29:00      -92.417      -26.060       -5.727       26.487       33.252       18.331      701.588     1105.705      336.023        0.570        0.107       96.021       17.687        0.034      333.326        2.567      867.037
10/18/2013  07:30:00      -96.046       -9.865       -1.336       31.731       20.230       17.822     1006.846      409.243      317.627        0.553        0.087       96.552       17.755        0.034      333.280        2.492      867.059
10/18/2013  07:31:00      -99.262        4.312       -5.858       33.014       13.496       16.039     1089.891      182.132      257.237        0.572        0.076       99.355       17.712        0.032      333.232        2.412      867.082
10/18/2013  07:32:00      -96.837       -0.562       -9.138       29.754       20.306       16.063      885.306      412.334      258.022        0.551        0.078       96.838       12.416        0.016      333.279        2.490      867.090
10/18/2013  07:33:00      -64.429        1.616       -4.648       27.437       18.638       14.734      752.775      347.379      217.105        0.275        0.066       64.449       10.104        0.025      333.311        2.543      867.102
10/18/2013  07:34:00      -52.391      -13.855       -3.401       25.691       15.067       14.758      660.015      227.002      217.812        0.203        0.055       54.192       14.316        0.070      333.367        2.635      867.109
10/18/2013  07:35:00      -68.037      -26.972       -2.744       15.707       18.225       10.687      246.709      332.139      114.213        0.303        0.035       73.188        6.296        0.007      333.444        2.763      867.115
10/18/2013  07:36:00      -83.605      -32.732       -9.678       24.780       18.407       15.786      614.031      338.833      249.204        0.468        0.060       89.784        8.261        0.008      333.493        2.842      867.126
10/18/2013  07:37:00      -83.841       -3.099      -11.844       22.458       16.355       10.770      504.345      267.483      115.997        0.403        0.044       83.898        8.530        0.010      333.380        2.657      867.130
10/18/2013  07:38:00      -76.565       -3.766      -10.152       16.047       12.102       11.133      257.515      146.461      123.952        0.325        0.026       76.657        8.863        0.013      333.406        2.699      867.138
10/18/2013  07:39:00      -71.496       -5.779       -6.906       13.437       12.144       10.904      180.564      147.486      118.897        0.282        0.022       71.729        6.820        0.009      333.439        2.754      867.153
10/18/2013  07:40:00      -75.997      -22.114       -5.509       15.956       17.812       12.197      254.597      317.251      148.762        0.351        0.036       79.149        7.108        0.008      333.467        2.800      867.153
10/18/2013  07:41:00      -75.705      -16.500      -11.649       19.712       13.134       11.883      388.574      172.504      141.208        0.342        0.035       77.482        8.602        0.012      333.458        2.785      867.161
10/18/2013  07:42:00      -63.212      -19.919      -10.451       14.273       15.593       11.325      203.729      243.135      128.250        0.254        0.029       66.276        5.486        0.007      333.487        2.835      867.172
10/18/2013  07:43:00      -94.648        2.180      -11.084       22.230       14.167       12.497      494.180      200.703      156.187        0.497        0.043       94.673       10.635        0.013      333.418        2.719      867.170
10/18/2013  07:44:00      -88.447       -1.852       -7.878       24.451       19.637       14.728      597.858      385.601      216.926        0.454        0.060       88.466       10.330        0.014      333.427        2.733      867.185
10/18/2013  07:45:00      -93.071       -1.864      -10.035       32.380       14.927       16.714     1048.475      222.806      279.361        0.516        0.078       93.089       16.200        0.030      333.484        2.827      867.196
10/18/2013  07:46:00      -73.905       -7.678       -9.525       22.705       15.190       12.086      515.498      230.724      146.080        0.325        0.045       74.303       11.694        0.025      333.534        2.909      867.212
10/18/2013  07:47:00      -86.072      -11.840       -8.464       25.366       19.143       15.332      643.431      366.436      235.080        0.443        0.062       86.883       14.938        0.030      333.571        2.971      867.209
10/18/2013  07:48:00      -68.075       -8.587       -3.451       32.805       27.632       15.075     1076.195      763.527      227.249        0.339        0.103       68.614       15.420        0.051      333.612        3.041      867.206
10/18/2013  07:49:00      -40.751       -8.834       -4.796       32.973       20.987       17.673     1087.212      440.464      312.321        0.180        0.092       41.697       17.747        0.181      333.641        3.088      867.200
10/18/2013  07:50:00      -35.006       -7.352       -4.748       27.602       15.824       11.829      761.873      250.397      139.937        0.123        0.058       35.769        7.644        0.046      333.757        3.280      867.205
10/18/2013  07:51:00      -47.308       -6.808       -0.455       28.257       26.337       15.773      798.466      693.662      248.793        0.201        0.087       47.796       14.324        0.090      333.856        3.446      867.214
10/18/2013  07:52:00      -43.428      -22.567       -5.668       26.680       24.401       15.921      711.810      595.429      253.465        0.199        0.078       48.941       12.589        0.066      333.959        3.616      867.220
10/18/2013  07:53:00      -27.167       -5.960       -3.208       20.750       16.521       13.207      430.553      272.935      174.412        0.083        0.044       27.813       11.883        0.183      333.958        3.615      867.242
10/18/2013  07:54:00      -65.689      -15.391       -6.907       23.735       16.912       12.575      563.344      286.009      158.136        0.280        0.050       67.468       11.790        0.031      333.961        3.620      867.263
10/18/2013  07:55:00      -53.713      -14.670       -1.305       18.981       23.004       11.532      360.286      529.164      132.998        0.206        0.051       55.680        8.514        0.023      333.939        3.582      867.271
10/18/2013  07:56:00      -94.354       -5.622       -6.533       21.878       16.338       14.227      478.663      266.938      202.400        0.496        0.047       94.522       10.511        0.012      333.928        3.565      867.261
10/18/2013  07:57:00      -71.017       -8.209       -9.357       21.333       18.239       13.857      455.098      332.671      192.015        0.309        0.049       71.490       10.937        0.023      333.976        3.645      867.252
10/18/2013  07:58:00      -51.016      -16.634       -0.512       21.297       19.989       13.034      453.561      399.570      169.894        0.195        0.051       53.660       11.269        0.044      334.076        3.812      867.254
10/18/2013  07:59:00      -65.923      -18.060       -6.593       22.372       13.089        9.065      500.512      171.331       82.181        0.273        0.038       68.352        9.188        0.018      334.156        3.943      867.263
10/18/2013  08:00:00      -40.449      -13.615       -6.563       10.012       11.385        8.722      100.239      129.609       76.074        0.109        0.015       42.679        5.349        0.016      334.179        3.981      867.270
10/18/2013  08:01:00       -6.527      -18.975        4.292        9.169       11.434        9.529       84.074      130.730       90.797        0.036        0.015       20.066        7.731        0.148      334.367        4.294      867.267
10/18/2013  08:02:00      -16.366       -0.136        0.034        9.257        5.205        9.012       85.697       27.090       81.217        0.023        0.010       16.366        7.246        0.196      334.468        4.461      867.262
10/18/2013  08:03:00      -13.472      -14.213        2.553        6.094        8.957        7.241       37.135       80.220       52.438        0.028        0.008       19.583        2.819        0.021      334.544        4.587      867.258
10/18/2013  08:04:00      -15.575       -6.060        2.003        7.997        5.455        5.687       63.958       29.757       32.344        0.020        0.006       16.713        3.158        0.036      334.564        4.620      867.257
10/18/2013  08:05:00      -36.012      -10.224        0.082        5.598        5.843        4.870       31.343       34.146       23.720        0.075        0.004       37.435        3.445        0.008      334.563        4.619      867.259
10/18/2013  08:06:00      -30.505       -4.846       -3.405        4.732        7.047        4.692       22.393       49.663       22.014        0.053        0.005       30.888        3.176        0.011      334.632        4.733      867.275
10/18/2013  08:07:00      -16.612        1.716        9.333       11.856        9.705       11.098      140.560       94.185      123.170        0.036        0.018       16.701        9.570        0.328      334.921        5.214      867.295
10/18/2013  08:08:00       -3.775        6.073       19.507        5.440       10.778       11.018       29.594      116.156      121.391        0.035        0.013        7.150        7.982        1.246      335.356        5.935      867.309
10/18/2013  08:09:00       -5.345        1.136       22.181        5.972        7.701        5.446       35.662       59.306       29.657        0.032        0.006        5.464        4.007        0.538      335.502        6.178      867.314
10/18/2013  08:10:00      -12.771       12.843       27.814        9.267        9.545        7.536       85.885       91.098       56.791        0.067        0.012       18.112        4.334        0.057      335.261        5.777      867.318
10/18/2013  08:11:00      -14.727       17.183       20.374        9.785       13.452       15.099       95.754      180.962      227.977        0.072        0.025       22.630        6.517        0.083      335.073        5.464      867.323
10/18/2013  08:12:00       -2.523       11.355       34.104        8.962       15.620        9.570       80.318      243.989       91.582        0.086        0.021       11.632        8.079        0.482      335.422        6.047      867.331
10/18/2013  08:13:00        7.072       24.959       41.921       11.993       24.820        8.962      143.828      616.026       80.316        0.164        0.042       25.941       10.355        0.159      335.274        5.799      867.346
10/18/2013  08:14:00       -0.697       24.344       42.169        9.945       22.623       10.173       98.900      511.807      103.497        0.154        0.036       24.354       11.544        0.225      335.343        5.913      867.364
10/18/2013  08:15:00       -3.087       20.632       40.463       16.755       25.772       19.640      280.744      664.182      385.748        0.170        0.067       20.862       18.751        0.808      335.249        5.757      867.382
10/18/2013  08:16:00       27.160      -37.856        9.342       24.388       33.427       26.354      594.775     1117.352      694.521        0.233        0.120       46.591       23.314        0.250      335.317        5.869      867.399
10/18/2013  08:17:00       28.590      -13.179       25.566       26.918       43.474       31.114      724.554     1889.954      968.106        0.261        0.179       31.482       29.248        0.863      335.453        6.096      867.412
10/18/2013  08:18:00       -3.532       42.852       53.847       18.541       33.707       18.026      343.776     1136.139      324.953        0.328        0.090       42.997       19.108        0.198      335.485        6.149      867.430
10/18/2013  08:19:00       -8.652       17.954       34.675       13.590       25.949       18.009      184.701      673.329      324.339        0.139        0.059       19.930       10.039        0.254      335.488        6.155      867.435
10/18/2013  08:20:00       -6.419       37.104       56.622       11.532       28.368       16.840      132.981      804.761      283.588        0.292        0.061       37.655       16.692        0.197      335.493        6.164      867.437
10/18/2013  08:21:00       17.662       20.635       37.897       33.784       29.574       18.445     1141.349      874.631      340.235        0.226        0.118       27.161       16.823        0.384      335.377        5.970      867.443
10/18/2013  08:22:00       -4.162       23.637       45.297       19.433       27.696       13.603      377.626      767.054      185.052        0.198        0.066       24.000       10.127        0.178      335.642        6.412      867.447
10/18/2013  08:23:00       18.589      -10.910       23.207       21.823       60.741       22.591      476.243     3689.521      510.359        0.284        0.234       21.554       28.161        1.707      335.365        5.950      867.447
10/18/2013  08:24:00       36.783      -35.417        7.432       27.527       49.017       26.647      757.762     2402.626      710.085        0.327        0.194       51.062       24.429        0.229      335.387        5.987      867.454
10/18/2013  08:25:00       51.198       27.067       32.758       40.237       28.984       29.377     1619.047      840.095      863.016        0.387        0.166       57.913       28.647        0.245      335.429        6.056      867.456
10/18/2013  08:26:00       53.344       33.877       36.698       38.357       31.387       23.203     1471.222      985.170      538.362        0.417        0.150       63.192       22.521        0.127      335.456        6.102      867.463
10/18/2013  08:27:00       28.219      -14.513       10.087       24.660       30.647       28.743      608.097      939.236      826.144        0.174        0.119       31.732       24.035        0.574      335.519        6.207      867.472
10/18/2013  08:28:00       19.708       11.864       26.939       20.466       16.630       15.339      418.876      276.541      235.296        0.109        0.047       23.003       11.533        0.251      335.672        6.462      867.490
10/18/2013  08:29:00       35.783       30.295       19.965       13.050        9.113       21.030      170.312       83.050      442.280        0.165        0.035       46.885        9.326        0.040      335.324        5.880      867.504
10/18/2013  08:30:00        9.012       26.092       13.016       19.473        9.734       13.962      379.184       94.760      194.926        0.080        0.033       27.604        7.728        0.078      335.479        6.140      867.514
10/18/2013  08:31:00      -13.254       -0.326        3.917       18.285       11.373       10.643      334.334      129.347      113.276        0.038        0.029       13.258        8.879        0.448      335.550        6.257      867.518
10/18/2013  08:32:00        0.170        3.382       31.019       12.796       11.341       13.471      163.725      128.607      181.455        0.072        0.024        3.386        7.134        4.439      336.047        7.086      867.522
10/18/2013  08:33:00       21.652       33.376       35.970       26.483       13.990       10.875      701.366      195.730      118.265        0.195        0.051       39.784       10.542        0.070      335.692        6.495      867.526
10/18/2013  08:34:00       52.803       47.291        6.882       16.563       15.385       18.541      274.345      236.700      343.760        0.296        0.043       70.885       14.151        0.040      335.416        6.035      867.529
10/18/2013  08:35:00       49.980       64.889       26.847       27.419       21.828       32.807      751.780      476.473     1076.281        0.487        0.115       81.906       20.372        0.062      335.561        6.276      867.531
10/18/2013  08:36:00       43.148       50.346       12.937       25.880       17.810       24.434      669.775      317.202      597.021        0.307        0.079       66.306       15.416        0.054      335.563        6.279      867.532
10/18/2013  08:37:00       31.910       33.792       44.393       37.012       29.567       31.898     1369.864      874.220     1017.481        0.370        0.163       46.477       30.673        0.436      335.719        6.541      867.532
10/18/2013  08:38:00       55.996       10.878       18.325       32.796       27.948       26.379     1075.578      781.065      695.836        0.307        0.128       57.043       22.667        0.158      335.813        6.696      867.534
10/18/2013  08:39:00        5.067       24.181       35.655       24.639       25.947       23.446      607.091      673.272      549.722        0.186        0.092       24.706       14.652        0.352      336.062        7.112      867.535
10/18/2013  08:40:00        9.631       21.199       26.806       21.513       23.005       25.217      462.795      529.253      635.876        0.144        0.081       23.285       19.997        0.738      336.078        7.138      867.537
10/18/2013  08:41:00       35.398       39.490       11.077       24.113       28.595       25.219      581.432      817.648      635.995        0.248        0.102       53.033       19.370        0.133      335.904        6.848      867.553
10/18/2013  08:42:00       36.467       46.299       19.030       33.842       26.048       24.639     1145.300      678.490      607.094        0.313        0.122       58.936       18.666        0.100      335.974        6.966      867.556
10/18/2013  08:43:00       80.212       41.344       12.087       34.913       29.165       29.638     1218.933      850.580      878.430        0.562        0.147       90.240       14.215        0.025      335.813        6.697      867.558
10/18/2013  08:44:00       68.949       39.303       -0.562       31.715       23.984       21.596     1005.850      575.230      466.377        0.417        0.102       79.364       13.403        0.029      335.719        6.541      867.573
10/18/2013  08:45:00       57.961       37.833        0.336       34.633       20.405       19.545     1199.447      416.364      381.993        0.339        0.100       69.216       11.357        0.027      335.695        6.499      867.573
10/18/2013  08:46:00       27.224       38.445        7.671       32.692       22.492       22.840     1068.749      505.896      521.663        0.219        0.105       47.108       15.093        0.103      335.891        6.826      867.569
10/18/2013  08:47:00       44.960       52.265        4.486       30.833       21.675       28.501      950.668      469.798      812.310        0.350        0.112       68.942       18.764        0.074      335.768        6.623      867.570
10/18/2013  08:48:00       38.496       36.939        5.615       22.605       25.479       24.961      510.964      649.163      623.065        0.233        0.089       53.352       20.634        0.150      336.017        7.036      867.576
10/18/2013  08:49:00       40.251       40.056        6.731       20.234       16.447       21.751      409.434      270.519      473.113        0.221        0.058       56.786       14.243        0.063      335.823        6.713      867.587
10/18/2013  08:50:00       43.769       36.622        4.899       19.420       24.086       21.051      377.118      580.144      443.165        0.234        0.070       57.069       18.317        0.103      335.991        6.993      867.592
10/18/2013  08:51:00       40.585       33.530        2.674       21.495       25.897       22.135      462.024      670.670      489.940        0.220        0.081       52.644       16.859        0.103      335.980        6.975      867.596
10/18/2013  08:52:00       32.872       21.254        6.024       23.665       22.762       21.967      560.019      518.125      482.528        0.156        0.078       39.145       15.735        0.162      336.005        7.016      867.601
10/18/2013  08:53:00       19.944       33.488        6.277       19.718       18.303       17.082      388.807      334.991      291.791        0.129        0.051       38.977       11.364        0.085      336.183        7.313      867.598
10/18/2013  08:54:00        0.002       26.589       -6.350       16.698       22.749       16.193      278.832      517.520      262.216        0.090        0.053       26.589       14.808        0.310      336.326        7.551      867.601
10/18/2013  08:55:00       -6.971       28.282        4.755       16.424       21.293       18.622      269.733      453.374      346.785        0.097        0.053       29.128       16.122        0.306      336.421        7.712      867.598
10/18/2013  08:56:00      -11.407       17.890        4.062       19.190       25.509       16.326      368.255      650.719      266.550        0.088        0.064       21.217       13.112        0.382      336.395        7.666      867.594
10/18/2013  08:57:00      -33.856       29.683      -12.579       10.926       18.100       13.935      119.380      327.596      194.176        0.141        0.032       45.026        6.671        0.022      336.142        7.245      867.595
10/18/2013  08:58:00      -35.745        2.463       -3.025       11.212       10.668        9.744      125.703      113.800       94.945        0.081        0.017       35.829        5.232        0.021      336.065        7.117      867.590
10/18/2013  08:59:00      -20.602        4.675        4.797       13.276        7.469        8.265      176.242       55.781       68.318        0.038        0.015       21.126        7.667        0.132      336.430        7.727      867.583
10/18/2013  09:00:00      -12.754      -10.180        4.587       12.325       13.939       12.462      151.907      194.306      155.302        0.039        0.025       16.319        7.038        0.186      336.495        7.834      867.571
10/18/2013  09:01:00      -39.210      -14.638       -3.230       11.939        9.103        9.099      142.533       82.862       82.785        0.104        0.015       41.853        5.895        0.020      336.115        7.199      867.564
10/18/2013  09:02:00      -40.080      -25.093       -5.635       17.464       10.607        7.325      304.994      112.517       53.653        0.137        0.024       47.287        6.219        0.017      336.201        7.344      867.556
10/18/2013  09:03:00      -15.175       -4.528        4.614       18.206       13.286       10.721      331.476      176.507      114.945        0.045        0.031       15.836        3.571        0.051      336.324        7.549      867.559
10/18/2013  09:04:00      -25.178       20.396       13.387       16.739       11.682       20.883      280.200      136.476      436.106        0.104        0.043       32.403       18.209        0.316      336.496        7.837      867.549
10/18/2013  09:05:00        1.330       23.427       38.351        8.964       17.588       11.840       80.351      309.328      140.179        0.128        0.026       23.465        7.692        0.107      336.935        8.571      867.555
10/18/2013  09:06:00        2.317       24.706       29.442       13.004       18.912       12.904      169.104      357.649      166.525        0.109        0.035       24.815        8.317        0.112      337.020        8.713      867.549
10/18/2013  09:07:00        5.164       16.976       46.085       18.548       46.231       21.949      344.016     2137.268      481.746        0.270        0.148       17.744       21.112        1.416      336.971        8.630      867.544
10/18/2013  09:08:00       40.249       53.498       55.314       25.309       25.175       18.394      640.548      633.788      338.357        0.458        0.081       66.948       13.292        0.039      336.549        7.926      867.529
10/18/2013  09:09:00       21.018       32.775       -9.217       14.689       14.156       12.351      215.777      200.389      152.545        0.108        0.028       38.935        5.245        0.018      336.410        7.694      867.523
10/18/2013  09:10:00      -20.748      -16.631       -4.335       22.677       27.770       12.546      514.265      771.169      157.397        0.108        0.072       26.591        6.857        0.066      336.627        8.056      867.520
10/18/2013  09:11:00      -31.333      -44.058       -3.271       14.789       27.206       10.379      218.723      740.157      107.728        0.200        0.053       54.063        7.990        0.022      336.507        7.855      867.522
10/18/2013  09:12:00      -57.016      -51.113       -6.134       18.877       16.022       11.568      356.327      256.690      133.812        0.332        0.037       76.573        5.223        0.005      336.440        7.743      867.514
10/18/2013  09:13:00      -80.359      -65.305      -12.288       21.797       22.818       16.514      475.109      520.677      272.710        0.607        0.063      103.548       11.023        0.011      336.502        7.847      867.507
10/18/2013  09:14:00      -42.059      -50.275       -4.911       13.103       26.539        9.240      171.685      704.315       85.378        0.264        0.048       65.548       11.546        0.031      336.525        7.887      867.497
10/18/2013  09:15:00      -28.016       -6.029       -1.832       13.448        7.611        6.781      180.856       57.928       45.988        0.055        0.014       28.657        4.959        0.030      336.680        8.146      867.484
10/18/2013  09:16:00      -59.180      -39.497       -3.164       28.597       23.085       15.364      817.776      532.921      236.057        0.333        0.079       71.149        8.000        0.013      336.704        8.185      867.475
10/18/2013  09:17:00      -40.193      -68.318       -2.551       29.958       33.896       23.089      897.467     1148.964      533.102        0.443        0.129       79.264       16.591        0.044      336.738        8.243      867.465
10/18/2013  09:18:00      -55.383      -92.164       -3.282       24.758       28.068       16.731      612.969      787.814      279.919        0.663        0.084      107.524       10.706        0.010      336.647        8.091      867.461
10/18/2013  09:19:00      -63.013      -68.489       -5.679       36.893       22.403       20.066     1361.105      501.897      402.649        0.548        0.113       93.066        8.019        0.007      336.656        8.104      867.450
10/18/2013  09:20:00      -44.010      -58.366       -6.248       35.579       34.739       11.060     1265.888     1206.831      122.314        0.399        0.130       73.100       12.591        0.030      336.733        8.235      867.441
10/18/2013  09:21:00      -46.759      -95.213       -8.835       14.737       23.019       11.929      217.174      529.858      142.295        0.611        0.044      106.075        7.644        0.005      336.699        8.177      867.464
10/18/2013  09:22:00      -30.235      -14.672       -0.507        7.628       11.557        5.751       58.183      133.574       33.074        0.068        0.011       33.607        4.511        0.018      336.894        8.502      867.469
10/18/2013  09:23:00      -36.592      -57.416        1.971       22.621       28.523       17.928      511.699      813.584      321.402        0.314        0.082       68.085       15.631        0.053      336.941        8.580      867.469
10/18/2013  09:24:00      -48.381      -79.893       -3.828       19.806       24.538       12.041      392.281      602.118      144.976        0.494        0.057       93.400        6.623        0.005      336.863        8.451      867.457
10/18/2013  09:25:00      -53.243      -51.985       -2.955       36.482       21.910       20.848     1330.958      480.056      434.631        0.390        0.112       74.413       21.498        0.083      336.977        8.639      867.449
10/18/2013  09:26:00      -29.106      -61.477        6.348       34.700       22.965       18.764     1204.059      527.375      352.094        0.337        0.104       68.019       18.786        0.076      336.988        8.658      867.445
10/18/2013  09:27:00      -19.879      -62.406       -9.885       17.438       24.114       14.695      304.077      581.495      215.940        0.274        0.055       65.496       13.844        0.045      336.928        8.559      867.442
10/18/2013  09:28:00      -30.856      -24.674       -3.210       24.418       10.967        7.523      596.241      120.267       56.601        0.117        0.039       39.508        9.593        0.059      337.033        8.734      867.438
10/18/2013  09:29:00      -45.010      -10.506        4.595       28.492       35.109       21.435      811.798     1232.654      459.461        0.233        0.125       46.220       20.914        0.205      337.286        9.158      867.443
10/18/2013  09:30:00      -49.486      -66.257       -4.418       23.078       25.385       20.343      532.572      644.413      413.835        0.422        0.080       82.697       10.102        0.015      337.073        8.799      867.450
10/18/2013  09:31:00      -46.753      -65.232       -3.949       21.197       20.076       16.157      449.334      403.059      261.042        0.378        0.056       80.257       12.083        0.023      337.058        8.775      867.457
10/18/2013  09:32:00      -79.470      -68.211       -4.719       27.568       40.652       18.616      759.994     1652.602      346.562        0.687        0.138      104.729        9.190        0.008      337.069        8.793      867.461
10/18/2013  09:33:00      -62.091      -56.550        0.575       51.853       31.602       25.810     2688.691      998.693      666.173        0.570        0.218       83.983       24.602        0.086      337.173        8.968      867.462
10/18/2013  09:34:00      -65.615      -85.259      -15.472       39.682       29.132       18.869     1574.663      848.680      356.037        0.730        0.139      107.584       11.157        0.011      337.194        9.005      867.469
10/18/2013  09:35:00      -51.483      -68.170       -0.575       29.407       35.388       17.851      864.776     1252.341      318.666        0.487        0.122       85.427       16.377        0.037      337.217        9.040      867.473
10/18/2013  09:36:00      -59.103      -64.474       -9.850       13.139       22.799       12.359      172.645      519.795      152.733        0.430        0.042       87.465        3.968        0.002      337.189        8.995      867.480
10/18/2013  09:37:00      -30.596      -14.518       -8.741       21.708       17.334        8.371      471.216      300.454       70.074        0.103        0.042       33.866       11.118        0.108      337.500        9.516      867.485
10/18/2013  09:38:00      -35.387      -66.324       -4.318       18.598       24.964       10.024      345.873      623.184      100.488        0.337        0.053       75.174       10.833        0.021      337.267        9.127      867.493
10/18/2013  09:39:00      -67.554      -68.281       -8.577       33.787       30.423       16.250     1141.534      925.573      264.053        0.581        0.117       96.051        9.219        0.009      337.395        9.338      867.496
10/18/2013  09:40:00     -116.326      -96.988      -13.142       25.851       29.290       17.792      668.271      857.921      316.542        1.248        0.092      151.454       14.765        0.010      337.305        9.190      867.508
10/18/2013  09:41:00      -67.331      -85.741      -12.251       26.607       38.044       12.076      707.943     1447.316      145.831        0.717        0.115      109.019        5.561        0.003      337.360        9.280      867.501
10/18/2013  09:42:00      -32.184       -8.548       -6.254       23.416       28.676       14.508      548.294      822.285      210.477        0.136        0.079       33.299       10.058        0.091      337.550        9.600      867.498
10/18/2013  09:43:00      -79.232      -37.940       -5.405       42.410       35.039       22.472     1798.570     1227.720      504.981        0.564        0.177       87.847       16.334        0.035      337.431        9.399      867.487
10/18/2013  09:44:00      -26.035       -8.494       13.004       56.103       42.359       22.055     3147.520     1794.243      486.443        0.317        0.271       27.386       25.094        0.840      337.902       10.191      867.473
10/18/2013  09:45:00      -59.664      -48.294        6.605       49.236       35.437       26.023     2424.172     1255.789      677.202        0.515        0.218       76.760       28.268        0.136      337.773        9.974      867.470
10/18/2013  09:46:00      -99.703      -45.629       -5.229       46.732       34.788       23.114     2183.914     1210.211      534.238        0.799        0.196      109.648       23.398        0.046      337.571        9.636      867.464
10/18/2013  09:47:00      -16.818      -35.797       10.653       44.717       34.370       24.185     1999.577     1181.263      584.896        0.272        0.188       39.551       30.506        0.595      337.943       10.258      867.464
10/18/2013  09:48:00      -63.487      -55.798       -3.673       26.868       25.534       15.165      721.909      652.007      229.986        0.438        0.080       84.522       14.846        0.031      337.550        9.601      867.466
10/18/2013  09:49:00      -54.862     -108.800       -8.874       21.347       24.250       15.479      455.694      588.076      239.607        0.810        0.064      121.850        9.745        0.006      337.480        9.483      867.467
10/18/2013  09:50:00      -53.510      -50.080        1.005       18.626       23.582       16.296      346.941      556.096      265.564        0.327        0.058       73.289       10.789        0.022      337.635        9.743      867.458
10/18/2013  09:51:00      -79.348      -36.373       -4.976       22.876       18.647       17.643      523.318      347.694      311.264        0.441        0.059       87.287       11.960        0.019      337.656        9.778      867.456
10/18/2013  09:52:00      -82.160      -22.906      -16.985       32.147       20.189       11.474     1033.421      407.613      131.651        0.457        0.079       85.293       13.360        0.025      337.648        9.764      867.452
10/18/2013  09:53:00      -35.194        2.538       -2.004       10.351        8.728        7.282      107.143       76.176       53.034        0.074        0.012       35.286        3.201        0.008      337.724        9.890      867.449
10/18/2013  09:54:00      -41.883      -15.045      -12.099       15.626       12.328       11.199      244.186      151.978      125.415        0.132        0.026       44.504        6.686        0.023      337.936       10.246      867.440
10/18/2013  09:55:00      -27.135      -23.934        9.732       33.732       24.442       24.001     1137.832      597.405      576.029        0.186        0.116       36.182       18.467        0.260      338.009       10.369      867.426
10/18/2013  09:56:00      -25.748       -7.796        7.589       24.626       20.085       14.483      606.420      403.405      209.759        0.100        0.061       26.903        9.107        0.115      338.104       10.530      867.417
10/18/2013  09:57:00      -21.824       18.805       23.380       24.603       24.621       20.025      605.311      606.191      400.984        0.149        0.081       28.808       13.489        0.219      338.558       11.291      867.403
10/18/2013  09:58:00      -34.844      -51.365        0.548       35.871       34.692       29.830     1286.763     1203.539      889.804        0.362        0.169       62.068       26.031        0.176      338.278       10.821      867.400
10/18/2013  09:59:00      -47.384      -52.665       -2.328       26.711       27.828       24.446      713.492      774.422      597.585        0.355        0.104       70.844       19.720        0.077      337.977       10.315      867.402
10/18/2013  10:00:00      -44.154      -27.320       -8.225       23.494       26.518       16.911      551.991      703.212      285.994        0.215        0.077       51.923       15.708        0.092      338.020       10.388      867.392
10/18/2013  10:01:00      -27.673      -29.911       -5.682       36.640       24.992       16.768     1342.459      624.586      281.170        0.197        0.112       40.749        8.841        0.047      338.024       10.394      867.387
10/18/2013  10:02:00      -37.755      -15.522        1.129       26.119       29.640       15.027      682.214      878.500      225.807        0.173        0.089       40.821       14.328        0.123      338.071       10.474      867.383
10/18/2013  10:03:00      -46.305       -9.772       -2.352       19.661       14.578       12.800      386.568      212.530      163.841        0.150        0.038       47.324        6.558        0.019      338.076       10.483      867.377
10/18/2013  10:04:00      -31.893      -28.983       -3.641       18.631       11.933        7.118      347.113      142.400       50.662        0.121        0.027       43.095        5.197        0.015      338.127       10.568      867.367
10/18/2013  10:05:00      -25.692       -9.254       -2.672       21.342       15.952       16.760      455.490      254.455      280.902        0.087        0.050       27.308       14.473        0.281      338.577       11.323      867.358
10/18/2013  10:06:00      -33.649       -5.966       -2.829       17.967       21.669       14.740      322.811      469.562      217.254        0.109        0.050       34.174       12.727        0.139      338.353       10.946      867.347
10/18/2013  10:07:00       13.107        6.385       34.860       46.042       58.293       32.909     2119.858     3398.052     1082.989        0.401        0.330       14.579       28.324        3.774      338.817       11.726      867.333
10/18/2013  10:08:00       -6.519       40.085       72.219       20.876       50.564       29.787      435.809     2556.766      887.266        0.537        0.194       40.612       32.267        0.631      339.167       12.314      867.319
10/18/2013  10:09:00       43.725       83.659       68.087       51.776       38.403       35.408     2680.762     1474.808     1253.717        0.948        0.270       94.397       26.937        0.081      338.540       11.260      867.317
10/18/2013  10:10:00       15.148       48.200       84.207       39.428       45.552       32.490     1554.586     2074.942     1055.572        0.716        0.234       50.524       32.485        0.413      338.997       12.029      867.305
10/18/2013  10:11:00       29.213      -10.237       24.253       44.222       43.684       37.267     1955.580     1908.314     1388.832        0.340        0.263       30.955       19.823        0.410      338.920       11.899      867.298
10/18/2013  10:12:00       58.912       49.042       66.912       64.993       70.986       36.883     4224.088     5038.948     1360.370        1.049        0.531       76.654       35.305        0.212      338.678       11.492      867.286
10/18/2013  10:13:00       72.560      105.674       78.463       66.091       49.839       37.537     4368.080     2483.926     1409.025        1.542        0.413      128.187       20.524        0.026      338.640       11.429      867.275
10/18/2013  10:14:00       21.786       21.212       34.191       57.917       50.710       41.409     3354.337     2571.475     1714.709        0.487        0.382       30.407       32.132        1.117      339.123       12.241      867.271
10/18/2013  10:15:00       19.015       15.694       67.711       42.533       70.829       50.215     1809.024     5016.774     2521.533        0.727        0.467       24.655       50.169        4.141      339.008       12.048      867.269
10/18/2013  10:16:00       56.008       40.154       73.121       59.566       65.734       43.678     3548.071     4320.895     1907.780        0.993        0.489       68.915       39.786        0.333      338.746       11.608      867.274
10/18/2013  10:17:00       70.839       58.870       52.523       41.881       35.380       35.465     1754.032     1251.746     1257.796        0.775        0.213       92.108       12.541        0.019      338.415       11.052      867.277
10/18/2013  10:18:00      101.740       65.649       50.787       80.306       43.092       46.310     6449.107     1856.905     2144.595        1.384        0.523      121.082       40.222        0.110      338.532       11.247      867.260
10/18/2013  10:19:00       72.251       94.358       55.007       74.177       42.516       36.664     5502.226     1807.647     1344.239        1.290        0.433      118.843       36.517        0.094      338.561       11.295      867.253
10/18/2013  10:20:00       27.464       36.513       26.483       51.112       30.579       42.749     2612.398      935.078     1827.441        0.408        0.269       45.689       38.320        0.703      338.940       11.933      867.255
10/18/2013  10:21:00       74.571       73.185       44.019       62.583       39.524       43.530     3916.580     1562.163     1894.868        1.011        0.369      104.484       35.749        0.117      339.035       12.093      867.246
10/18/2013  10:22:00       59.293       74.127       68.562       75.430       40.433       48.534     5689.693     1634.847     2355.581        1.169        0.484       94.923       47.910        0.255      338.711       11.549      867.249
10/18/2013  10:23:00       78.443       60.218       15.601       47.588       37.539       42.388     2264.622     1409.152     1796.734        0.775        0.274       98.891       21.055        0.045      338.868       11.812      867.246
10/18/2013  10:24:00      111.357       70.745       -4.515       36.329       37.880       28.078     1319.760     1434.924      788.354        1.048        0.177      131.929        8.134        0.004      338.584       11.336      867.245
10/18/2013  10:25:00       51.291       46.245       16.649       51.973       28.344       43.902     2701.190      803.359     1927.404        0.524        0.272       69.060       35.258        0.261      339.078       12.165      867.241
10/18/2013  10:26:00       10.022       24.898       64.613       33.833       54.916       32.507     1144.682     3015.803     1056.712        0.506        0.261       26.839       30.019        1.251      339.350       12.624      867.234
10/18/2013  10:27:00       20.731       70.867       70.781       43.484       53.436       38.644     1890.901     2855.425     1493.380        0.835        0.312       73.837       34.550        0.219      338.904       11.874      867.235
10/18/2013  10:28:00      122.399       88.544       17.665       48.098       38.582       39.444     2313.377     1488.584     1555.852        1.424        0.268      151.068       35.906        0.056      338.830       11.747      867.236
10/18/2013  10:29:00       88.726       67.377       -6.390       72.574       67.637       33.958     5266.984     4574.831     1153.118        1.172        0.550      111.409       23.025        0.043      338.697       11.526      867.246
10/18/2013  10:30:00       70.215       61.212       30.084       60.698       44.896       35.820     3684.239     2015.615     1283.091        0.828        0.349       93.150       18.679        0.040      338.849       11.780      867.233
10/18/2013  10:31:00       68.001       63.798       52.723       47.477       35.646       28.098     2254.020     1270.616      789.484        0.789        0.216       93.243       22.383        0.058      338.852       11.786      867.226
10/18/2013  10:32:00       24.183       47.507       47.190       30.858       30.168       35.279      952.199      910.092     1244.590        0.409        0.155       53.308       13.139        0.061      339.361       12.642      867.220
10/18/2013  10:33:00       43.480       70.578       25.353       49.261       42.465       27.669     2426.614     1803.258      765.588        0.625        0.250       82.896       29.847        0.130      339.046       12.112      867.200
10/18/2013  10:34:00       49.749       71.355       14.772       55.490       53.146       43.601     3079.171     2824.457     1901.085        0.779        0.390       86.985       37.757        0.188      338.951       11.951      867.190
10/18/2013  10:35:00       -7.327       27.057       20.693       32.333       36.188       31.642     1045.443     1309.598     1001.214        0.228        0.168       28.032       18.478        0.435      339.388       12.688      867.181
10/18/2013  10:36:00        9.799        3.688       21.784       27.276       23.249       27.057      743.966      540.501      732.099        0.130        0.101       10.470       16.728        2.553      339.580       13.011      867.184
10/18/2013  10:37:00       12.430        6.128       54.912       24.564       45.771       30.374      603.389     2094.968      922.589        0.341        0.181       13.859       30.137        4.729      339.447       12.786      867.180
10/18/2013  10:38:00       15.342       27.878       50.752       42.837       49.623       27.261     1835.036     2462.437      743.155        0.431        0.252       31.821       23.978        0.568      339.483       12.847      867.164
10/18/2013  10:39:00       97.745      101.522       45.685       32.736       22.430       27.774     1071.626      503.124      771.411        1.215        0.117      140.928       15.809        0.013      338.737       11.592      867.166
10/18/2013  10:40:00       81.175       72.450       30.610       17.191       18.466       30.424      295.520      340.976      925.594        0.717        0.078      108.805        8.598        0.006      338.720       11.564      867.149
10/18/2013  10:41:00       30.829       81.681        6.160       46.347       36.178       32.779     2148.081     1308.828     1074.431        0.609        0.227       87.305       29.602        0.115      338.888       11.849      867.138
10/18/2013  10:42:00       19.938       42.123       17.885       30.804       30.828       31.014      948.897      950.346      961.863        0.268        0.143       46.604       15.885        0.116      339.639       13.112      867.126
10/18/2013  10:43:00       16.308       45.559       37.437       30.068       37.880       27.564      904.064     1434.928      759.768        0.342        0.155       48.390        7.245        0.022      339.638       13.108      867.126
10/18/2013  10:44:00       60.768       66.824       -0.495       32.628       44.071       34.357     1064.589     1942.234     1180.404        0.617        0.209       90.323       26.795        0.088      339.041       12.104      867.123
10/18/2013  10:45:00        9.953       38.347       13.117       17.242       30.723       29.554      297.281      943.886      873.463        0.193        0.106       39.617       23.786        0.360      339.414       12.731      867.131
10/18/2013  10:46:00       21.707       60.891        3.122       42.601       58.151       32.510     1814.813     3381.576     1056.920        0.522        0.313       64.644       28.209        0.190      339.210       12.388      867.136
10/18/2013  10:47:00       -6.249       38.296       12.433       27.125       39.973       23.327      735.742     1597.846      544.142        0.227        0.144       38.803       24.178        0.388      339.669       13.163      867.139
10/18/2013  10:48:00       85.028       54.441       10.682       34.262       29.486       33.237     1173.895      869.427     1104.680        0.673        0.157      100.963       23.941        0.056      339.242       12.444      867.132
10/18/2013  10:49:00       88.394       82.481       12.219       35.728       24.526       20.120     1276.517      601.542      404.809        0.852        0.114      120.900       14.778        0.015      339.055       12.127      867.123
10/18/2013  10:50:00       -6.600       96.452       12.489       38.833       52.599       34.645     1507.997     2766.641     1200.246        0.749        0.274       96.677       31.229        0.104      339.654       13.137      867.124
10/18/2013  10:51:00       -1.690       71.726       10.612       22.923       33.104       27.164      525.463     1095.845      737.868        0.381        0.118       71.746       20.655        0.083      339.877       13.514      867.125
10/18/2013  10:52:00       48.718       49.555        6.278       37.364       24.150       24.614     1396.082      583.205      605.838        0.373        0.129       69.492       13.892        0.040      339.595       13.037      867.123
10/18/2013  10:53:00       88.636       65.470        4.100       37.614       31.150       28.824     1414.841      970.297      830.801        0.769        0.161      110.194       15.859        0.021      339.289       12.520      867.111
10/18/2013  10:54:00       82.636       84.026       22.207       27.669       28.318       23.543      765.591      801.905      554.271        0.825        0.106      117.852       15.104        0.016      339.371       12.659      867.102
10/18/2013  10:55:00       31.399       55.288        3.982       65.837       38.630       34.436     4334.494     1492.261     1185.846        0.553        0.351       63.582       38.917        0.375      339.320       12.573      867.084
10/18/2013  10:56:00       28.347       45.473       49.944       33.429       29.133       19.341     1117.530      848.718      374.071        0.385        0.117       53.585       19.182        0.128      339.711       13.231      867.085
10/18/2013  10:57:00       31.506       28.287       32.017       23.340       29.106       31.932      544.745      847.187     1019.669        0.261        0.121       42.342       21.218        0.251      339.624       13.085      867.065
10/18/2013  10:58:00       57.518       46.594       21.714       74.038       44.402       28.437     5481.585     1971.513      808.663        0.710        0.413       74.023       27.806        0.141      339.789       13.363      867.056
10/18/2013  10:59:00       59.448       70.501       72.807       58.379       46.563       36.674     3408.160     2168.124     1344.970        1.036        0.346       92.220       27.232        0.087      339.970       13.668      867.041
10/18/2013  11:00:00       43.507       43.834       52.814       49.290       42.029       24.782     2429.497     1766.457      614.153        0.571        0.241       61.760       24.484        0.157      339.880       13.517      867.039
10/18/2013  11:01:00       30.854      -22.187       55.960       37.076       48.478       34.576     1374.646     2350.107     1195.498        0.475        0.246       38.003       29.839        0.616      340.113       13.910      867.024
10/18/2013  11:02:00       16.179       55.355       69.553       35.011       34.746       31.141     1225.786     1207.316      969.774        0.578        0.170       57.671       26.219        0.207      340.071       13.840      867.027
10/18/2013  11:03:00       56.149       68.661       37.346       50.208       36.213       36.917     2520.793     1311.405     1362.841        0.723        0.260       88.696       31.218        0.124      339.853       13.471      867.015
10/18/2013  11:04:00       97.999       58.845       36.618       59.690       44.523       41.521     3562.868     1982.297     1723.996        1.084        0.363      114.309       32.118        0.079      339.739       13.279      867.001
10/18/2013  11:05:00      105.037       67.844       -5.112       55.039       35.869       33.323     3029.256     1286.615     1110.390        1.054        0.271      125.042       21.370        0.029      339.975       13.676      866.985
10/18/2013  11:06:00       89.235       49.030        6.218       55.240       36.800       32.674     3051.494     1354.211     1067.569        0.794        0.274      101.817       32.879        0.104      339.884       13.525      866.968
10/18/2013  11:07:00       32.064       44.606       38.454       48.105       44.429       25.335     2314.078     1973.919      641.878        0.471        0.246       54.935       17.290        0.099      340.170       14.006      866.953
10/18/2013  11:08:00       61.981       58.968       19.717       45.446       27.714       32.148     2065.337      768.059     1033.494        0.579        0.193       85.551       18.286        0.046      339.995       13.712      866.929
10/18/2013  11:09:00       75.070       62.129       18.275       37.452       29.703       30.231     1402.623      882.257      913.928        0.651        0.160       97.445       16.561        0.029      339.754       13.303      866.923
10/18/2013  11:10:00       58.439       42.597       21.096       37.100       45.301       28.276     1376.390     2052.224      799.520        0.495        0.211       72.316       17.714        0.060      340.037       13.782      866.897
10/18/2013  11:11:00       16.311      -10.103       41.772       52.654       67.756       30.927     2772.433     4590.855      956.495        0.522        0.416       19.186       34.689        3.269      340.556       14.659      866.887
10/18/2013  11:12:00        6.932       -9.748       35.126       37.151       54.999       47.929     1380.216     3024.872     2297.202        0.404        0.335       11.961       35.101        8.612      340.671       14.852      866.881
10/18/2013  11:13:00       83.595      106.287       79.815       54.442       43.588       44.735     2963.925     1899.906     2001.217        1.576        0.343      135.223       30.047        0.049      340.027       13.764      866.868
10/18/2013  11:14:00       29.262      -21.960       29.517       52.422       57.027       36.599     2748.040     3252.064     1339.487        0.477        0.367       36.586       32.377        0.783      340.694       14.890      866.874
10/18/2013  11:15:00       36.720      -32.933       -9.604       33.616       35.271       22.982     1130.003     1244.073      528.173        0.271        0.145       49.325       19.233        0.152      340.112       13.908      866.871
10/18/2013  11:16:00       -8.556      -15.308       19.579       19.717       29.185       22.240      388.751      851.781      494.604        0.121        0.087       17.537        5.106        0.085      340.613       14.756      866.856
10/18/2013  11:17:00        4.237       24.979       30.387       31.538       33.072       25.711      994.635     1093.789      661.049        0.216        0.137       25.335       22.669        0.801      340.932       15.295      866.853
10/18/2013  11:18:00      102.664       46.073        0.983       45.656       51.875       35.824     2084.503     2691.009     1283.388        0.936        0.303      112.528       32.731        0.085      340.179       14.022      866.850
10/18/2013  11:19:00       -2.636       52.216       16.679       25.890       51.318       28.634      670.284     2633.505      819.887        0.357        0.206       52.283       21.585        0.170      340.728       14.950      866.842
10/18/2013  11:20:00       16.033        7.458       19.933       31.542       45.668       25.811      994.871     2085.589      666.195        0.223        0.187       17.683       14.587        0.680      340.832       15.125      866.842
10/18/2013  11:21:00       13.631      -23.020       31.041       32.598       49.058       37.975     1062.610     2406.660     1442.090        0.329        0.246       26.754       41.898        2.453      340.775       15.028      866.825
10/18/2013  11:22:00       19.216       73.749       10.397       39.525       42.550       27.634     1562.187     1810.528      763.666        0.503        0.207       76.211       18.281        0.058      340.589       14.712      866.825
10/18/2013  11:23:00       15.539       22.247       16.297       48.068       28.490       23.831     2310.562      811.692      567.893        0.235        0.185       27.136       15.364        0.321      340.799       15.068      866.819
10/18/2013  11:24:00        6.829       56.592        2.200       26.625       42.771       25.464      708.903     1829.348      648.405        0.322        0.159       57.002       22.798        0.160      340.991       15.393      866.814
10/18/2013  11:25:00      121.796       71.524       17.200       41.458       39.519       37.039     1718.794     1561.786     1371.862        1.245        0.233      141.244       16.647        0.014      340.424       14.435      866.799
10/18/2013  11:26:00      122.506      103.715        0.340       40.775       42.553       34.336     1662.603     1810.745     1178.955        1.521        0.233      160.513       19.429        0.015      340.416       14.422      866.786
10/18/2013  11:27:00       54.966       67.868       28.725       56.614       46.075       49.534     3205.108     2122.911     2453.628        0.812        0.389       87.334       26.279        0.091      340.829       15.120      866.775
10/18/2013  11:28:00       29.482       54.493       68.773       39.724       55.250       31.662     1578.006     3052.576     1002.487        0.710        0.282       61.957       32.603        0.277      341.005       15.418      866.775
10/18/2013  11:29:00       51.476       83.777       97.822       44.723       48.907       39.090     2000.181     2391.895     1528.033        1.258        0.296       98.328       33.913        0.119      340.760       15.003      866.763
10/18/2013  11:30:00       75.037       63.133       96.988       63.248       76.148       63.461     4000.306     5798.497     4027.335        1.642        0.691       98.063       60.474        0.380      340.713       14.924      866.762
10/18/2013  11:31:00       65.251       42.412       54.683       53.094       76.473       44.998     2818.942     5848.078     2024.778        0.987        0.535       77.823       53.822        0.478      340.753       14.993      866.746
10/18/2013  11:32:00       59.125       63.490       92.028       29.677       53.841       23.618      880.723     2898.881      557.831        1.017        0.217       86.757       22.586        0.068      340.901       15.243      866.731
10/18/2013  11:33:00       34.819       97.931       91.918       48.159       54.405       36.001     2319.305     2959.884     1296.041        1.291        0.329      103.937       34.194        0.108      340.683       14.874      866.711
10/18/2013  11:34:00      139.395       66.416       20.128       69.529       42.811       44.416     4834.342     1832.792     1972.780        1.644        0.432      154.409       29.389        0.036      340.639       14.797      866.696
10/18/2013  11:35:00       98.827       25.481       41.328       82.011       89.586       56.312     6725.801     8025.697     3171.010        1.502        0.896      102.059       42.016        0.169      341.031       15.459      866.688
10/18/2013  11:36:00        8.372       43.709       90.687       39.597       83.090       55.473     1567.886     6903.983     3077.296        1.087        0.577       44.503       60.582        1.853      341.267       15.862      866.697
10/18/2013  11:37:00       13.510      -34.446       20.615       30.373       34.846       38.917      922.539     1214.228     1514.503        0.272        0.183       37.001       29.504        0.636      340.725       14.945      866.705
10/18/2013  11:38:00       -1.139       -1.931       32.991       30.309       34.868       39.847      918.660     1215.760     1587.790        0.241        0.186        2.241       24.690      121.331      341.190       15.732      866.697
10/18/2013  11:39:00       12.016      -14.015       30.426       16.140       30.280       19.050      260.486      916.893      362.914        0.140        0.077       18.461       19.989        1.172      341.083       15.549      866.702
10/18/2013  11:40:00       18.557       29.722       21.469       17.545       28.229       19.653      307.821      796.895      386.254        0.159        0.075       35.040       17.336        0.245      341.287       15.897      866.701
10/18/2013  11:41:00       31.109       45.890        6.441       44.436       24.638       22.160     1974.573      607.018      491.046        0.309        0.154       55.441       21.712        0.153      340.859       15.170      866.695
10/18/2013  11:42:00       15.550       50.991        9.054       41.894       34.699       26.217     1755.136     1204.045      687.309        0.328        0.182       53.309       15.618        0.086      341.241       15.817      866.681
10/18/2013  11:43:00       49.077       62.457       36.240       47.298       39.863       37.439     2237.147     1589.070     1401.649        0.642        0.261       79.432       29.293        0.136      341.349       16.000      866.669
10/18/2013  11:44:00        2.452       46.402       13.954       44.933       38.221       47.789     2019.004     1460.858     2283.771        0.406        0.288       46.467       31.623        0.463      341.389       16.069      866.650
10/18/2013  11:45:00      150.522       92.458       -4.131       57.027       53.101       30.739     3252.073     2819.751      944.887        1.912        0.351      176.650       26.274        0.022      340.835       15.129      866.643
10/18/2013  11:46:00       62.028       41.012       12.138       41.336       40.311       42.193     1708.656     1625.014     1780.258        0.539        0.256       74.361       32.548        0.192      341.063       15.516      866.629
10/18/2013  11:47:00      129.662       61.629        1.386       49.539       43.090       38.366     2454.067     1856.788     1471.932        1.320        0.289      143.563       28.519        0.039      340.923       15.278      866.619
10/18/2013  11:48:00      124.901       74.430       36.479       41.887       36.505       51.088     1754.542     1332.644     2610.033        1.408        0.285      145.396       27.091        0.035      341.234       15.806      866.600
10/18/2013  11:49:00       27.688       63.307       71.794       36.887       57.985       43.388     1360.649     3362.207     1882.537        0.827        0.330       69.097       39.657        0.329      341.473       16.210      866.587
10/18/2013  11:50:00       53.418       56.200       81.481       52.957       68.794       48.816     2804.486     4732.676     2383.001        1.128        0.496       77.536       42.967        0.307      341.339       15.983      866.586
10/18/2013  11:51:00       14.651       64.160       73.324       44.915       45.472       52.079     2017.357     2067.731     2712.220        0.825        0.340       65.812       45.057        0.469      341.234       15.806      866.583
10/18/2013  11:52:00       47.325       21.986       24.831       47.597       49.113       30.263     2265.513     2412.070      915.859        0.447        0.280       52.183        9.412        0.033      341.359       16.017      866.570
10/18/2013  11:53:00       27.465       91.911      120.834       49.479       91.073       56.537     2448.178     8294.313     3196.460        1.887        0.697       95.927       59.708        0.387      341.581       16.392      866.551
10/18/2013  11:54:00       42.837       67.728       96.697       63.148       64.408       39.692     3987.694     4148.383     1575.430        1.274        0.486       80.139       36.437        0.207      341.389       16.067      866.542
10/18/2013  11:55:00       46.209      -31.949       54.655       56.884       75.564       46.859     3235.773     5709.991     2195.796        0.864        0.557       56.178       45.616        0.659      341.466       16.198      866.538
10/18/2013  11:56:00       30.063      -62.190       40.103       38.849       91.977       33.782     1509.235     8459.684     1141.256        0.874        0.556       69.075       52.793        0.584      341.403       16.091      866.523
10/18/2013  11:57:00       13.252       19.442       52.674       33.259       26.221       22.399     1106.134      687.524      501.693        0.281        0.115       23.529       18.587        0.624      342.146       17.351      866.515
10/18/2013  11:58:00       71.079       -8.111       31.786       65.433       71.770       35.269     4281.499     5150.876     1243.882        0.840        0.534       71.540       47.445        0.440      341.669       16.542      866.502
10/18/2013  11:59:00      147.174     -126.628       -2.100       68.717       85.671       43.451     4722.062     7339.589     1887.968        2.582        0.697      194.152       24.075        0.015      341.243       15.818      866.491
10/18/2013  12:00:00      111.399      -82.436       12.716       57.873       66.811       49.817     3349.249     4463.660     2481.726        1.483        0.515      138.584       47.451        0.117      341.355       16.009      866.485
10/18/2013  12:01:00       51.582     -158.606       -5.545       44.524       30.257       27.540     1982.370      915.492      758.474        1.575        0.183      166.783       16.555        0.010      341.008       15.423      866.480
10/18/2013  12:02:00       30.111      -93.568      -14.865       43.281       36.905       24.917     1873.216     1362.011      620.836        0.687        0.193       98.294       18.569        0.036      341.197       15.742      866.476
10/18/2013  12:03:00        4.239      -16.092       -0.106       43.765       55.071       21.276     1915.339     3032.811      452.685        0.284        0.270       16.642       13.555        0.663      341.805       16.773      866.444
10/18/2013  12:04:00       53.404       63.877       23.112       40.929       40.597       27.949     1675.145     1648.099      781.155        0.578        0.205       83.260       23.208        0.078      342.048       17.186      866.438
10/18/2013  12:05:00       47.411       31.539       32.521       54.317       46.904       35.018     2950.363     2200.017     1226.262        0.534        0.319       56.943       11.885        0.044      341.913       16.956      866.428
10/18/2013  12:06:00       54.348       71.192       69.525       55.547       55.501       53.294     3085.510     3080.322     2840.220        1.093        0.450       89.566       49.967        0.311      341.879       16.899      866.399
10/18/2013  12:07:00      135.205       96.093       55.221       76.039       53.022       52.510     5781.918     2811.372     2757.251        2.096        0.568      165.874       52.039        0.098      341.762       16.698      866.379
10/18/2013  12:08:00      158.938      101.391       57.058       90.359       79.767       49.210     8164.733     6362.815     2421.641        2.787        0.847      188.524       39.838        0.045      341.638       16.488      866.358
10/18/2013  12:09:00       92.782      111.507       69.514       99.620       58.139       79.074     9924.212     3380.138     6252.621        2.271        0.978      145.060       79.946        0.304      341.667       16.537      866.353
10/18/2013  12:10:00       95.157      117.507      131.742       91.655       79.340       74.090     8400.614     6294.887     5489.311        3.020        1.009      151.204       68.967        0.208      341.719       16.624      866.331
10/18/2013  12:11:00       53.831      -23.039       47.285       35.381       79.420       48.147     1251.783     6307.532     2318.122        0.777        0.494       58.554       57.417        0.962      341.445       16.164      866.342
10/18/2013  12:12:00       63.899      -24.527        9.382       36.502       39.095       22.405     1332.373     1528.450      501.962        0.407        0.168       68.445        9.908        0.021      341.513       16.277      866.309
10/18/2013  12:13:00      111.852       92.558       42.033       50.189       37.225       38.465     2518.949     1385.676     1479.557        1.411        0.269      145.182       21.374        0.022      341.740       16.662      866.303
10/18/2013  12:14:00       80.680      -54.952       12.149       59.296      103.600       54.500     3516.060    10732.971     2970.228        1.345        0.861       97.617       63.879        0.428      341.830       16.815      866.298
10/18/2013  12:15:00       19.017       -0.353       60.124       36.643       66.946       36.882     1342.689     4481.720     1360.259        0.558        0.359       19.020       41.651        4.795      342.134       17.332      866.283
10/18/2013  12:16:00       50.597      -42.082       17.579       45.450       42.803       36.711     2065.668     1832.101     1347.698        0.494        0.262       65.810       34.293        0.272      341.761       16.698      866.271
10/18/2013  12:17:00       31.385      -15.769       19.887       29.152       40.183       24.524      849.833     1614.704      601.418        0.235        0.153       35.124       26.122        0.553      341.691       16.578      866.255
10/18/2013  12:18:00       -0.029       25.224       36.544       39.775       28.453       18.001     1582.040      809.565      324.046        0.234        0.136       25.224       14.864        0.347      341.977       17.066      866.213
10/18/2013  12:19:00        3.207       -4.801       44.757       36.547       71.877       28.811     1335.677     5166.345      830.100        0.468        0.367        5.774       27.980       23.486      342.283       17.584      866.199
10/18/2013  12:20:00        9.857       33.770       47.461       39.655       38.277       39.969     1572.491     1465.132     1597.556        0.406        0.232       35.180       24.118        0.470      342.280       17.578      866.183
10/18/2013  12:21:00      165.242      -72.722       33.556       83.806       84.374       62.861     7023.446     7118.902     3951.544        2.590        0.905      180.536       58.437        0.105      341.954       17.023      866.178
10/18/2013  12:22:00       74.755       -2.925       57.779       78.324       72.793       50.905     6134.607     5298.833     2591.364        1.148        0.701       74.813       41.540        0.308      342.173       17.397      866.164
10/18/2013  12:23:00       78.216      -93.377       18.683       58.216      121.775       62.496     3389.062    14829.129     3905.799        1.865        1.106      121.807       77.691        0.407      341.929       16.982      866.156
10/18/2013  12:24:00       -9.009       -8.255       31.868       22.963       42.188       29.673      527.289     1779.827      880.459        0.218        0.159       12.219       29.460        5.813      342.395       17.774      866.150
10/18/2013  12:25:00       30.335       -7.577       22.881       39.337       48.481       36.068     1547.371     2350.378     1300.880        0.335        0.260       31.267       27.595        0.779      342.294       17.604      866.132
10/18/2013  12:26:00       76.747       32.055       22.003       84.950       52.807       33.812     7216.558     2788.624     1143.244        0.927        0.557       83.173       10.130        0.015      342.064       17.213      866.126
10/18/2013  12:27:00       67.561       54.935       11.352       51.826       46.533       37.626     2685.896     2165.291     1415.750        0.699        0.313       87.077       15.752        0.033      341.946       17.012      866.119
10/18/2013  12:28:00       30.410       -0.539       31.934       55.466       55.504       38.758     3076.444     3080.643     1502.202        0.480        0.383       30.415       20.855        0.470      342.554       18.046      866.102
10/18/2013  12:29:00      165.612      155.548      129.735       88.558       74.818       68.449     7842.574     5597.675     4685.268        4.329        0.906      227.206       55.253        0.059      342.082       17.239      866.081
10/18/2013  12:30:00       94.427      102.164       98.442       65.731       66.287       49.444     4320.531     4393.940     2444.714        2.010        0.558      139.118       31.454        0.051      341.900       16.932      866.085
10/18/2013  12:31:00      117.412      -26.240       52.937       90.299      116.163       73.923     8153.966    13493.743     5464.604        2.219        1.356      120.308       85.418        0.504      342.137       17.336      866.063
10/18/2013  12:32:00       64.423       44.778       52.526       89.375       61.546       40.633     7987.916     3787.863     1651.065        1.117        0.671       78.456       35.858        0.209      342.313       17.636      866.037
10/18/2013  12:33:00       50.787      -87.088       21.190       63.234      109.551       51.481     3998.476    12001.489     2650.314        1.463        0.933      100.815       64.134        0.405      342.324       17.654      866.025
10/18/2013  12:34:00       96.847       62.507       71.406       54.934       61.269       45.632     3017.778     3753.867     2082.256        1.362        0.443      115.267       37.570        0.106      342.107       17.286      866.025
10/18/2013  12:35:00       39.859      -59.308       32.197       72.680      124.977       62.372     5282.358    15619.358     3890.243        1.546        1.240       71.457       84.091        1.385      341.984       17.076      866.004
10/18/2013  12:36:00      146.555     -238.853      -25.671       89.578       81.898       46.544     8024.273     6707.330     2166.310        4.804        0.845      280.230       49.620        0.031      341.909       16.945      865.977
10/18/2013  12:37:00       82.133      -49.806       44.424       58.702      104.432       67.527     3445.936    10906.070     4559.888        1.505        0.946       96.055       81.340        0.717      342.062       17.207      865.985
10/18/2013  12:38:00       78.270      -65.009       11.240       44.036       71.242       45.397     1939.156     5075.361     2060.910        0.978        0.454      101.746       48.379        0.226      341.996       17.098      865.973
10/18/2013  12:39:00      162.070     -100.207       11.507       91.888      111.632       52.241     8443.496    12461.689     2729.090        3.003        1.182      190.547       57.237        0.090      342.045       17.178      865.959
10/18/2013  12:40:00       98.589      -16.766       50.531      103.894       96.666       66.138    10793.977     9344.309     4374.177        1.853        1.226      100.005       69.195        0.479      342.296       17.605      865.948
10/18/2013  12:41:00       59.923      -27.880       33.189       59.317      110.145       46.807     3518.546    12131.916     2190.892        1.165        0.892       66.091       62.029        0.881      342.489       17.936      865.941
10/18/2013  12:42:00       77.656      -29.473       84.706       81.828      129.232       71.622     6695.855    16700.933     5129.763        2.130        1.426       83.061       80.850        0.947      342.288       17.592      865.934
10/18/2013  12:43:00      111.865      126.965      100.741      116.991       78.519       74.628    13686.785     6165.205     5569.316        3.210        1.271      169.215       66.717        0.155      342.210       17.457      865.939
10/18/2013  12:44:00      145.197       98.289       99.494       77.009       57.830       66.630     5930.397     3344.348     4439.516        2.718        0.686      175.336       48.208        0.076      341.911       16.949      865.933
10/18/2013  12:45:00       83.725        9.255       44.922       64.548       50.974       48.265     4166.499     2598.348     2329.558        0.910        0.455       84.235       35.993        0.183      342.022       17.142      865.928
10/18/2013  12:46:00      135.582      138.764       82.493      104.199       54.308       66.528    10857.385     2949.324     4426.028        3.133        0.912      194.005       70.567        0.132      341.935       16.988      865.924
10/18/2013  12:47:00      119.423      103.092       14.442       58.856       49.218       33.398     3464.079     2422.438     1115.453        1.605        0.350      157.765       24.637        0.024      341.810       16.780      865.914
10/18/2013  12:48:00       40.946       41.067        7.721       51.796       33.201       39.705     2682.836     1102.331     1576.490        0.439        0.268       57.992       33.832        0.340      342.025       17.147      865.898
10/18/2013  12:49:00      128.540       40.966       28.625       93.204       61.310       41.165     8686.947     3758.864     1694.587        1.658        0.707      134.910       21.598        0.026      342.199       17.440      865.889
10/18/2013  12:50:00      103.741       93.597       53.577      111.850       64.163       54.794    12510.408     4116.839     3002.388        2.101        0.981      139.723       55.118        0.156      342.584       18.094      865.869
10/18/2013  12:51:00       85.025       48.990       25.191       50.327       59.550       47.518     2532.851     3546.164     2257.972        0.930        0.417       98.128       28.944        0.087      342.466       17.895      865.870
10/18/2013  12:52:00       33.731       64.031       55.666       54.075       54.246       48.693     2924.139     2942.650     2371.020        0.829        0.412       72.372       37.017        0.262      342.637       18.186      865.850
10/18/2013  12:53:00      148.546      135.951       54.206      109.033       49.917       88.512    11888.219     2491.735     7834.433        3.285        1.111      201.367       70.654        0.123      342.136       17.332      865.847
10/18/2013  12:54:00       79.532       65.334       28.630       55.194       46.409       36.285     3046.353     2153.810     1316.617        0.896        0.326      102.926       31.793        0.095      342.321       17.650      865.839
10/18/2013  12:55:00       28.528       20.450       35.569       45.584       41.482       38.964     2077.927     1720.796     1518.176        0.391        0.266       35.101       24.215        0.476      342.586       18.099      865.819
10/18/2013  12:56:00       39.808      -45.428      -13.033       36.792       40.531       26.861     1353.618     1642.726      721.504        0.377        0.186       60.402        7.938        0.017      342.185       17.420      865.804
10/18/2013  12:57:00       51.578      -45.161       20.745       42.058       40.994       41.067     1768.882     1680.482     1686.520        0.513        0.257       68.556       30.883        0.203      342.288       17.593      865.791
10/18/2013  12:58:00       48.182       27.548        7.473       24.927       19.213       34.334      621.379      369.155     1178.843        0.265        0.108       55.502        9.056        0.027      342.021       17.139      865.779
10/18/2013  12:59:00        5.534       -0.395      -21.322       25.593       33.785       17.935      655.015     1141.439      321.664        0.130        0.106        5.548       18.611       11.251      342.146       17.352      865.767
10/18/2013  13:00:00        4.864       11.522       -9.980       31.913       26.064       23.154     1018.419      679.328      536.104        0.124        0.112       12.507       24.859        3.951      342.227       17.488      865.754
10/18/2013  13:01:00       -7.212       15.020      -21.934       29.315       31.909       13.118      859.344     1018.176      172.086        0.140        0.102       16.662       10.417        0.391      342.233       17.500      865.740
10/18/2013  13:02:00       45.742       79.445       70.441       56.854       47.262       63.574     3232.431     2233.709     4041.664        1.144        0.475       91.673       49.376        0.290      342.598       18.119      865.724
10/18/2013  13:03:00       13.534       40.172       83.058       46.344       83.439       56.087     2147.759     6962.013     3145.712        1.047        0.613       42.390       60.575        2.042      342.846       18.542      865.703
10/18/2013  13:04:00       35.668      -51.615       14.856       51.296       77.010       39.995     2631.247     5930.558     1599.605        0.716        0.508       62.740       42.938        0.468      343.018       18.834      865.676
10/18/2013  13:05:00       39.250     -115.835      -16.175       81.122       81.858       55.170     6580.709     6700.659     3043.688        1.577        0.816      122.304       43.353        0.126      342.582       18.091      865.644
10/18/2013  13:06:00       40.622      -65.206       17.566      105.163       62.787       39.782    11059.189     3942.235     1582.642        1.139        0.829       76.824       38.591        0.252      342.893       18.620      865.633
10/18/2013  13:07:00      133.679     -143.237        8.017       99.234       81.086       63.500     9847.345     6574.898     4032.282        2.945        1.023      195.926       59.631        0.093      342.749       18.375      865.612
10/18/2013  13:08:00       67.019       59.953       77.926       65.991      107.557       67.307     4354.861    11568.443     4530.191        1.730        1.023       89.922       65.530        0.531      343.085       18.946      865.596
10/18/2013  13:09:00       87.013       45.992       54.385       76.353       71.301       60.118     5829.767     5083.762     3614.199        1.358        0.726       98.420       36.459        0.137      342.684       18.265      865.603
10/18/2013  13:10:00       35.462       35.494       76.732       65.328       62.931       49.743     4267.695     3960.291     2474.407        0.955        0.535       50.174       55.747        1.234      342.818       18.493      865.585
10/18/2013  13:11:00       86.870      -69.620        3.639       83.205       81.658       53.765     6923.001     6668.020     2890.637        1.444        0.824      111.325       51.613        0.215      342.970       18.752      865.557
10/18/2013  13:12:00      107.371     -106.571        5.135       80.294       85.420       58.132     6447.174     7296.636     3379.274        2.001        0.856      151.281       65.455        0.187      342.654       18.213      865.553
10/18/2013  13:13:00       35.911      -11.250       17.001       51.092       69.854       37.506     2610.399     4879.526     1406.737        0.530        0.445       37.632       17.500        0.216      342.946       18.712      865.535
10/18/2013  13:14:00       50.282       39.279       -1.509       53.004       42.367       36.370     2809.469     1794.986     1322.788        0.500        0.296       63.805       15.017        0.055      342.873       18.587      865.516
10/18/2013  13:15:00       32.337       66.698       39.074       49.770       45.475       40.738     2477.098     2067.977     1659.617        0.661        0.310       74.124       36.861        0.247      343.112       18.995      865.499
10/18/2013  13:16:00       45.098       30.302        8.023       43.691       37.644       24.129     1908.922     1417.065      582.194        0.346        0.195       54.333        5.520        0.010      342.689       18.275      865.493
10/18/2013  13:17:00      -82.199        9.160      -15.051       43.723       34.869       26.169     1911.744     1215.836      684.826        0.544        0.191       82.707       17.916        0.047      342.691       18.277      865.473
10/18/2013  13:18:00       -2.966      -18.936        0.633       45.486       73.046       29.306     2068.976     5335.654      858.829        0.431        0.413       19.167       18.505        0.932      342.974       18.760      865.460
10/18/2013  13:19:00      113.121     -188.711      -30.207       64.838       53.655       34.209     4203.972     2878.904     1170.252        2.879        0.413      220.018       31.363        0.020      342.487       17.928      865.447
10/18/2013  13:20:00      101.284      -52.586        8.998       53.527      117.978       50.403     2865.147    13918.754     2540.446        1.621        0.966      114.121       74.156        0.422      342.288       17.591      865.440
10/18/2013  13:21:00       77.054        6.743       32.565       43.824       66.928       35.802     1920.568     4479.303     1281.750        0.736        0.384       77.349       35.574        0.212      342.463       17.890      865.427
10/18/2013  13:22:00       28.969      -80.114       11.298       49.033       73.091       39.475     2404.208     5342.236     1558.271        0.834        0.465       85.190       25.274        0.088      342.975       18.762      865.407
10/18/2013  13:23:00       28.045      -69.656       -2.004       83.568       42.802       30.675     6983.527     1831.992      940.944        0.770        0.488       75.090       15.336        0.042      342.894       18.624      865.398
10/18/2013  13:24:00        0.855       -8.082       34.808       26.045       53.636       31.160      678.351     2876.767      970.947        0.290        0.226        8.127       31.556       15.075      343.297       19.310      865.386
10/18/2013  13:25:00       32.393      -99.903      -17.573       30.608       39.527       29.341      936.825     1562.371      860.881        0.735        0.168      105.023       18.850        0.032      342.566       18.067      865.378
10/18/2013  13:26:00        5.536      -13.498       -2.434       34.523       38.652       26.328     1191.812     1493.991      693.163        0.180        0.169       14.589       17.112        1.376      342.675       18.250      865.355
10/18/2013  13:27:00       83.746       74.812        8.911       90.228       74.091       42.722     8141.052     5489.467     1825.159        1.407        0.773      112.295       21.648        0.037      342.887       18.609      865.331
10/18/2013  13:28:00      103.336      120.945        5.654       77.260       51.785       46.647     5969.151     2681.724     2175.937        1.808        0.541      159.079       37.181        0.055      342.755       18.385      865.328
10/18/2013  13:29:00       64.412       71.140       -0.900       61.716       45.394       31.277     3808.925     2060.586      978.261        0.803        0.342       95.968       13.240        0.019      342.736       18.354      865.315
10/18/2013  13:30:00       70.700      172.558      -24.768       46.185       79.761       36.868     2133.035     6361.859     1359.221        2.262        0.493      186.480       40.319        0.047      342.660       18.222      865.289
10/18/2013  13:31:00      145.416      105.209       -0.409       91.121       75.708       42.873     8303.119     5731.764     1838.125        2.404        0.794      179.484       42.139        0.055      343.029       18.849      865.270
10/18/2013  13:32:00       29.957      147.830      -25.952       43.400       42.215       24.012     1883.587     1782.071      576.570        1.383        0.212      150.835       18.764        0.015      342.587       18.102      865.258
10/18/2013  13:33:00       18.787       60.220       -1.097       37.277       41.250       23.447     1389.577     1701.551      549.757        0.381        0.182       63.082       20.533        0.106      342.984       18.777      865.229
10/18/2013  13:34:00      -17.345       51.484       12.563       36.970       63.477       26.280     1366.765     4029.345      690.650        0.460        0.304       54.327       30.090        0.307      343.297       19.308      865.220
10/18/2013  13:35:00       67.838       33.371        8.292       88.894       94.359       56.971     7902.167     8903.552     3245.642        1.291        1.003       75.602       20.631        0.074      343.422       19.522      865.194
10/18/2013  13:36:00       97.470       97.372       66.536       94.641       55.609       58.217     8956.969     3092.377     3389.226        1.942        0.772      137.774       50.307        0.133      343.237       19.206      865.175
10/18/2013  13:37:00       30.295       86.327      119.101       80.118       70.865       60.136     6418.887     5021.817     3616.369        1.880        0.753       91.488       51.730        0.320      343.400       19.484      865.160
10/18/2013  13:38:00      110.679       98.280       77.853       94.342       90.997       91.423     8900.442     8280.535     8358.251        2.675        1.277      148.016       83.888        0.321      342.888       18.612      865.152
10/18/2013  13:39:00       70.656       16.172       45.690       89.455      120.811       59.498     8002.135    14595.396     3540.021        1.674        1.307       72.483       47.694        0.433      343.240       19.212      865.147
10/18/2013  13:40:00      153.668      101.345       24.436       68.631       35.901       40.877     4710.245     1288.885     1670.890        2.107        0.384      184.078       28.415        0.024      342.769       18.407      865.156
10/18/2013  13:41:00       65.835       23.487       14.760       48.597       40.685       32.103     2361.635     1655.277     1030.615        0.507        0.252       69.899       21.957        0.099      343.221       19.181      865.146
10/18/2013  13:42:00      113.199       96.113       60.624       81.501       64.190       59.482     6642.473     4120.366     3538.133        2.001        0.715      148.498       57.499        0.150      343.176       19.102      865.139
10/18/2013  13:43:00       52.944       63.128        4.573       81.265       75.175       42.839     6604.067     5651.349     1835.217        1.045        0.705       82.391       31.280        0.144      342.912       18.654      865.130
10/18/2013  13:44:00       18.898       63.552      -15.865       53.645       58.043       34.045     2877.791     3368.978     1159.092        0.603        0.370       66.302       25.683        0.150      342.764       18.402      865.100
10/18/2013  13:45:00       86.680       34.039        6.383       55.220       69.173       38.848     3049.237     4784.847     1509.169        0.903        0.467       93.124       31.118        0.112      342.880       18.598      865.095
10/18/2013  13:46:00      103.959       50.380       27.976       47.857       46.660       31.330     2290.253     2177.186      981.552        0.979        0.272      115.523       23.399        0.041      342.836       18.525      865.061
10/18/2013  13:47:00       32.482      109.167       -0.166       61.268       95.371       51.547     3753.768     9095.533     2657.116        1.424        0.775      113.897       56.184        0.243      343.076       18.932      865.052
10/18/2013  13:48:00      103.074       98.468       19.564       80.491       61.278       61.034     6478.765     3754.994     3725.121        1.733        0.698      142.549       45.640        0.103      342.823       18.501      865.038
10/18/2013  13:49:00       43.334      125.613      -23.828       64.595       52.160       33.240     4172.541     2720.696     1104.920        1.311        0.400      132.877       26.913        0.041      342.770       18.413      865.024
10/18/2013  13:50:00      -56.475      123.014      -19.211       30.700       43.133       27.934      942.474     1860.418      780.316        1.114        0.179      135.359       21.606        0.025      342.964       18.742      865.004
10/18/2013  13:51:00      -24.994       84.883      -31.605       56.942       55.730       21.137     3242.381     3105.851      446.769        0.781        0.340       88.487       15.664        0.031      342.795       18.454      864.986
10/18/2013  13:52:00      -47.172       87.388       -7.146       37.879       41.221       27.379     1434.805     1699.133      749.625        0.690        0.194       99.307       21.791        0.048      343.084       18.947      864.963
10/18/2013  13:53:00      -15.836       89.184       -7.377       37.704       52.301       24.672     1421.624     2735.424      608.690        0.651        0.238       90.579       30.144        0.111      342.957       18.730      864.959
10/18/2013  13:54:00       -9.914       27.392        0.643       32.131       38.093       20.355     1032.433     1451.112      414.323        0.187        0.145       29.131       20.426        0.492      343.152       19.063      864.948
10/18/2013  13:55:00       54.196       30.602       -5.346       41.483       63.309       33.849     1720.862     4007.979     1145.753        0.539        0.344       62.239       23.448        0.142      343.178       19.108      864.926
10/18/2013  13:56:00      113.234       58.181       18.017       51.044       55.637       44.318     2605.536     3095.428     1964.077        1.210        0.383      127.306       21.766        0.029      343.182       19.114      864.925
10/18/2013  13:57:00      102.298       45.872       53.246       91.569       79.207       56.597     8384.876     6273.696     3203.240        1.663        0.893      112.112       42.855        0.146      343.193       19.131      864.918
10/18/2013  13:58:00       29.988       83.775      101.011       86.857       90.605       73.428     7544.184     8209.178     5391.623        1.963        1.057       88.980       60.781        0.467      343.511       19.672      864.898
10/18/2013  13:59:00       70.010       68.940       60.077       94.454       77.286       59.024     8921.585     5973.157     3483.779        1.582        0.919       98.256       45.064        0.210      343.322       19.351      864.911
10/18/2013  14:00:00       93.538       95.451       60.146      101.141       51.041       54.639    10229.485     2605.139     2985.388        1.865        0.791      133.642       66.079        0.244      343.162       19.077      864.915
10/18/2013  14:01:00      112.882       93.151       51.987       49.191       37.527       41.478     2419.718     1408.261     1720.388        1.483        0.277      146.354       17.429        0.014      343.076       18.933      864.892
10/18/2013  14:02:00       22.809       57.183       -1.498       68.384       40.836       30.797     4676.391     1667.610      948.452        0.554        0.365       61.564       25.296        0.169      342.851       18.551      864.887
10/18/2013  14:03:00       -3.194        5.881       18.495       37.601       58.082       32.796     1413.813     3373.483     1075.572        0.312        0.293        6.692       22.495       11.298      343.605       19.835      864.866
10/18/2013  14:04:00       22.325        4.867       20.701       34.267       37.228       18.543     1174.206     1385.943      343.847        0.193        0.145       22.850       11.216        0.241      343.675       19.954      864.846
10/18/2013  14:05:00       29.772      -76.660      -10.545       33.922       33.146       24.210     1150.701     1098.660      586.111        0.485        0.142       82.238       16.568        0.041      343.348       19.397      864.835
10/18/2013  14:06:00       41.523      -54.653       32.415       53.985       76.646       40.854     2914.392     5874.585     1669.060        0.811        0.523       68.638       47.883        0.487      343.382       19.455      864.825
10/18/2013  14:07:00       47.253       10.199       31.739       72.855       32.825       30.904     5307.802     1077.470      955.070        0.534        0.367       48.341       26.501        0.301      343.769       20.115      864.825
10/18/2013  14:08:00      166.201      106.905       21.374       82.774       47.665       45.844     6851.518     2271.991     2101.706        2.536        0.561      197.614       35.216        0.032      343.111       18.991      864.803
10/18/2013  14:09:00      123.894       68.876       35.683       51.533       44.467       43.910     2655.692     1977.297     1928.067        1.396        0.328      141.752       27.700        0.038      343.083       18.945      864.784
10/18/2013  14:10:00      198.555      134.874       92.291      132.737      100.591       69.403    17619.141    10118.639     4816.708        4.934        1.628      240.031       57.179        0.057      343.395       19.473      864.766
10/18/2013  14:11:00      203.117      114.644       51.565      118.325       91.443       84.612    14000.912     8361.750     7159.167        4.329        1.476      233.238       56.484        0.059      343.194       19.132      864.751
10/18/2013  14:12:00      115.460      125.216      126.952      109.416       99.724       79.249    11971.890     9944.899     6280.401        3.666        1.410      170.323       68.017        0.159      343.535       19.712      864.751
10/18/2013  14:13:00      128.648      -68.441       54.362       83.189      115.489       65.097     6920.468    13337.653     4237.637        2.434        1.225      145.720       69.105        0.225      343.468       19.599      864.759
10/18/2013  14:14:00      100.978        8.830       63.629       80.438       68.728       58.052     6470.270     4723.472     3370.033        1.444        0.728      101.364       36.624        0.131      343.565       19.765      864.758
10/18/2013  14:15:00       58.811       44.625       68.621       85.876       69.423       62.850     7374.689     4819.535     3950.183        1.315        0.807       73.825       54.317        0.541      343.468       19.599      864.758
10/18/2013  14:16:00       40.396       28.448       94.270       55.357       98.407       57.388     3064.441     9684.011     3293.341        1.368        0.802       49.408       61.071        1.528      343.542       19.725      864.768
10/18/2013  14:17:00       66.515      -14.129       50.525       80.957       83.723       57.392     6554.072     7009.533     3293.831        1.201        0.843       67.999       59.013        0.753      343.517       19.683      864.773
10/18/2013  14:18:00       13.426      -13.130       42.484       26.439       54.827       30.121      699.039     3006.053      907.252        0.338        0.231       18.779       35.505        3.575      343.337       19.377      864.766
10/18/2013  14:19:00       63.852       38.737       31.926       47.132       44.636       41.016     2221.416     1992.407     1682.334        0.625        0.295       74.684       30.037        0.162      343.347       19.394      864.755
10/18/2013  14:20:00       87.998       36.619       31.238       65.669       51.599       56.363     4312.419     2662.499     3176.799        1.010        0.508       95.314       41.055        0.186      343.238       19.208      864.750
10/18/2013  14:21:00       51.532      -17.538       12.471       56.162       48.676       42.416     3154.204     2369.352     1799.155        0.522        0.366       54.435       28.137        0.267      343.144       19.051      864.739
10/18/2013  14:22:00       19.704       42.918       74.951       56.027       53.878       33.537     3139.008     2902.851     1124.713        0.751        0.358       47.225       32.864        0.484      343.487       19.633      864.736
10/18/2013  14:23:00       98.381       87.706        8.185       70.812       50.889       43.484     5014.269     2589.725     1890.854        1.346        0.475      131.800       31.038        0.055      343.210       19.161      864.726
10/18/2013  14:24:00       99.271      105.532        1.904       76.905       60.237       46.901     5914.377     3628.497     2199.663        1.637        0.587      144.885       38.651        0.071      343.185       19.117      864.722
10/18/2013  14:25:00       79.254       85.814        5.212       54.361       34.312       30.514     2955.099     1177.287      931.075        0.937        0.253      116.813       23.965        0.042      343.067       18.916      864.722
10/18/2013  14:26:00       78.187       92.789       -1.557       41.414       37.417       28.249     1715.084     1400.056      798.005        0.932        0.196      121.338       24.674        0.041      343.127       19.018      864.720
10/18/2013  14:27:00       53.420       62.908       14.932       54.290       32.462       26.626     2947.361     1053.801      708.950        0.587        0.236       82.529       18.541        0.050      343.170       19.093      864.708
10/18/2013  14:28:00       71.218       71.518        7.083       50.338       42.034       30.565     2533.942     1766.867      934.193        0.774        0.262      100.929       18.091        0.032      343.181       19.111      864.683
10/18/2013  14:29:00       79.413       80.412       23.166       52.496       43.021       37.177     2755.812     1850.827     1382.145        0.965        0.299      113.015       27.239        0.058      343.268       19.259      864.673
10/18/2013  14:30:00       58.636       29.970       44.316       58.150       40.970       22.248     3381.377     1678.575      494.952        0.593        0.278       65.851       16.788        0.065      343.663       19.934      864.667
10/18/2013  14:31:00       -3.669      -46.207       -3.426       36.044       52.120       38.904     1299.141     2716.521     1513.527        0.384        0.276       46.352       30.554        0.435      344.062       20.615      864.661
10/18/2013  14:32:00      -65.751       14.496       12.678       56.384       29.846       35.565     3179.109      890.771     1264.841        0.501        0.267       67.330       35.899        0.284      344.206       20.860      864.661
10/18/2013  14:33:00       35.836       40.165       19.722       75.544       58.194       41.543     5706.883     3386.508     1725.805        0.705        0.541       53.828       32.733        0.370      343.728       20.044      864.664
10/18/2013  14:34:00       61.301       10.827       43.311       46.417       79.240       47.730     2154.495     6278.943     2278.197        0.823        0.536       62.250       39.693        0.407      343.554       19.746      864.646
10/18/2013  14:35:00        1.898       32.619       30.030       53.512       41.722       37.787     2863.587     1740.761     1427.887        0.400        0.302       32.674       23.203        0.504      343.707       20.007      864.633
10/18/2013  14:36:00      100.935       40.328       13.823       50.438       93.136       45.341     2544.028     8674.384     2055.768        1.264        0.664      108.693       32.202        0.088      343.312       19.333      864.623
10/18/2013  14:37:00      160.962      128.032       85.213       98.240       76.183       62.941     9651.034     5803.892     3961.551        3.449        0.971      205.672       43.665        0.045      343.634       19.883      864.596
10/18/2013  14:38:00      187.010      138.239      140.211      126.865       97.939       82.294    16094.681     9592.145     6772.317        5.310        1.623      232.557       80.473        0.120      343.407       19.494      864.588
10/18/2013  14:39:00      158.173      138.475      113.472       88.087       88.789       74.861     7759.280     7883.532     5604.136        3.915        1.062      210.224       50.021        0.057      343.384       19.456      864.595
10/18/2013  14:40:00      133.978      142.954      100.837       96.223       72.083       87.434     9258.772     5195.949     7644.619        3.532        1.105      195.923       76.069        0.151      343.323       19.351      864.598
10/18/2013  14:41:00      142.420       45.779       13.265       86.335       69.643       54.788     7453.753     4850.112     3001.692        1.893        0.765      149.597       51.641        0.119      343.453       19.572      864.595
10/18/2013  14:42:00       19.168       42.837       57.577       49.596       61.869       54.480     2459.770     3827.826     2968.097        0.739        0.463       46.930       38.536        0.674      343.780       20.133      864.592
10/18/2013  14:43:00        4.348      -14.678       33.990       21.523       34.508       19.590      463.239     1190.803      383.752        0.171        0.102       15.308        4.706        0.095      344.143       20.753      864.582
10/18/2013  14:44:00       46.083      -84.982       -2.155       40.806       76.175       43.349     1665.130     5802.658     1879.173        0.935        0.467       96.672       40.871        0.179      343.759       20.097      864.567
10/18/2013  14:45:00       -3.103        8.231        7.157       51.318       22.671       26.380     2633.574      513.993      695.924        0.199        0.192        8.797       29.241       11.050      343.467       19.599      864.552
10/18/2013  14:46:00       -2.004       50.301       89.607       34.016       51.945       48.035     1157.115     2698.247     2307.333        0.836        0.308       50.341       47.881        0.905      343.856       20.262      864.555
10/18/2013  14:47:00       38.400       -0.349       50.974       30.416       36.616       40.981      925.103     1340.717     1679.422        0.401        0.197       38.401       31.612        0.678      343.552       19.743      864.545
10/18/2013  14:48:00       34.903       14.257       41.277       47.837       58.219       33.337     2288.405     3389.503     1111.335        0.496        0.339       37.703       31.138        0.682      343.706       20.007      864.526
10/18/2013  14:49:00       -8.794       13.996       20.337       25.566       24.502       29.265      653.605      600.337      856.424        0.140        0.106       16.530       17.208        1.084      343.785       20.141      864.524
10/18/2013  14:50:00       33.570       18.939      -11.086       48.100       19.523       12.517     2313.635      381.133      156.672        0.223        0.143       38.544        8.652        0.050      343.278       19.275      864.500
10/18/2013  14:51:00      -23.722       17.793       -4.808       26.820       14.415       14.122      719.295      207.802      199.434        0.101        0.056       29.653       16.744        0.319      343.432       19.540      864.498
10/18/2013  14:52:00       47.363       73.035       73.943       65.540       53.648       46.983     4295.530     2878.099     2207.377        1.121        0.469       87.048       42.857        0.242      343.717       20.026      864.500
10/18/2013  14:53:00       62.319      117.466      128.585       60.827       62.899       38.333     3699.905     3956.237     1469.447        2.167        0.456      132.973       35.533        0.071      343.459       19.583      864.491
10/18/2013  14:54:00       91.348      108.707       93.826       65.824       57.294       46.636     4332.756     3282.659     2174.942        1.938        0.490      141.992       41.021        0.083      343.491       19.638      864.489
10/18/2013  14:55:00      114.969      157.107      145.651       93.826      102.301       85.954     8803.324    10465.564     7388.140        4.288        1.333      194.681       81.746        0.176      343.555       19.747      864.483
10/18/2013  14:56:00       76.636       39.394       71.902       79.246       52.970       49.782     6279.862     2805.787     2478.292        1.208        0.578       86.168       45.703        0.281      343.600       19.825      864.484
10/18/2013  14:57:00      164.907       96.498       46.729      100.107       82.690       46.091    10021.346     6837.689     2124.338        2.883        0.949      191.065       37.565        0.039      343.598       19.819      864.479
10/18/2013  14:58:00       60.759       75.544       -7.698       57.839       42.067       31.119     3345.308     1769.619      968.369        0.777        0.304       96.947       14.874        0.024      343.404       19.491      864.475
10/18/2013  14:59:00        1.446       60.766      -15.177       23.805       46.924       13.563      566.678     2201.842      183.958        0.344        0.148       60.783       17.232        0.080      343.415       19.511      864.443
10/18/2013  15:00:00      -11.524      106.255       -2.626       45.855      139.313       43.458     2102.667    19408.210     1888.597        1.741        1.170      106.878       71.674        0.450      343.590       19.808      864.419
10/18/2013  15:01:00       10.867      201.544      -34.013       42.896       53.334       24.154     1840.043     2844.544      583.392        2.358        0.263      201.837       23.748        0.014      343.562       19.759      864.420
10/18/2013  15:02:00      -12.390      131.878       -8.069       51.666       62.989       36.845     2669.420     3967.572     1357.558        1.280        0.400      132.459       36.991        0.078      343.709       20.011      864.413
10/18/2013  15:03:00       -3.342      173.738      -22.664       43.136       67.262       23.414     1860.743     4524.224      548.198        1.882        0.347      173.770       27.496        0.025      343.734       20.052      864.407
10/18/2013  15:04:00       69.108      125.457       -8.274       75.223       87.193       39.486     5658.520     7602.628     1559.115        1.770        0.741      143.232       39.985        0.078      343.781       20.132      864.392
10/18/2013  15:05:00      153.692       76.427       34.510       90.734       77.159       56.443     8232.609     5953.558     3185.813        2.401        0.869      171.646       19.905        0.013      343.698       19.990      864.385
10/18/2013  15:06:00      234.918      142.328       49.939       85.509       70.567       71.808     7311.832     4979.734     5156.361        4.769        0.872      274.670       57.176        0.043      343.624       19.863      864.384
10/18/2013  15:07:00       29.910       82.367       81.794       49.383       52.741       38.209     2438.684     2781.584     1459.927        1.052        0.334       87.629       33.939        0.150      343.803       20.172      864.395
10/18/2013  15:08:00      139.631       78.311       26.273       61.597       53.191       41.765     3794.193     2829.256     1744.333        1.734        0.418      160.092       25.905        0.026      343.834       20.221      864.401
10/18/2013  15:09:00       60.404       49.889       19.259       51.187       40.588       35.212     2620.103     1647.417     1239.870        0.601        0.275       78.343       31.215        0.159      343.665       19.936      864.385
10/18/2013  15:10:00       11.151       47.052       65.149       35.208       48.207       44.045     1239.588     2323.881     1939.997        0.604        0.275       48.356       35.873        0.550      343.937       20.402      864.378
10/18/2013  15:11:00       58.091       66.336       37.018       69.291       43.882       41.020     4801.228     1925.631     1682.634        0.878        0.420       88.177       38.537        0.191      343.938       20.402      864.378
10/18/2013  15:12:00       71.103       72.991       81.521       84.717       63.500       47.979     7176.953     4032.262     2302.018        1.527        0.676      101.898       46.444        0.208      343.939       20.404      864.384
10/18/2013  15:13:00      101.108      104.197      115.953       83.412       79.390       73.891     6957.606     6302.796     5459.953        2.662        0.936      145.189       58.999        0.165      343.885       20.311      864.376
10/18/2013  15:14:00      121.393      102.277       86.595       93.492       74.040       67.439     8740.835     5481.916     4548.063        2.573        0.939      158.735       53.699        0.114      343.870       20.285      864.366
10/18/2013  15:15:00      141.020       72.686       40.086      111.495       82.695       66.098    12431.198     6838.508     4368.996        2.520        1.182      158.650       43.971        0.077      343.834       20.223      864.348
10/18/2013  15:16:00      138.865       57.176       61.845      110.883       97.170       65.196    12295.095     9442.099     4250.529        2.618        1.299      150.176       65.446        0.190      343.931       20.388      864.345
10/18/2013  15:17:00      101.299      -73.710       26.757       94.577       90.622       56.237     8944.868     8212.322     3162.637        1.836        1.016      125.278       59.795        0.228      343.926       20.381      864.344
10/18/2013  15:18:00       91.845      -12.981       45.301       66.500       67.042       46.410     4422.226     4494.572     2153.884        1.086        0.554       92.758       45.663        0.242      344.002       20.512      864.335
10/18/2013  15:19:00       75.608      -81.136       27.765       48.629       54.378       38.028     2364.750     2957.015     1446.141        0.992        0.338      110.904       33.400        0.091      343.874       20.293      864.325
10/18/2013  15:20:00       96.743      -88.389        5.300       47.967       76.574       34.564     2300.795     5863.518     1194.637        1.328        0.468      131.041       29.876        0.052      343.839       20.233      864.320
10/18/2013  15:21:00       78.563       64.741       36.674       49.852       43.404       45.195     2485.255     1883.885     2042.605        0.906        0.321      101.802       17.419        0.029      343.925       20.381      864.309
10/18/2013  15:22:00       30.565       56.582        5.586       34.611       56.263       25.734     1197.954     3165.578      662.248        0.460        0.251       64.310       23.835        0.137      343.980       20.474      864.308
10/18/2013  15:23:00       58.121       12.394       57.707       82.686       55.688       59.473     6836.918     3101.134     3537.039        1.017        0.674       59.428       51.408        0.748      344.088       20.659      864.309
10/18/2013  15:24:00       87.344       88.243       77.427       72.667       72.223       70.214     5280.540     5216.095     4930.024        1.842        0.771      124.160       60.904        0.241      343.904       20.344      864.309
10/18/2013  15:25:00       73.245       89.242        8.573       90.170       61.362       47.037     8130.540     3765.333     2212.457        1.375        0.705      115.451       33.971        0.087      343.734       20.054      864.309
10/18/2013  15:26:00       10.559       63.193        3.062       37.964       37.471       27.715     1441.290     1404.070      768.138        0.386        0.181       64.069       17.280        0.073      343.762       20.101      864.295
10/18/2013  15:27:00       35.501       18.648        2.972       36.607       32.330       27.721     1340.054     1045.256      768.444        0.238        0.158       40.101       14.042        0.123      343.883       20.309      864.282
10/18/2013  15:28:00       32.472      -36.508       30.073       55.575       66.004       47.115     3088.555     4356.481     2219.843        0.648        0.483       48.860       24.834        0.258      344.065       20.619      864.275
10/18/2013  15:29:00       25.299       12.323       51.588       46.651       73.100       37.117     2176.277     5343.629     1377.680        0.617        0.445       28.141       49.789        3.130      344.100       20.679      864.278
10/18/2013  15:30:00       44.528      -72.620       -7.716       36.585       37.204       22.434     1338.473     1384.157      503.297        0.527        0.161       85.185       13.897        0.027      343.886       20.313      864.283
10/18/2013  15:31:00       93.140       71.838        2.751       65.871       51.085       33.003     4338.923     2609.709     1089.181        1.094        0.402      117.626       27.352        0.054      343.810       20.183      864.272
10/18/2013  15:32:00      116.709      118.634        5.552       79.224       41.676       39.951     6276.463     1736.877     1596.082        1.867        0.480      166.418       27.372        0.027      343.691       19.979      864.268
10/18/2013  15:33:00       38.602       57.782        0.983       42.226       33.783       27.249     1783.003     1141.297      742.535        0.425        0.183       69.490       22.746        0.107      343.786       20.144      864.262
10/18/2013  15:34:00       88.978      107.527       11.706       66.196       56.482       41.240     4381.907     3190.192     1700.755        1.444        0.464      139.567       39.202        0.079      343.777       20.128      864.260
10/18/2013  15:35:00       66.826       63.526       14.282       41.825       36.814       32.821     1749.293     1355.234     1077.193        0.644        0.209       92.202       13.504        0.021      343.856       20.263      864.254
10/18/2013  15:36:00       39.011      142.526       -2.162       79.371       99.151       54.482     6299.721     9830.833     2968.297        2.047        0.955      147.769       66.475        0.202      343.939       20.403      864.226
10/18/2013  15:37:00      152.850       82.257       33.127      115.334       81.946       72.572    13301.878     6715.222     5266.647        2.825        1.264      173.578       49.942        0.083      343.975       20.463      864.209
10/18/2013  15:38:00      181.536       80.765       46.964       77.088       69.859       51.663     5942.564     4880.305     2669.091        2.759        0.675      198.692       33.565        0.029      343.957       20.433      864.203
10/18/2013  15:39:00      146.912      104.152       99.159       91.753      106.372       88.447     8418.655    11315.058     7822.826        3.491        1.378      180.085       74.255        0.170      343.946       20.414      864.180
10/18/2013  15:40:00       56.268      106.586      102.264       74.976       62.325       52.734     5621.354     3884.369     2780.924        1.863        0.614      120.527       38.767        0.103      344.112       20.697      864.172
10/18/2013  15:41:00       44.259      171.496      174.845       63.575       82.681       55.367     4041.818     6836.086     3065.494        3.794        0.697      177.116       56.760        0.103      343.892       20.321      864.175
10/18/2013  15:42:00       86.420      -30.143       66.748       62.255       64.889       40.364     3875.633     4210.641     1629.278        1.127        0.486       91.526       30.433        0.111      343.920       20.372      864.168
10/18/2013  15:43:00       99.342       55.055       85.180      103.747       83.375       65.730    10763.483     6951.410     4320.371        2.109        1.102      113.578       64.994        0.327      343.997       20.501      864.157
10/18/2013  15:44:00      108.837       98.093       69.843       94.459       87.922       66.122     8922.430     7730.335     4372.077        2.368        1.051      146.519       55.068        0.141      343.977       20.466      864.153
10/18/2013  15:45:00       61.207      104.880        6.584       77.917       92.733       49.272     6071.071     8599.405     2427.764        1.594        0.855      121.434       42.860        0.125      344.035       20.566      864.174
10/18/2013  15:46:00       58.143      138.621      -17.025       46.239       92.922       48.188     2138.063     8634.582     2322.108        1.799        0.655      150.321       48.320        0.103      343.807       20.179      864.167
10/18/2013  15:47:00      136.000       85.179       24.690       72.622       48.618       40.810     5274.000     2363.734     1665.482        1.783        0.465      160.472       19.404        0.015      343.919       20.368      864.159
10/18/2013  15:48:00       95.752       88.918       -0.477       69.105       55.466       34.734     4775.490     3076.506     1206.467        1.307        0.453      130.671       25.998        0.040      344.107       20.691      864.173
10/18/2013  15:49:00       85.767       72.717       50.743       63.127       42.926       42.520     3984.987     1842.654     1807.913        1.143        0.382      112.445       32.072        0.081      344.204       20.857      864.167
10/18/2013  15:50:00       99.768       64.317       48.563      109.514       59.828       52.342    11993.390     3579.372     2739.657        1.738        0.916      118.703       58.731        0.245      344.100       20.677      864.165
10/18/2013  15:51:00       71.684       62.993       35.670      106.059       52.586       53.115    11248.467     2765.326     2821.242        1.360        0.842       95.429       48.844        0.262      344.226       20.894      864.161
10/18/2013  15:52:00      160.193       95.799       68.850       90.564       82.910       44.819     8201.884     6874.091     2008.744        2.833        0.854      186.653       36.346        0.038      344.091       20.662      864.161
10/18/2013  15:53:00      115.946       89.912       32.652       79.251       51.798       61.841     6280.725     2683.010     3824.315        1.769        0.639      146.723       27.358        0.035      344.074       20.632      864.153
10/18/2013  15:54:00      129.473       82.933       18.208       66.946       34.560       35.132     4481.747     1194.416     1234.241        1.544        0.346      153.756       28.357        0.034      343.848       20.248      864.146
10/18/2013  15:55:00       38.119       67.902       67.605       62.066       46.799       44.460     3852.224     2190.167     1976.674        0.933        0.401       77.870       41.065        0.278      344.216       20.877      864.135
10/18/2013  15:56:00       44.685       23.306        5.684       32.843       21.808       28.643     1078.656      475.572      820.402        0.247        0.119       50.398       13.433        0.071      344.177       20.811      864.130
10/18/2013  15:57:00       67.229        8.185        4.986       53.564       33.088       24.649     2869.119     1094.830      607.587        0.459        0.229       67.726       19.767        0.085      344.029       20.558      864.124
10/18/2013  15:58:00       64.033      -26.496       45.472       60.706       97.017       64.645     3685.219     9412.381     4178.921        1.207        0.864       69.299       71.440        1.063      344.156       20.775      864.116
10/18/2013  15:59:00       20.057       12.640       42.613       30.519       46.647       32.035      931.393     2175.899     1026.210        0.326        0.207       23.707       30.924        1.701      344.174       20.806      864.116
10/18/2013  16:00:00       49.132       51.883       17.014       83.740       43.484       35.644     7012.408     1890.858     1270.468        0.778        0.509       71.455       25.888        0.131      344.230       20.901      864.118
10/18/2013  16:01:00      102.669       73.677       22.331      104.065       47.566       55.732    10829.434     2262.484     3106.043        1.633        0.810      126.370       30.959        0.060      344.165       20.788      864.118
10/18/2013  16:02:00       40.920       74.642       -1.881       44.432       68.459       41.232     1974.161     4686.636     1700.118        0.780        0.418       85.123       37.060        0.190      343.940       20.406      864.128
10/18/2013  16:03:00       39.155       40.300        0.852       59.788       38.658       29.880     3574.626     1494.417      892.820        0.456        0.298       56.189       24.048        0.183      344.031       20.561      864.125
10/18/2013  16:04:00       63.230      137.524      -16.133       78.183       86.422       59.915     6112.633     7468.776     3589.865        2.017        0.859      151.364       50.404        0.111      343.928       20.384      864.130
10/18/2013  16:05:00      103.517      107.285        9.859       91.969       61.951       60.340     8458.257     3837.872     3640.941        1.913        0.797      149.083       37.894        0.065      343.855       20.261      864.126
10/18/2013  16:06:00       66.918      106.611        1.072       72.267       68.310       46.019     5222.494     4666.189     2117.721        1.392        0.600      125.873       42.523        0.114      343.857       20.264      864.115
10/18/2013  16:07:00       40.330       67.225        8.890       57.162       58.223       43.440     3267.466     3389.893     1887.038        0.738        0.427       78.394       31.080        0.157      343.854       20.258      864.099
10/18/2013  16:08:00       45.410       52.525       11.926       52.789       57.208       34.816     2786.672     3272.800     1212.181        0.612        0.364       69.433       33.541        0.233      343.967       20.451      864.069
10/18/2013  16:09:00       53.891      104.527       -6.940       58.767       77.443       44.119     3453.586     5997.421     1946.474        1.264        0.570      117.602       42.755        0.132      343.887       20.315      864.064
10/18/2013  16:10:00       39.247      121.375       -7.602       52.472       65.872       45.269     2753.347     4339.066     2049.256        1.273        0.457      127.563       36.071        0.080      343.870       20.285      864.045
10/18/2013  16:11:00       35.790      193.288      -18.916       58.502      100.093       50.738     3422.465    10018.686     2574.357        2.750        0.801      196.573       50.520        0.066      343.999       20.505      864.031
10/18/2013  16:12:00       64.064      182.576       -9.937       73.169      152.760       65.963     5353.655    23335.743     4351.179        3.528        1.652      193.489       78.956        0.167      343.995       20.497      864.014
10/18/2013  16:13:00      169.774      133.525       -1.070      110.860       85.032       66.230    12289.943     7230.523     4386.351        3.528        1.195      215.991       41.956        0.038      343.948       20.417      864.023
10/18/2013  16:14:00      206.404      108.065       41.947       96.717       77.438       61.531     9354.216     5996.607     3786.082        3.759        0.957      232.982       48.676        0.044      343.827       20.210      864.017
10/18/2013  16:15:00      115.074      102.225       61.479       87.782       63.654       60.508     7705.701     4051.895     3661.241        2.144        0.771      153.922       52.307        0.115      343.933       20.393      864.012
10/18/2013  16:16:00       38.672       62.647       61.996       63.457       50.934       38.088     4026.738     2594.231     1450.733        0.867        0.404       73.622       32.323        0.193      344.020       20.543      864.008
10/18/2013  16:17:00       71.111       78.236       67.131       59.108       36.563       41.086     3493.750     1336.884     1688.036        1.110        0.326      105.724       32.555        0.095      344.076       20.640      864.011
10/18/2013  16:18:00      134.838       97.296       20.731       73.982       57.899       48.077     5473.283     3352.321     2311.432        1.961        0.557      166.276       23.540        0.020      344.075       20.633      864.012
10/18/2013  16:19:00       29.597      100.840       -5.932       65.020       56.964       34.175     4227.651     3244.929     1167.918        0.986        0.432      105.094       23.653        0.051      344.013       20.530      864.008
10/18/2013  16:20:00       82.024       18.864       17.342       58.943       50.912       41.975     3474.239     2592.065     1761.927        0.761        0.391       84.165       14.849        0.031      344.082       20.648      863.994
10/18/2013  16:21:00       46.281       32.836       47.650       43.955       42.392       32.468     1932.011     1797.110     1054.159        0.514        0.239       56.746       28.262        0.248      344.280       20.987      863.989
10/18/2013  16:22:00       64.080       46.112       42.037       66.770       57.693       50.716     4458.249     3328.458     2572.150        0.918        0.518       78.946       38.585        0.239      344.285       20.997      863.987
10/18/2013  16:23:00      135.782      102.753       74.179       81.151       56.740       64.579     6585.500     3219.452     4170.474        2.423        0.699      170.279       55.509        0.106      344.063       20.613      863.969
10/18/2013  16:24:00       76.715       95.697      119.050       96.175       76.362       62.406     9249.644     5831.149     3894.522        2.409        0.949      122.651       55.617        0.206      344.073       20.630      863.956
10/18/2013  16:25:00      179.851      110.344       51.224      144.828       77.779       61.573    20975.138     6049.602     3791.296        3.898        1.541      211.002       72.881        0.119      344.039       20.572      863.959
10/18/2013  16:26:00       74.599       28.414       35.830       63.285       62.652       39.364     4005.018     3925.325     1549.541        0.857        0.474       79.827       30.723        0.148      344.121       20.714      863.962
10/18/2013  16:27:00       62.075       15.153       42.225       65.255       69.607       43.166     4258.242     4845.203     1863.280        0.841        0.548       63.898       48.006        0.564      344.060       20.611      863.952
10/18/2013  16:28:00       95.842       68.508       46.881       71.886       57.052       55.413     5167.556     3254.882     3070.616        1.378        0.575      117.809       43.930        0.139      344.095       20.671      863.945
10/18/2013  16:29:00      121.399       97.890       35.529       80.092       71.069       57.880     6414.692     5050.857     3350.107        2.020        0.741      155.949       39.835        0.065      344.119       20.710      863.940
10/18/2013  16:30:00      154.914      107.899        9.388       70.019       83.145       55.465     4902.652     6913.107     3076.415        2.531        0.745      188.787       44.944        0.057      344.058       20.606      863.940
10/18/2013  16:31:00      134.800       81.491       62.696       78.143       53.089       55.645     6106.353     2818.436     3096.367        2.038        0.601      157.518       40.332        0.066      344.113       20.699      863.946
10/18/2013  16:32:00      101.443      102.722       83.140       85.732       70.675       60.669     7349.953     4994.961     3680.723        2.189        0.801      144.369       57.292        0.157      344.034       20.565      863.947
10/18/2013  16:33:00      220.920       96.838       32.709       88.921       73.934       54.694     7907.022     5466.206     2991.487        3.781        0.818      241.212       42.104        0.030      343.906       20.345      863.952
10/18/2013  16:34:00      172.974       99.160       11.861       69.291       60.619       36.904     4801.285     3674.620     1361.931        2.486        0.492      199.381       21.136        0.011      343.941       20.404      863.961
10/18/2013  16:35:00      110.360       92.698       12.764       82.050       59.363       45.333     6732.161     3523.971     2055.103        1.662        0.616      144.126       25.295        0.031      343.909       20.352      863.958
10/18/2013  16:36:00      160.908      111.353       20.905       75.139       47.412       47.764     5645.804     2247.859     2281.403        2.445        0.509      195.681       30.338        0.024      343.921       20.371      863.948
10/18/2013  16:37:00      136.075       84.466       18.488       74.412       54.980       38.731     5537.152     3022.820     1500.080        1.802        0.503      160.159       19.825        0.015      344.023       20.547      863.944
10/18/2013  16:38:00      106.220       59.239       42.692       63.493       46.541       59.867     4031.412     2166.089     3584.004        1.320        0.489      121.622       45.757        0.142      344.075       20.637      863.942
10/18/2013  16:39:00       89.123       71.217       56.600       66.247       64.531       49.080     4388.693     4164.190     2408.852        1.359        0.548      114.082       44.338        0.151      344.005       20.517      863.941
10/18/2013  16:40:00      159.841       90.648       34.544       73.175       68.782       53.221     5354.526     4730.945     2832.487        2.394        0.646      183.756       35.270        0.037      343.860       20.267      863.942
10/18/2013  16:41:00      196.650      134.273       52.685       98.866       63.244       52.679     9774.500     3999.779     2775.062        3.801        0.827      238.119       25.093        0.011      343.893       20.322      863.940
10/18/2013  16:42:00      197.536      126.801       45.740       88.988       60.554       59.670     7918.895     3666.776     3560.542        3.617        0.757      234.732       47.261        0.041      343.925       20.377      863.943
10/18/2013  16:43:00      170.549       98.059       29.515       71.237       47.558       55.351     5074.712     2261.796     3063.711        2.499        0.520      196.730       40.448        0.042      343.876       20.294      863.939
10/18/2013  16:44:00      157.703      115.454       12.044       64.835       47.147       50.702     4203.604     2222.868     2570.661        2.367        0.450      195.448       35.807        0.034      343.836       20.227      863.934
10/18/2013  16:45:00       96.125       69.919        2.569       58.374       46.134       31.233     3407.480     2128.342      975.499        1.032        0.326      118.864       25.958        0.048      343.861       20.271      863.929
10/18/2013  16:46:00      148.956       78.760       16.501       99.852       52.417       47.770     9970.341     2747.590     2281.992        2.183        0.750      168.496       29.623        0.031      343.838       20.230      863.923
10/18/2013  16:47:00      104.845      104.669        8.684       83.862       68.888       51.910     7032.863     4745.511     2694.677        1.825        0.724      148.149       44.494        0.090      343.782       20.134      863.913
10/18/2013  16:48:00      104.788      130.177       -7.887       75.285       59.479       38.160     5667.902     3537.715     1456.160        1.932        0.533      167.112       38.556        0.053      343.818       20.196      863.901
10/18/2013  16:49:00      106.398       81.766        8.494       83.677       59.212       41.801     7001.808     3506.089     1747.325        1.516        0.613      134.188       28.860        0.046      343.836       20.228      863.891
10/18/2013  16:50:00       55.427      110.278       -3.328       55.301       70.633       55.686     3058.173     4989.006     3100.883        1.319        0.557      123.424       49.961        0.164      343.851       20.255      863.887
10/18/2013  16:51:00      100.536      106.414       19.370       52.464       62.732       44.264     2752.478     3935.322     1959.324        1.523        0.432      146.394       31.815        0.047      343.859       20.266      863.882
10/18/2013  16:52:00       39.468      117.709        4.763       60.897       85.171       49.287     3708.408     7254.132     2429.197        1.441        0.670      124.150       41.255        0.110      343.894       20.325      863.885
10/18/2013  16:53:00      132.625      106.311       10.957       80.858       73.547       62.748     6538.093     5409.209     3937.348        2.245        0.794      169.974       48.821        0.083      343.825       20.208      863.880
10/18/2013  16:54:00      227.584      157.062       44.546       71.996       66.199       43.556     5183.360     4382.258     1897.139        4.495        0.573      276.519       36.251        0.017      343.726       20.037      863.888
10/18/2013  16:55:00      152.782       90.797       48.532       58.581       40.768       47.404     3431.768     1662.057     2247.144        2.064        0.367      177.726       42.470        0.057      343.799       20.163      863.875
10/18/2013  16:56:00       16.838      123.670       -6.188       74.136       79.709       40.119     5496.202     6353.492     1609.562        1.454        0.673      124.811       44.036        0.124      343.901       20.338      863.875
10/18/2013  16:57:00       80.978      173.852      -13.900       89.533       90.687       56.051     8016.128     8224.100     3141.695        2.818        0.969      191.787       55.752        0.085      343.886       20.312      863.873
10/18/2013  16:58:00      106.034      126.965        6.338       93.090       83.343       75.084     8665.678     6946.070     5637.602        2.432        1.062      165.419       59.134        0.128      343.838       20.231      863.871
10/18/2013  16:59:00      121.175      140.465        1.530       91.619       72.213       55.682     8394.010     5214.658     3100.479        2.556        0.835      185.509       46.089        0.062      343.840       20.233      863.870
10/18/2013  17:00:00      168.334      140.625       22.599       99.074       64.416       47.480     9815.705     4149.474     2254.344        3.242        0.811      219.344       32.751        0.022      343.852       20.253      863.860
10/18/2013  17:01:00      208.916      134.892       28.199       72.423       64.646       53.391     5245.030     4179.069     2850.595        3.745        0.614      248.680       31.406        0.016      343.845       20.242      863.865
10/18/2013  17:02:00      222.199      119.687       27.808       83.253       61.984       55.624     6931.036     3841.972     3094.018        3.917        0.693      252.383       38.223        0.023      343.877       20.295      863.873
10/18/2013  17:03:00       92.859       63.433       23.919       79.852       66.413       39.383     6376.354     4410.748     1551.015        1.278        0.617      112.457       32.656        0.084      343.897       20.332      863.878
10/18/2013  17:04:00       29.281       68.631       66.820       77.858       57.715       63.734     6061.880     3331.053     4062.056        1.174        0.673       74.616       59.805        0.642      343.858       20.266      863.877
10/18/2013  17:05:00      189.475      131.394       30.712       96.048       56.102       54.288     9225.208     3147.435     2947.182        3.471        0.766      230.576       43.059        0.035      343.812       20.185      863.900
10/18/2013  17:06:00      179.867      134.777       28.699      110.722       70.990       56.838    12259.346     5039.608     3230.534        3.593        1.026      224.760       33.443        0.022      343.741       20.065      863.901
10/18/2013  17:07:00      258.981      161.287       24.375       91.282       68.655       58.359     8332.454     4713.574     3405.827        5.506        0.823      305.098       30.172        0.010      343.715       20.020      863.895
10/18/2013  17:08:00      112.482      116.340       23.818       70.708       71.789       57.522     4999.582     5153.647     3308.777        2.011        0.673      161.824       35.188        0.047      343.731       20.046      863.898
10/18/2013  17:09:00      120.907       50.442       11.994       65.684       52.851       37.170     4314.328     2793.248     1381.623        1.290        0.424      131.008       17.151        0.017      343.709       20.011      863.887
10/18/2013  17:10:00      189.744      114.584       26.090      102.535       69.026       44.513    10513.361     4764.558     1981.431        3.353        0.863      221.658       22.110        0.010      343.718       20.026      863.887
10/18/2013  17:11:00      150.382       95.635       38.989       60.503       62.379       45.598     3660.572     3891.197     2079.214        2.145        0.482      178.216       29.348        0.027      343.688       19.974      863.895
10/18/2013  17:12:00      116.888       84.256        3.078       51.599       52.070       34.644     2662.462     2711.318     1200.205        1.367        0.329      144.090       22.367        0.024      343.718       20.026      863.894
10/18/2013  17:13:00      138.420      105.065       -2.504       82.759       63.247       59.053     6848.980     4000.167     3487.244        2.227        0.717      173.778       42.883        0.061      343.701       19.996      863.899
10/18/2013  17:14:00      163.757      179.470        1.045      106.061       96.701       61.355    11248.847     9350.995     3764.443        4.169        1.218      242.952       58.643        0.058      343.701       19.994      863.888
10/18/2013  17:15:00      101.446       98.485        3.461       69.830       52.093       56.034     4876.214     2713.645     3139.859        1.536        0.536      141.388       35.578        0.063      343.676       19.954      863.898
10/18/2013  17:16:00       79.143       87.945       14.236       66.248       56.822       46.799     4388.808     3228.700     2190.163        1.200        0.490      118.314       39.942        0.114      343.669       19.942      863.897
10/18/2013  17:17:00       25.398       89.852       -0.993       44.319       65.633       41.598     1964.164     4307.692     1730.408        0.836        0.400       93.372       40.392        0.187      343.709       20.011      863.888
10/18/2013  17:18:00       68.182       91.065        4.794       59.920       55.604       38.368     3590.399     3091.753     1472.085        1.056        0.408      113.761       31.680        0.078      343.732       20.050      863.881
10/18/2013  17:19:00      164.819      118.029       22.083      110.315       81.283       68.904    12169.437     6606.956     4747.710        3.255        1.176      202.722       45.940        0.051      343.677       19.954      863.874
10/18/2013  17:20:00      249.970      152.795       28.967       93.339       67.760       48.558     8712.102     4591.485     2357.845        5.116        0.783      292.970       33.142        0.013      343.621       19.857      863.870
10/18/2013  17:21:00      146.898      130.094       19.292      101.602       66.252       47.324    10323.002     4389.264     2239.532        2.791        0.848      196.223       36.892        0.035      343.683       19.965      863.872
10/18/2013  17:22:00      211.854      122.289       29.184       83.810       71.619       46.140     7024.190     5129.290     2128.887        3.748        0.714      244.616       22.776        0.009      343.642       19.894      863.872
10/18/2013  17:23:00      211.179      128.043       28.184       75.094       74.162       63.164     5639.043     5499.984     3989.713        3.845        0.756      246.965       33.440        0.018      343.644       19.896      863.876
10/18/2013  17:24:00      168.915      131.686       17.125       66.387       54.830       47.349     4407.205     3006.344     2241.903        2.791        0.483      214.181       29.795        0.019      343.636       19.884      863.886
10/18/2013  17:25:00      108.317       61.041       17.955       86.566       68.320       43.957     7493.706     4667.584     1932.237        1.493        0.705      124.333       41.851        0.113      343.635       19.884      863.892
10/18/2013  17:26:00      132.372       97.521       26.821       59.628       75.044       54.164     3555.480     5631.616     2933.755        1.993        0.606      164.417       22.730        0.019      343.599       19.822      863.901
10/18/2013  17:27:00      161.739       86.764       25.452       64.981       48.760       43.065     4222.572     2377.554     1854.626        2.139        0.423      183.541       21.591        0.014      343.584       19.796      863.904
10/18/2013  17:28:00      124.547       93.149       36.176       90.374       64.042       51.369     8167.402     4101.318     2638.743        2.020        0.745      155.527       27.191        0.031      343.600       19.825      863.906
10/18/2013  17:29:00      177.689      144.971       43.284      103.639       70.367       58.759    10741.107     4951.567     3452.666        3.680        0.957      229.325       42.361        0.034      343.571       19.772      863.913
10/18/2013  17:30:00      192.306      113.159       33.940       82.396       61.645       53.373     6789.058     3800.129     2848.696        3.219        0.672      223.129       21.476        0.009      343.541       19.722      863.911
10/18/2013  17:31:00      133.611      102.564       16.965       93.219       58.914       56.648     8689.730     3470.899     3208.967        2.201        0.768      168.437       34.759        0.043      343.530       19.703      863.914
10/18/2013  17:32:00      115.692       74.575       22.450       62.399       47.182       37.901     3893.630     2226.161     1436.522        1.350        0.378      137.645       24.086        0.031      343.496       19.648      863.915
10/18/2013  17:33:00      246.775      156.802       44.816       84.621       59.997       63.965     7160.641     3599.634     4091.494        5.117        0.743      292.378       30.151        0.011      343.518       19.684      863.916
10/18/2013  17:34:00      164.781      122.427       24.367       91.379       78.781       43.287     8350.120     6206.515     1873.745        2.958        0.822      205.283       35.372        0.030      343.477       19.614      863.913
10/18/2013  17:35:00      170.578       88.938       12.211       84.099       75.985       44.700     7072.627     5773.674     1998.063        2.600        0.742      192.372       29.523        0.024      343.438       19.547      863.921
10/18/2013  17:36:00      166.002      100.724       15.460       78.509       64.868       53.180     6163.606     4207.881     2828.121        2.557        0.660      194.170       27.539        0.020      343.439       19.548      863.932
10/18/2013  17:37:00      221.655      163.031       25.288      102.299       69.537       66.691    10465.041     4835.425     4447.631        4.805        0.987      275.155       34.650        0.016      343.426       19.525      863.932
10/18/2013  17:38:00      262.045      148.679       32.051       95.558       74.155       63.837     9131.358     5499.001     4075.197        5.525        0.935      301.285       23.273        0.006      343.409       19.497      863.931
10/18/2013  17:39:00      182.016      126.052       15.408      104.508       67.138       62.278    10921.856     4507.446     3878.596        3.428        0.965      221.402       41.016        0.034      343.365       19.421      863.934
10/18/2013  17:40:00      156.398      101.236       42.810       70.501       43.369       48.304     4970.334     1880.859     2333.240        2.286        0.459      186.303       15.106        0.007      343.349       19.395      863.942
10/18/2013  17:41:00      132.082       87.094       16.697       93.591       61.676       53.342     8759.229     3803.933     2845.404        2.036        0.770      158.212       35.873        0.051      343.322       19.351      863.953
10/18/2013  17:42:00      133.722       95.309       36.765       82.068       64.294       49.189     6735.189     4133.714     2419.533        2.080        0.664      164.212       31.605        0.037      343.325       19.356      863.964
10/18/2013  17:43:00       77.895       41.412       22.034       61.573       44.295       33.420     3791.185     1962.052     1116.879        0.757        0.344       88.219       27.000        0.094      343.325       19.357      863.970
10/18/2013  17:44:00      150.135       86.451       51.184      114.466       77.844       68.863    13102.460     6059.663     4742.075        2.827        1.195      173.246       56.976        0.108      343.304       19.319      863.960
10/18/2013  17:45:00      133.902       90.146       24.142       59.694       63.553       49.094     3563.423     4038.940     2410.175        1.832        0.501      161.419       19.061        0.014      343.287       19.293      863.964
10/18/2013  17:46:00       80.265       58.605       30.359       67.477       53.314       36.945     4553.156     2842.388     1364.929        0.978        0.438       99.383       34.074        0.118      343.257       19.240      863.964
10/18/2013  17:47:00      126.130       59.798       25.837       56.480       45.698       42.196     3189.937     2088.281     1780.534        1.360        0.353      139.587       30.428        0.048      343.210       19.160      863.964
10/18/2013  17:48:00      128.571       69.347       20.129       57.659       60.814       46.698     3324.544     3698.325     2180.674        1.547        0.460      146.080       26.972        0.034      343.242       19.214      863.973
10/18/2013  17:49:00       84.351       49.782        8.803       59.390       42.048       35.647     3527.219     1768.039     1270.715        0.812        0.328       97.945       13.092        0.018      343.170       19.092      863.987
10/18/2013  17:50:00      135.446       71.923       14.408       59.779       44.174       33.263     3573.478     1951.348     1106.438        1.518        0.332      153.358       29.551        0.037      343.222       19.181      863.984
10/18/2013  17:51:00      136.745       84.512       25.230       47.209       48.592       38.098     2228.713     2361.197     1451.436        1.626        0.302      160.753       26.648        0.027      343.156       19.069      863.983
10/18/2013  17:52:00       94.894       63.460       32.218       63.380       47.987       53.306     4017.020     2302.740     2841.537        1.161        0.458      114.158       35.891        0.099      343.152       19.063      863.982
10/18/2013  17:53:00      107.739       60.906       10.243       71.224       44.439       29.645     5072.896     1974.813      878.804        1.167        0.396      123.763       12.112        0.010      343.096       18.966      863.987
10/18/2013  17:54:00      107.309       63.606       26.031       47.111       46.459       34.667     2219.399     2158.448     1201.793        1.091        0.279      124.743       20.767        0.028      343.069       18.922      863.996
10/18/2013  17:55:00       81.371       55.961       15.797       61.546       46.237       36.593     3787.907     2137.878     1339.065        0.863        0.363       98.756       27.200        0.076      343.012       18.823      864.001
10/18/2013  17:56:00      105.946       68.986       22.682       78.509       55.428       32.590     6163.643     3072.269     1062.087        1.340        0.515      126.427       21.440        0.029      343.014       18.827      863.996
10/18/2013  17:57:00      143.413      113.631       20.729       71.641       69.421       51.294     5132.460     4819.267     2631.061        2.324        0.629      182.973       35.582        0.038      343.047       18.882      863.992
10/18/2013  17:58:00      147.754       72.323       11.457       81.855       72.623       41.871     6700.164     5274.083     1753.151        2.046        0.686      164.505       32.561        0.039      342.988       18.780      863.996
10/18/2013  17:59:00       85.662       72.121       14.909       78.914       54.698       45.603     6227.482     2991.884     2079.590        1.203        0.565      111.980       37.116        0.110      342.933       18.688      864.007
10/18/2013  18:00:00       76.842       61.354       16.469       50.059       36.685       34.879     2505.892     1345.763     1216.518        0.750        0.253       98.331       16.709        0.029      342.867       18.577      864.018
10/18/2013  18:01:00      105.921       73.433       13.297       69.690       51.606       38.434     4856.682     2663.181     1477.141        1.289        0.450      128.886       32.440        0.063      342.859       18.562      864.022
10/18/2013  18:02:00      153.131      107.205       27.190       96.707       71.894       62.162     9352.319     5168.778     3864.160        2.703        0.919      186.928       42.262        0.051      342.958       18.730      864.020
10/18/2013  18:03:00      139.978       79.815       27.412       63.515       36.463       34.994     4034.197     1329.525     1224.564        1.665        0.329      161.134       18.547        0.013      342.862       18.567      864.027
10/18/2013  18:04:00      172.863      100.022        4.423       61.678       41.059       34.197     3804.116     1685.819     1169.413        2.328        0.333      199.714       25.389        0.016      342.864       18.570      864.029
10/18/2013  18:05:00      111.901       69.919       20.343       42.458       41.330       35.924     1802.681     1708.189     1290.565        1.131        0.240      131.949       22.568        0.029      342.758       18.391      864.036
10/18/2013  18:06:00      106.668       68.690       14.603       60.046       43.089       38.055     3605.522     1856.673     1448.185        1.161        0.346      126.872       27.993        0.049      342.770       18.411      864.044
10/18/2013  18:07:00       80.309       63.948       14.326       51.166       51.369       55.008     2617.967     2638.748     3025.849        0.951        0.414      102.659       20.740        0.041      342.712       18.312      864.060
10/18/2013  18:08:00      138.277       88.648       17.701       52.512       48.922       36.793     2757.474     2393.375     1353.746        1.690        0.325      164.253       26.735        0.026      342.653       18.211      864.072
10/18/2013  18:09:00      122.633       64.808       19.677       57.737       48.409       37.669     3333.511     2343.389     1418.958        1.336        0.355      138.705       31.042        0.050      342.684       18.265      864.079
10/18/2013  18:10:00       66.767       51.364       -2.507       61.396       61.407       38.124     3769.507     3770.809     1453.417        0.805        0.450       84.239       35.610        0.179      342.621       18.158      864.106
10/18/2013  18:11:00      103.070       76.305       17.769       77.281       61.114       40.112     5972.375     3734.942     1608.973        1.404        0.566      128.241       25.412        0.039      342.634       18.181      864.112
10/18/2013  18:12:00      145.188       86.983       32.161       57.173       37.769       38.275     3268.806     1426.532     1465.007        1.792        0.308      169.250       24.347        0.021      342.660       18.224      864.115
10/18/2013  18:13:00       98.273       68.003       14.163       56.543       48.493       41.142     3197.152     2351.565     1692.643        1.086        0.362      119.507       24.746        0.043      342.588       18.102      864.120
10/18/2013  18:14:00       59.433       51.740        3.997       52.425       52.538       28.357     2748.415     2760.226      804.100        0.627        0.316       78.800       15.726        0.040      342.519       17.985      864.118
10/18/2013  18:15:00       67.694       63.522        8.164       56.839       39.697       25.457     3230.661     1575.868      648.062        0.707        0.273       92.831       16.309        0.031      342.485       17.929      864.132
10/18/2013  18:16:00      112.300       74.880       15.380       59.933       44.842       35.976     3591.932     2010.819     1294.284        1.267        0.345      134.975       30.275        0.050      342.542       18.024      864.143
10/18/2013  18:17:00       44.245       52.017        9.588       52.659       38.658       31.787     2773.019     1494.464     1010.431        0.502        0.264       68.289       24.210        0.126      342.447       17.863      864.152
10/18/2013  18:18:00       93.068       67.518       28.089       49.359       45.979       46.983     2436.346     2114.086     2207.449        1.038        0.338      114.980       33.054        0.083      342.475       17.909      864.163
10/18/2013  18:19:00       96.280       88.375        5.855       59.006       56.831       43.648     3481.674     3229.723     1905.179        1.286        0.431      130.690       38.401        0.086      342.486       17.928      864.166
10/18/2013  18:20:00       86.429       77.793       11.024       56.457       63.496       42.583     3187.361     4031.774     1813.342        1.134        0.452      116.282       38.670        0.111      342.425       17.824      864.180
10/18/2013  18:21:00      119.747       73.201       23.130       69.179       42.568       38.084     4785.678     1812.035     1450.399        1.414        0.402      140.348       32.773        0.055      342.479       17.916      864.191
10/18/2013  18:22:00       60.481       55.998       21.071       55.133       39.773       33.952     3039.654     1581.885     1152.748        0.651        0.289       82.424       23.812        0.083      342.403       17.787      864.205
10/18/2013  18:23:00       71.613       60.746        0.666       50.258       43.323       31.444     2525.832     1876.864      988.716        0.710        0.270       93.907       21.497        0.052      342.360       17.714      864.216
10/18/2013  18:24:00       97.504       69.800       19.756       58.199       37.090       35.216     3387.127     1375.669     1240.171        1.039        0.300      119.913       25.593        0.046      342.321       17.648      864.232
10/18/2013  18:25:00       83.866       58.477       12.511       48.093       40.076       37.087     2312.893     1606.053     1375.458        0.795        0.265      102.240       22.672        0.049      342.321       17.648      864.243
10/18/2013  18:26:00       57.955       76.243       -4.257       45.125       62.925       36.103     2036.256     3959.498     1303.419        0.824        0.365       95.769       34.227        0.128      342.329       17.661      864.257
10/18/2013  18:27:00       69.918      110.444        1.078       59.176       61.140       43.915     3501.817     3738.140     1928.516        1.313        0.458      130.715       33.198        0.065      342.360       17.714      864.273
10/18/2013  18:28:00       61.625       64.578        4.409       56.007       45.221       39.013     3136.757     2044.977     1521.997        0.734        0.335       89.263       27.416        0.094      342.289       17.595      864.304
10/18/2013  18:29:00       73.219       91.696       -7.685       63.827       46.727       34.910     4073.876     2183.392     1218.693        1.065        0.374      117.343       32.335        0.076      342.273       17.567      864.331
10/18/2013  18:30:00      101.510       81.637       11.953       71.648       51.493       46.296     5133.394     2651.512     2143.283        1.352        0.496      130.265       29.136        0.050      342.223       17.480      864.350
10/18/2013  18:31:00       66.512      110.795       -5.587       51.996       55.681       34.508     2703.553     3100.364     1190.794        1.186        0.350      129.226       36.586        0.080      342.237       17.506      864.379
10/18/2013  18:32:00       52.968       72.451       -9.091       42.321       52.573       38.896     1791.038     2763.869     1512.933        0.710        0.303       89.748       32.152        0.128      342.212       17.464      864.402
10/18/2013  18:33:00       46.592       75.677      -10.650       49.953       38.366       27.920     2495.323     1471.988      779.551        0.638        0.237       88.870       21.422        0.058      342.184       17.415      864.418
10/18/2013  18:34:00       43.503       77.741       -0.950       34.897       49.061       32.924     1217.821     2406.942     1083.974        0.632        0.235       89.085       30.871        0.120      342.183       17.413      864.428
10/18/2013  18:35:00       52.558      138.173       -8.914       42.611       96.549       38.015     1815.692     9321.694     1445.119        1.726        0.629      147.831       46.442        0.099      342.198       17.438      864.440
10/18/2013  18:36:00       44.576       66.387       -9.574       42.904       42.977       28.140     1840.771     1846.993      791.836        0.548        0.224       79.964       26.228        0.108      342.062       17.210      864.446
10/18/2013  18:37:00       41.978       62.806        1.440       35.109       43.222       38.273     1232.661     1868.159     1464.800        0.514        0.228       75.543       30.804        0.166      342.036       17.165      864.460
10/18/2013  18:38:00       97.886      110.337       -1.594       58.477       51.595       54.939     3419.594     2662.007     3018.287        1.543        0.455      147.499       33.914        0.053      342.218       17.475      864.471
10/18/2013  18:39:00       61.725       83.063       -4.277       48.388       57.769       35.370     2341.394     3337.209     1251.063        0.883        0.346      103.486       32.443        0.098      342.124       17.313      864.485
10/18/2013  18:40:00       68.428       59.842       11.356       52.436       22.224       30.402     2749.564      493.921      924.293        0.628        0.208       90.903       17.244        0.036      342.093       17.261      864.493
10/18/2013  18:41:00       46.245       45.181       -3.205       38.607       37.889       24.487     1490.487     1435.540      599.624        0.386        0.176       64.653       18.507        0.082      341.962       17.040      864.507
10/18/2013  18:42:00       46.168       63.682       -2.730       35.108       41.846       30.608     1232.601     1751.054      936.819        0.506        0.196       78.657       26.184        0.111      342.007       17.116      864.528
10/18/2013  18:43:00       54.979       88.227       -6.914       55.344       54.820       38.841     3063.014     3005.200     1508.662        0.921        0.379      103.955       33.240        0.102      342.023       17.141      864.537
10/18/2013  18:44:00       67.341       71.398       -0.376       45.963       53.815       34.413     2112.575     2896.083     1184.246        0.791        0.310       98.145       33.813        0.119      341.992       17.091      864.546
10/18/2013  18:45:00       27.085       41.545        0.999       28.539       32.674       19.285      814.447     1067.591      371.909        0.236        0.113       49.594       11.677        0.055      341.954       17.026      864.560
10/18/2013  18:46:00       50.758       33.580        1.607       43.250       23.143       22.611     1870.565      535.614      511.254        0.331        0.146       60.860       14.074        0.053      341.946       17.013      864.568
10/18/2013  18:47:00       91.736       53.748       18.915       34.311       24.745       21.842     1177.248      612.300      477.053        0.696        0.113      106.322       14.617        0.019      342.024       17.145      864.582
10/18/2013  18:48:00       80.571       61.782       12.365       44.243       28.923       23.911     1957.447      836.543      571.747        0.691        0.168      101.532       20.576        0.041      342.001       17.106      864.598
10/18/2013  18:49:00       35.614       35.245       -0.264       28.373       28.697       17.752      805.002      823.496      315.130        0.223        0.097       50.105       17.817        0.126      341.932       16.990      864.609
10/18/2013  18:50:00       11.731       32.864       -5.913       17.328       22.241       14.727      300.265      494.648      216.882        0.113        0.051       34.895       11.211        0.103      341.917       16.963      864.633
10/18/2013  18:51:00       16.513       36.208       -5.438       26.737       23.132       17.882      714.883      535.076      319.770        0.159        0.078       39.796       17.394        0.191      341.939       16.999      864.636
10/18/2013  18:52:00       26.779       70.669      -17.042       24.503       32.825       14.049      600.397     1077.511      197.367        0.394        0.094       75.573       15.847        0.044      341.992       17.092      864.648
10/18/2013  18:53:00       28.708       62.246      -15.943       23.578       27.295       16.635      555.945      745.034      276.710        0.327        0.079       68.547       12.825        0.035      342.000       17.103      864.663
10/18/2013  18:54:00       17.556       63.038       -2.331       38.260       19.322       22.289     1463.864      373.345      496.790        0.331        0.117       65.437       18.320        0.078      341.997       17.099      864.676
10/18/2013  18:55:00       -4.172       41.235      -11.211       19.784       15.582        9.623      391.417      242.803       92.597        0.128        0.036       41.446        8.149        0.039      341.979       17.069      864.694
10/18/2013  18:56:00        1.942       68.475      -13.563       16.103       22.535        9.313      259.319      507.836       86.739        0.287        0.043       68.502       11.752        0.029      341.945       17.011      864.702
10/18/2013  18:57:00      -19.620       99.986      -24.673       16.416       26.237       11.265      269.473      688.375      126.900        0.604        0.054      101.893       13.518        0.018      341.904       16.941      864.726
10/18/2013  18:58:00       -2.028      117.899      -24.801       28.665       26.707       14.399      821.675      713.253      207.338        0.813        0.087      117.916       12.653        0.012      341.917       16.962      864.736
10/18/2013  18:59:00       14.139       99.218      -19.527       31.830       48.984       15.578     1013.155     2399.421      242.678        0.704        0.183      100.221       18.570        0.034      341.896       16.928      864.757
10/18/2013  19:00:00       11.435      117.622      -22.952       33.960       31.628       18.090     1153.302     1000.302      327.249        0.849        0.124      118.177       16.488        0.019      341.941       17.004      864.762
10/18/2013  19:01:00       14.850      142.031      -22.069       33.885       52.197       18.516     1148.192     2724.490      342.843        1.255        0.211      142.805       22.715        0.025      341.912       16.954      864.781
10/18/2013  19:02:00        5.112      121.265      -24.205       34.697       26.874       14.783     1203.889      722.211      218.525        0.873        0.107      121.373       16.585        0.019      341.902       16.938      864.793
10/18/2013  19:03:00      -25.850      108.526      -22.651       26.372       26.981       13.075      695.506      727.952      170.960        0.728        0.080      111.562       10.727        0.009      341.923       16.973      864.812
10/18/2013  19:04:00      -18.856      145.230      -27.697       36.903       35.356       16.959     1361.837     1250.018      287.606        1.256        0.145      146.449       16.971        0.013      341.893       16.922      864.818
10/18/2013  19:05:00      -51.444       99.936      -21.508       32.383       35.259       16.592     1048.659     1243.185      275.301        0.783        0.128      112.399       17.674        0.025      341.840       16.832      864.828
10/18/2013  19:06:00      -50.735       54.858      -11.769       31.658       31.221       20.242     1002.249      974.755      409.724        0.405        0.119       74.722       19.531        0.068      341.874       16.889      864.847
10/18/2013  19:07:00      -67.651       32.561      -23.496       29.657       33.492       16.765      879.515     1121.714      281.070        0.424        0.114       75.079       16.202        0.047      342.068       17.219      864.852
10/18/2013  19:08:00      -78.376       71.782      -21.407       27.572       28.106       18.806      760.231      789.966      353.682        0.683        0.095      106.280       10.157        0.009      341.863       16.872      864.862
10/18/2013  19:09:00      -35.341       96.994      -14.927       41.233       26.995       19.605     1700.136      728.716      384.338        0.685        0.141      103.231       19.513        0.036      341.849       16.846      864.865
10/18/2013  19:10:00      -35.510      104.085      -22.968       22.947       36.238       24.639      526.572     1313.194      607.082        0.753        0.122      109.976       23.154        0.044      341.895       16.925      864.871
10/18/2013  19:11:00      -55.128       67.662      -16.636       27.972       29.352       20.053      782.413      861.546      402.116        0.497        0.102       87.277       19.902        0.052      341.860       16.866      864.874
10/18/2013  19:12:00      -70.871       73.374      -14.379       41.968       28.360       21.392     1761.344      804.297      457.609        0.682        0.151      102.012       20.506        0.040      341.926       16.977      864.881
10/18/2013  19:13:00      -59.045       55.720      -16.433       39.516       27.154       19.818     1561.503      737.323      392.739        0.478        0.135       81.185       14.173        0.030      341.978       17.066      864.889
10/18/2013  19:14:00      -63.363      103.541      -19.187       31.975       30.646       21.399     1022.405      939.150      457.938        0.876        0.121      121.390       17.987        0.022      341.929       16.983      864.898
10/18/2013  19:15:00      -21.470       73.749       -8.826       26.257       23.756       17.475      689.439      564.334      305.368        0.377        0.078       76.810       13.792        0.032      341.903       16.939      864.912
10/18/2013  19:16:00      -19.154      116.949      -26.111       16.868       23.868       11.784      284.528      569.678      138.860        0.786        0.050      118.508       11.863        0.010      341.839       16.832      864.923
10/18/2013  19:17:00      -43.502       92.377      -14.723       28.270       59.878       21.001      799.179     3585.344      441.038        0.773        0.241      102.107       23.204        0.052      341.751       16.679      864.933
10/18/2013  19:18:00      -63.463       37.114       -8.507       34.847       31.338       22.073     1214.297      982.099      487.219        0.408        0.134       73.519       17.922        0.059      341.784       16.737      864.943
10/18/2013  19:19:00      -37.794       93.785      -13.797       39.574       30.847       19.793     1566.117      951.520      391.782        0.666        0.145      101.113       17.025        0.028      341.907       16.945      864.946
10/18/2013  19:20:00      -50.407       35.249      -11.518       21.980       23.880       19.314      483.111      570.272      373.032        0.267        0.071       61.509       10.591        0.030      341.789       16.747      864.956
10/18/2013  19:21:00      -65.609       31.097      -11.214       24.742       38.315       18.014      612.161     1468.063      324.493        0.390        0.120       72.605       18.391        0.064      341.684       16.567      864.958
10/18/2013  19:22:00      -57.403       76.983      -21.502       26.723       20.731       14.314      714.126      429.791      204.878        0.552        0.067       96.028       13.104        0.019      341.708       16.609      864.975
10/18/2013  19:23:00      -59.769       28.049      -11.031       20.341       25.643       14.688      413.756      657.549      215.726        0.288        0.064       66.024        9.607        0.021      341.735       16.654      864.976
10/18/2013  19:24:00      -56.578       52.778      -27.314       27.510       31.290       21.336      756.818      979.035      455.217        0.446        0.110       77.373        9.763        0.016      341.680       16.560      864.987
10/18/2013  19:25:00      -73.991      -23.566       -2.930       34.511       29.755       17.069     1191.041      885.368      291.337        0.420        0.118       77.653       15.241        0.039      341.294       15.906      864.984
10/18/2013  19:26:00      -29.615       12.716        6.859       35.712       30.238       22.031     1275.320      914.349      485.377        0.188        0.134       32.229       15.644        0.236      341.345       15.993      865.000
10/18/2013  19:27:00      -37.375        4.593       -7.912       23.763       22.117       16.834      564.659      489.150      283.391        0.141        0.067       37.656       10.518        0.078      341.419       16.119      865.001
10/18/2013  19:28:00      -71.565       23.855       -7.134       35.395       30.740       29.355     1252.828      944.959      861.692        0.440        0.153       75.436       23.801        0.100      341.529       16.304      865.015
10/18/2013  19:29:00      -67.656       11.300       -5.202       28.421       36.615       21.970      807.730     1340.640      482.668        0.368        0.132       68.593       13.430        0.038      341.458       16.185      865.023
10/18/2013  19:30:00      -45.033        1.034       -0.484       33.514       31.573       16.569     1123.219      996.858      274.515        0.221        0.120       45.045       13.915        0.095      341.245       15.824      865.030
10/18/2013  19:31:00     -112.148      -45.499      -12.757       24.524       16.399       14.559      601.405      268.930      211.966        0.795        0.054      121.026        7.395        0.004      341.028       15.456      865.046
10/18/2013  19:32:00      -91.438      -45.856       -4.047       22.563       25.559       12.765      509.097      653.249      162.934        0.590        0.066      102.292        5.757        0.003      340.990       15.392      865.051
10/18/2013  19:33:00      -30.426      -16.240        3.327       34.095       32.171       20.666     1162.449     1034.973      427.104        0.191        0.131       34.489       16.529        0.230      340.818       15.101      865.069
10/18/2013  19:34:00      -50.301      -17.843       -2.343       42.211       29.700       20.254     1781.801      882.070      410.221        0.296        0.154       53.372       13.810        0.067      340.921       15.275      865.083
10/18/2013  19:35:00      -47.498        3.684       -9.210       40.929       30.536       25.072     1675.148      932.461      628.583        0.279        0.162       47.640       20.224        0.180      341.106       15.589      865.087
10/18/2013  19:36:00      -67.795       20.889      -14.441       28.087       35.521       18.997      788.870     1261.727      360.881        0.383        0.121       70.940       11.042        0.024      341.404       16.094      865.098
10/18/2013  19:37:00     -103.669      -22.409       -7.538       30.366       23.824       11.842      922.076      567.577      140.241        0.647        0.081      106.063        9.102        0.007      341.018       15.439      865.102
10/18/2013  19:38:00      -85.767      -13.235      -12.572       23.569       18.826       12.595      555.481      354.424      158.641        0.438        0.053       86.783        7.817        0.008      340.840       15.137      865.117
10/18/2013  19:39:00      -68.002       -8.260      -12.159       26.146       14.964       11.954      683.602      223.913      142.890        0.295        0.053       68.502       10.143        0.022      340.714       14.926      865.128
10/18/2013  19:40:00      -72.211       -1.845      -13.297       15.391       13.643       11.252      236.883      186.132      126.612        0.297        0.027       72.234        5.470        0.006      340.758       15.000      865.140
10/18/2013  19:41:00      -71.502        3.817      -12.825       18.297       10.642        8.666      334.774      113.257       75.102        0.291        0.026       71.604        7.692        0.012      340.803       15.076      865.144
10/18/2013  19:42:00      -92.402       -5.323      -16.749       21.457       16.931       10.903      460.407      286.647      118.877        0.486        0.043       92.555        6.124        0.004      340.897       15.236      865.158
10/18/2013  19:43:00      -92.350       -2.029       -6.254       31.998       17.441       17.362     1023.841      304.205      301.430        0.510        0.081       92.373       15.785        0.029      340.753       14.990      865.161
10/18/2013  19:44:00      -95.084       -5.066      -11.485       26.599       13.124       12.278      707.501      172.236      150.756        0.511        0.052       95.219       10.370        0.012      340.812       15.091      865.165
10/18/2013  19:45:00      -71.741       -9.963      -11.546       28.360       20.790       12.437      804.277      432.226      154.679        0.339        0.070       72.429       15.868        0.048      340.786       15.046      865.172
10/18/2013  19:46:00      -67.647      -15.813      -13.097       25.819       15.066       12.914      666.633      226.984      166.776        0.303        0.053       69.471       13.876        0.040      340.624       14.772      865.171
10/18/2013  19:47:00     -109.588      -10.859      -15.586       19.086       14.259       13.561      364.290      203.333      183.908        0.656        0.038      110.125       11.291        0.011      340.618       14.763      865.169
10/18/2013  19:48:00     -105.148      -12.239      -12.386       17.918       10.739       10.942      321.041      115.318      119.731        0.596        0.028      105.858        9.042        0.007      340.561       14.666      865.176
10/18/2013  19:49:00      -85.754       -5.753      -14.369       14.103       12.385       10.291      198.898      153.379      105.911        0.403        0.023       85.947        5.058        0.003      340.479       14.528      865.190
10/18/2013  19:50:00     -115.544       -9.631      -19.255       22.171       17.302       13.422      491.535      299.346      180.163        0.739        0.049      115.945        6.481        0.003      340.393       14.382      865.195
10/18/2013  19:51:00      -94.289      -13.297       -9.283       33.455       18.422       15.424     1119.268      339.382      237.910        0.542        0.085       95.222       14.589        0.023      340.294       14.213      865.201
10/18/2013  19:52:00      -91.755      -15.567       -8.739       34.674       22.431       16.268     1202.297      503.163      264.656        0.535        0.099       93.066       11.379        0.015      340.277       14.187      865.212
10/18/2013  19:53:00     -108.429       -4.617      -13.902       24.789       18.449       19.106      614.506      340.379      365.032        0.665        0.066      108.527       16.742        0.024      340.386       14.371      865.213
10/18/2013  19:54:00      -86.802      -16.945       -5.795       22.198       20.946       16.656      492.747      438.743      277.415        0.453        0.060       88.441       12.259        0.019      340.361       14.328      865.227
10/18/2013  19:55:00     -112.386       -2.862      -15.574       28.384       19.958       17.749      805.668      398.315      315.035        0.720        0.076      112.423       14.288        0.016      340.364       14.334      865.228
10/18/2013  19:56:00     -117.072       -6.413      -15.014       29.111       17.802       17.782      847.474      316.898      316.197        0.773        0.074      117.247       14.593        0.015      340.306       14.236      865.242
10/18/2013  19:57:00     -123.877       -8.186       -8.027       33.844       21.008       17.873     1145.419      441.353      319.435        0.869        0.095      124.147       18.686        0.023      340.240       14.122      865.242
10/18/2013  19:58:00     -111.293        0.535      -14.439       47.668       23.116       18.800     2272.231      534.336      353.435        0.788        0.158      111.294       19.176        0.030      340.196       14.049      865.254
10/18/2013  19:59:00     -123.868        4.323      -19.789       31.460       21.889       19.625      989.720      479.117      385.150        0.880        0.093      123.943       16.616        0.018      340.322       14.262      865.255
10/18/2013  20:00:00      -43.342        1.249       -8.410       38.791       18.228       14.093     1504.735      332.251      198.622        0.199        0.102       43.360       17.350        0.160      340.223       14.094      865.266
10/18/2013  20:01:00      -73.578       -2.063      -15.576       20.014       18.180       14.518      400.554      330.499      210.768        0.330        0.047       73.607        8.120        0.012      340.281       14.195      865.272
10/18/2013  20:02:00      -74.224       -1.460      -10.975       18.606       25.539       10.633      346.183      652.226      113.051        0.337        0.056       74.239        6.873        0.009      340.240       14.124      865.272
10/18/2013  20:03:00      -79.115      -31.788       -3.283       24.573       28.970       19.753      603.815      839.255      390.162        0.456        0.092       85.262       17.064        0.040      340.121       13.922      865.290
10/18/2013  20:04:00      -87.259      -32.420       -9.218       28.137       29.642       14.282      791.668      878.656      203.977        0.531        0.094       93.087       10.732        0.013      340.014       13.742      865.295
10/18/2013  20:05:00      -77.902      -24.094       -6.846       22.901       27.932       12.405      524.453      780.182      153.876        0.408        0.073       81.543       11.574        0.020      340.036       13.779      865.303
10/18/2013  20:06:00      -88.123      -25.926       -1.836       31.680       24.534       19.265     1003.639      601.919      371.139        0.521        0.099       91.858       18.037        0.039      339.979       13.682      865.301
10/18/2013  20:07:00      -73.148      -30.228       -6.742       25.360       25.330       15.599      643.130      641.628      243.315        0.392        0.076       79.148       13.430        0.029      339.922       13.588      865.312
10/18/2013  20:08:00     -105.561      -22.271       -9.575       24.595       26.750       14.987      604.924      715.550      224.625        0.664        0.077      107.885       11.272        0.011      339.904       13.559      865.320
10/18/2013  20:09:00      -87.812      -32.287       -4.719       23.753       26.248       17.257      564.224      688.946      297.800        0.516        0.078       93.559       11.938        0.016      339.871       13.503      865.324
10/18/2013  20:10:00     -108.018      -14.465      -11.454       22.919       20.271       11.707      525.301      410.924      137.054        0.654        0.054      108.983        9.494        0.008      339.851       13.466      865.328
10/18/2013  20:11:00     -110.585       -4.995       -9.407       35.636       25.088       16.498     1269.945      629.404      272.196        0.726        0.109      110.697       18.356        0.027      339.912       13.572      865.332
10/18/2013  20:12:00     -131.024        4.502      -14.611       41.749       24.118       21.146     1743.012      581.658      447.173        1.009        0.139      131.101       16.904        0.017      339.931       13.602      865.343
10/18/2013  20:13:00     -141.811        0.797      -20.220       38.478       35.715       18.387     1480.525     1275.557      338.100        1.181        0.155      141.813       11.434        0.007      339.893       13.538      865.343
10/18/2013  20:14:00     -167.768       23.279      -22.454       46.230       34.184       24.827     2137.172     1168.556      616.395        1.656        0.196      169.376       20.239        0.014      339.845       13.458      865.349
10/18/2013  20:15:00     -164.828        0.607      -27.428       47.982       29.826       25.814     2302.297      889.607      666.388        1.589        0.193      164.829       24.538        0.022      339.798       13.378      865.361
10/18/2013  20:16:00     -136.184      -10.512      -17.805       42.342       33.289       25.849     1792.850     1108.154      668.182        1.127        0.178      136.590       24.020        0.031      339.664       13.152      865.374
10/18/2013  20:17:00     -122.552      -28.829      -13.238       41.338       46.214       25.592     1708.806     2135.729      654.930        1.026        0.225      125.897       18.874        0.022      339.684       13.187      865.378
10/18/2013  20:18:00      -98.895      -42.122      -17.532       32.052       29.283       21.473     1027.346      857.486      461.073        0.710        0.117      107.491       16.358        0.023      339.636       13.104      865.387
10/18/2013  20:19:00     -130.361      -19.730      -10.661       46.471       43.762       23.520     2159.537     1915.136      553.167        1.106        0.231      131.846       23.330        0.031      339.649       13.127      865.380
10/18/2013  20:20:00      -94.279        3.308      -17.878       48.193       20.230       19.005     2322.524      409.256      361.175        0.616        0.155       94.337       20.910        0.049      339.611       13.063      865.391
10/18/2013  20:21:00     -100.851       -6.146      -17.269       21.787       23.030       15.892      474.675      530.362      252.541        0.588        0.063      101.038       13.546        0.018      339.707       13.226      865.398
10/18/2013  20:22:00      -85.080       -3.293      -13.547       20.850       22.887       16.525      434.709      523.817      273.079        0.433        0.062       85.144        8.206        0.009      339.615       13.070      865.407
10/18/2013  20:23:00      -83.833       13.394       -8.627       23.626       23.470       18.681      558.193      550.838      348.990        0.437        0.073       84.896       12.238        0.021      339.837       13.445      865.416
10/18/2013  20:24:00      -81.794       -4.877      -13.563       23.890       24.838       18.734      570.726      616.931      350.969        0.422        0.077       81.940       12.670        0.024      339.870       13.500      865.422
10/18/2013  20:25:00      -89.050      -10.813      -19.653       17.128       33.766       16.907      293.372     1140.159      285.855        0.508        0.086       89.705       10.183        0.013      339.683       13.185      865.433
10/18/2013  20:26:00      -97.424      -10.158      -16.306       24.378       29.695       17.405      594.296      881.812      302.918        0.582        0.089       97.952        6.423        0.004      339.863       13.489      865.446
10/18/2013  20:27:00      -84.083       -8.204      -14.649       21.014       18.601       14.071      441.582      345.994      197.979        0.417        0.049       84.482        8.698        0.011      339.788       13.362      865.457
10/18/2013  20:28:00      -66.944       -5.097      -13.380       24.455       18.532       11.454      598.052      343.418      131.196        0.288        0.054       67.138        6.688        0.010      339.764       13.323      865.464
10/18/2013  20:29:00      -78.462       -6.936      -17.419       26.507       23.107       16.560      702.606      533.933      274.245        0.401        0.076       78.768       13.292        0.028      339.826       13.427      865.474
10/18/2013  20:30:00      -52.427        0.776       -8.874       27.073       19.704       18.039      732.942      388.264      325.417        0.214        0.072       52.433       17.608        0.113      339.711       13.232      865.482
10/18/2013  20:31:00      -85.115       -4.118      -20.044       17.264       16.574       13.706      298.049      274.702      187.864        0.421        0.038       85.214       10.638        0.016      339.712       13.233      865.484
10/18/2013  20:32:00      -87.583       -8.630      -11.090       30.721       21.112       16.302      943.806      445.696      265.771        0.476        0.083       88.007       10.952        0.015      339.594       13.035      865.490
10/18/2013  20:33:00      -72.883        5.844      -14.884       26.005       27.746       15.401      676.267      769.847      237.201        0.363        0.084       73.117       13.566        0.034      339.751       13.299      865.497
10/18/2013  20:34:00      -68.583       14.270      -11.071       23.033       23.668       15.436      530.534      560.156      238.271        0.318        0.066       70.051        9.793        0.020      339.785       13.356      865.504
10/18/2013  20:35:00      -82.665       -6.378      -11.572       21.612       23.696       14.969      467.098      561.518      224.080        0.413        0.063       82.911        9.856        0.014      339.727       13.259      865.517
10/18/2013  20:36:00      -90.805       -5.575      -12.004       21.254       23.928       14.797      451.740      572.549      218.950        0.483        0.062       90.976       13.313        0.021      339.637       13.106      865.510
10/18/2013  20:37:00      -88.331      -12.594      -13.829       20.008       18.785       19.502      400.315      352.891      380.343        0.464        0.057       89.225       11.220        0.016      339.553       12.966      865.509
10/18/2013  20:38:00      -79.333       -8.545      -15.749       26.189       26.451       15.840      685.878      699.678      250.920        0.413        0.082       79.792       12.743        0.026      339.594       13.034      865.510
10/18/2013  20:39:00      -80.430        9.314      -17.517       21.551       18.451       11.613      464.451      340.430      134.863        0.390        0.047       80.968        8.846        0.012      339.635       13.104      865.515
10/18/2013  20:40:00      -85.989       -9.865      -11.295       18.453       27.643       17.743      340.520      764.120      314.821        0.452        0.071       86.553       12.375        0.020      339.777       13.342      865.516
10/18/2013  20:41:00      -95.311       13.178      -17.484       21.401       35.398       18.934      458.006     1253.017      358.479        0.582        0.103       96.218       13.386        0.019      339.782       13.351      865.522
10/18/2013  20:42:00      -93.293      -12.218      -21.373       15.479       15.671       11.918      239.608      245.579      142.047        0.497        0.031       94.090        6.253        0.004      339.441       12.776      865.530
10/18/2013  20:43:00      -98.237        6.410      -16.214       22.258       21.404       13.426      495.422      458.130      180.245        0.554        0.057       98.445       10.023        0.010      339.398       12.703      865.539
10/18/2013  20:44:00      -86.092      -10.587      -15.743       16.755       18.963       11.892      280.741      359.611      141.413        0.428        0.039       86.741        3.322        0.001      339.458       12.804      865.547
10/18/2013  20:45:00     -101.307       -6.096      -19.631       28.610       20.036       18.293      818.553      401.430      334.629        0.612        0.078      101.490       12.496        0.015      339.487       12.853      865.561
10/18/2013  20:46:00     -110.910        4.828      -21.285       28.500       21.911       14.089      812.269      480.101      198.490        0.713        0.075      111.015       12.196        0.012      339.415       12.732      865.559
10/18/2013  20:47:00     -111.243       -1.438      -13.814       38.906       28.463       20.490     1513.682      810.130      419.860        0.766        0.137      111.252       18.981        0.029      339.426       12.752      865.560
10/18/2013  20:48:00      -99.422      -10.910      -11.104       43.891       32.087       23.435     1926.413     1029.556      549.214        0.682        0.175      100.018       21.154        0.045      339.311       12.558      865.556
10/18/2013  20:49:00      -69.724       -6.221       -7.985       42.578       27.240       22.119     1812.884      741.998      489.272        0.400        0.152       70.001       21.827        0.097      339.311       12.558      865.558
10/18/2013  20:50:00     -104.550       -3.887      -11.638       40.266       24.664       17.800     1621.336      608.317      316.846        0.681        0.127      104.622       16.334        0.024      339.313       12.559      865.565
10/18/2013  20:51:00      -96.325        1.264       -6.624       38.528       30.522       22.127     1484.424      931.607      489.614        0.611        0.145       96.333       20.322        0.045      339.206       12.381      865.562
10/18/2013  20:52:00      -89.333      -12.723       -8.069       35.759       30.895       18.417     1278.678      954.477      339.199        0.539        0.129       90.234       15.300        0.029      339.226       12.414      865.571
10/18/2013  20:53:00      -75.384       -6.006      -15.989       23.338       25.392       16.841      544.645      644.752      283.603        0.372        0.074       75.623       13.216        0.031      339.250       12.455      865.565
10/18/2013  20:54:00      -90.473      -13.432      -16.432       17.830       24.897       12.164      317.899      619.853      147.953        0.486        0.054       91.465        6.403        0.005      339.322       12.576      865.562
10/18/2013  20:55:00      -80.428      -11.365      -22.332       17.288       20.217       17.972      298.880      408.738      322.983        0.406        0.052       81.227       10.107        0.015      339.295       12.529      865.570
10/18/2013  20:56:00      -98.729      -26.277      -21.369       21.253       17.503       17.111      451.709      306.345      292.790        0.597        0.053      102.166        7.160        0.005      339.183       12.342      865.568
10/18/2013  20:57:00     -105.132      -25.407      -20.235       33.489       22.054       14.894     1121.482      486.370      221.827        0.697        0.091      108.158        5.226        0.002      339.194       12.360      865.566
10/18/2013  20:58:00     -122.779      -19.252      -15.142       33.117       27.320       18.831     1096.743      746.370      354.624        0.894        0.110      124.280       16.095        0.017      339.124       12.243      865.558
10/18/2013  20:59:00     -114.251       -3.265      -11.578       54.875       34.977       26.895     3011.214     1223.378      723.367        0.908        0.248      114.298       28.923        0.064      339.077       12.163      865.569
10/18/2013  21:00:00     -133.212        2.372      -15.784       41.579       41.385       29.337     1728.833     1712.728      860.650        1.115        0.215      133.233       24.746        0.034      339.066       12.145      865.562
10/18/2013  21:01:00     -119.599      -15.389       -8.918       38.316       31.302       23.687     1468.126      979.836      561.093        0.881        0.150      120.585       22.264        0.034      339.042       12.106      865.571
10/18/2013  21:02:00     -149.145      -14.856      -15.485       54.512       27.052       23.200     2971.610      731.808      538.248        1.347        0.212      149.883       27.141        0.033      339.133       12.258      865.569
10/18/2013  21:03:00     -114.941      -27.714      -10.460       43.719       29.778       20.087     1911.356      886.734      403.474        0.864        0.160      118.235       19.104        0.026      339.043       12.105      865.580
10/18/2013  21:04:00     -102.024       -6.044      -14.634       35.127       27.174       22.650     1233.917      738.453      513.024        0.657        0.124      102.203       16.319        0.025      339.076       12.162      865.586
10/18/2013  21:05:00      -93.649      -19.287       -6.955       29.221       44.981       15.167      853.878     2023.325      230.032        0.615        0.155       95.614       11.760        0.015      339.135       12.261      865.599
10/18/2013  21:06:00     -110.572        1.123      -15.156       48.512       30.936       19.449     2353.421      957.020      378.250        0.807        0.184      110.577       22.192        0.040      339.121       12.238      865.616
10/18/2013  21:07:00     -106.428      -11.031      -11.121       41.700       34.258       27.339     1738.900     1173.610      747.426        0.762        0.183      106.998       24.562        0.053      339.026       12.080      865.623
10/18/2013  21:08:00      -97.047       -0.836       -6.135       48.521       36.922       21.986     2354.292     1363.260      483.384        0.683        0.210       97.051       20.992        0.047      338.990       12.016      865.635
10/18/2013  21:09:00     -119.655        4.051      -10.915       45.449       33.538       27.545     2065.572     1124.819      758.711        0.920        0.197      119.723       29.005        0.059      338.981       12.003      865.652
10/18/2013  21:10:00     -119.003      -15.872      -13.511       34.499       30.315       21.337     1190.199      918.982      455.252        0.858        0.128      120.056       16.852        0.020      338.941       11.934      865.661
10/18/2013  21:11:00     -116.046      -15.985       -7.490       35.449       29.425       24.067     1256.652      865.835      579.243        0.824        0.135      117.142       20.003        0.029      338.921       11.901      865.673
10/18/2013  21:12:00     -129.702      -22.580      -18.099       29.970       30.273       20.020      898.216      916.437      400.782        0.994        0.111      131.653       16.265        0.015      338.972       11.986      865.677
10/18/2013  21:13:00     -125.346      -26.425      -13.095       27.425       25.460       19.968      752.124      648.212      398.725        0.919        0.090      128.101       16.450        0.016      338.999       12.032      865.684
10/18/2013  21:14:00     -110.026      -41.419      -10.241       25.996       25.941       16.195      675.814      672.943      262.282        0.777        0.081      117.564        6.670        0.003      338.975       11.991      865.698
10/18/2013  21:15:00      -94.294      -49.485       -4.936       52.423       31.007       19.814     2748.203      961.446      392.602        0.773        0.205      106.490       20.333        0.036      338.905       11.874      865.707
10/18/2013  21:16:00     -101.746      -45.998       -2.809       34.310       44.132       19.611     1177.208     1947.666      384.591        0.799        0.175      111.661       12.421        0.012      338.938       11.930      865.713
10/18/2013  21:17:00     -108.390      -38.609       -5.056       32.085       33.973       20.416     1029.417     1154.160      416.813        0.793        0.130      115.061       19.204        0.028      338.899       11.865      865.732
10/18/2013  21:18:00      -76.688       -9.166        7.483       51.198       32.372       19.874     2621.267     1047.924      394.978        0.504        0.203       77.234       21.048        0.074      338.826       11.740      865.738
10/18/2013  21:19:00     -116.964      -37.916        0.552       29.046       25.859       18.919      843.650      668.674      357.936        0.849        0.094      122.956       16.641        0.018      338.963       11.972      865.745
10/18/2013  21:20:00      -89.545      -17.899        1.933       44.139       25.615       16.628     1948.257      656.104      276.499        0.561        0.144       91.316       19.456        0.045      339.018       12.064      865.750
10/18/2013  21:21:00      -95.339      -34.435       -3.006       32.909       20.973       13.391     1082.997      439.852      179.310        0.599        0.085      101.367       11.683        0.013      339.031       12.086      865.762
10/18/2013  21:22:00     -113.050      -42.938       -2.663       20.366       20.546       13.411      414.769      422.135      179.867        0.782        0.051      120.930        9.907        0.007      339.045       12.111      865.769
10/18/2013  21:23:00     -129.956      -45.079      -11.141       26.125       22.072       14.266      682.490      487.172      203.512        1.021        0.069      137.552        9.744        0.005      338.944       11.941      865.775
10/18/2013  21:24:00     -110.861      -51.155       -2.266       36.231       29.779       16.026     1312.684      886.780      256.841        0.868        0.123      122.095       10.193        0.007      338.849       11.779      865.782
10/18/2013  21:25:00     -129.528      -57.206       -3.148       25.542       28.398       17.276      652.384      806.437      298.454        1.091        0.088      141.598       11.217        0.006      338.847       11.777      865.776
10/18/2013  21:26:00     -105.702      -47.901       -6.689       28.346       20.491       15.995      803.500      419.873      255.842        0.750        0.074      116.049       14.528        0.016      338.811       11.716      865.792
10/18/2013  21:27:00      -77.243      -48.878       -7.703       49.496       27.849       15.191     2449.816      775.541      230.776        0.593        0.173       91.409       13.876        0.023      338.788       11.678      865.798
10/18/2013  21:28:00      -82.153      -68.421       -1.245       45.653       33.442       22.476     2084.166     1118.370      505.183        0.757        0.185      106.914       19.515        0.033      338.760       11.630      865.796
10/18/2013  21:29:00      -78.355      -64.089       -4.605       40.718       34.295       21.174     1657.991     1176.151      448.330        0.677        0.164      101.227       21.658        0.046      338.734       11.586      865.812
10/18/2013  21:30:00      -99.591      -78.759        0.296       41.211       25.820       21.633     1698.356      666.693      467.971        0.948        0.142      126.970       23.656        0.035      338.695       11.521      865.810
10/18/2013  21:31:00     -118.496      -57.974      -11.942       19.101       19.480       14.783      364.852      379.467      218.548        0.925        0.048      131.918        7.618        0.003      338.640       11.429      865.820
10/18/2013  21:32:00     -139.041      -46.837       -7.470       24.916       18.824       13.795      620.824      354.337      190.309        1.137        0.058      146.718       13.453        0.008      338.754       11.620      865.824
10/18/2013  21:33:00      -95.449      -34.199       -0.932       50.466       24.694       18.775     2546.789      609.797      352.501        0.689        0.175      101.391       23.296        0.053      338.625       11.404      865.819
10/18/2013  21:34:00      -96.023      -12.278       -3.619       49.636       29.324       21.644     2463.748      859.881      468.450        0.659        0.190       96.805       25.517        0.069      338.670       11.480      865.824
10/18/2013  21:35:00     -102.024       -1.688       -6.591       48.793       42.103       22.369     2380.793     1772.633      500.392        0.755        0.233      102.038       22.739        0.050      338.712       11.550      865.824
10/18/2013  21:36:00     -106.381       14.167       -9.943       45.909       46.224       28.228     2107.668     2136.642      796.808        0.833        0.252      107.320       21.331        0.040      338.852       11.785      865.820
10/18/2013  21:37:00     -124.862        6.603       -8.318       44.744       38.961       26.151     2002.041     1517.995      683.892        0.995        0.210      125.037       21.215        0.029      338.905       11.873      865.835
10/18/2013  21:38:00     -109.968      -10.641       -6.596       38.733       24.039       19.368     1500.227      577.863      375.105        0.735        0.123      110.482       17.625        0.025      338.787       11.675      865.848
10/18/2013  21:39:00      -65.797      -21.018       -5.031       36.396       36.038       17.463     1324.686     1298.726      304.970        0.386        0.146       69.072        7.671        0.012      338.733       11.584      865.852
10/18/2013  21:40:00      -93.192      -21.516      -14.348       33.922       27.989       17.380     1150.724      783.396      302.052        0.579        0.112       95.644       15.435        0.026      338.799       11.697      865.868
10/18/2013  21:41:00     -102.791      -31.271       -9.074       40.081       46.056       20.560     1606.475     2121.148      422.725        0.789        0.208      107.443       13.227        0.015      338.667       11.474      865.872
10/18/2013  21:42:00      -86.700      -35.395       -2.453       32.281       32.883       20.840     1042.032     1081.314      434.316        0.567        0.128       93.646       13.559        0.021      338.649       11.444      865.890
10/18/2013  21:43:00     -112.482      -28.230      -10.911       34.482       31.926       20.083     1189.014     1019.270      403.346        0.809        0.131      115.970       15.910        0.019      338.647       11.441      865.896
10/18/2013  21:44:00     -102.771      -51.114       -4.094       25.663       18.162       15.271      658.585      329.859      233.205        0.721        0.061      114.781       13.295        0.013      338.636       11.423      865.902
10/18/2013  21:45:00     -117.410      -39.117       -5.485       23.987       15.711       10.777      575.365      246.831      116.142        0.814        0.047      123.755        9.309        0.006      338.605       11.370      865.923
10/18/2013  21:46:00     -107.145      -45.623       -4.469       14.867       16.579       11.925      221.036      274.855      142.216        0.711        0.032      116.454        9.743        0.007      338.630       11.412      865.937
10/18/2013  21:47:00     -105.621      -53.437       -4.511       18.496       17.147       12.181      342.099      294.004      148.376        0.741        0.039      118.370        7.225        0.004      338.626       11.404      865.937
10/18/2013  21:48:00     -109.596      -67.328       -3.521       24.615       21.743       14.013      605.906      472.771      196.368        0.892        0.064      128.625       13.045        0.010      338.601       11.365      865.946
10/18/2013  21:49:00     -114.105      -73.381       -8.122       29.897       24.320       15.578      893.848      591.481      242.666        1.010        0.086      135.664       11.370        0.007      338.566       11.304      865.945
10/18/2013  21:50:00     -116.926      -77.224       -0.364       24.530       20.137       16.719      601.737      405.513      279.517        1.046        0.064      140.126       12.516        0.008      338.438       11.090      865.948
10/18/2013  21:51:00     -103.259      -75.913       -4.174       33.403       24.657       19.325     1115.731      607.976      373.470        0.927        0.105      128.160        4.240        0.001      338.383       10.999      865.954
10/18/2013  21:52:00      -75.784      -66.640        3.584       41.770       38.196       26.686     1744.773     1458.964      712.119        0.706        0.196      100.916       22.381        0.049      338.351       10.943      865.951
10/18/2013  21:53:00      -75.513      -67.443        7.518       63.579       51.693       33.504     4042.295     2672.215     1122.533        0.907        0.392      101.246       34.089        0.113      338.400       11.025      865.964
10/18/2013  21:54:00      -95.402      -80.533        6.582       55.801       46.188       33.620     3113.732     2133.298     1130.306        1.100        0.319      124.848       26.326        0.044      338.483       11.166      865.967
10/18/2013  21:55:00     -121.074      -93.758       -1.769       67.793       47.080       30.566     4595.941     2216.508      934.252        1.560        0.387      153.132       31.166        0.041      338.515       11.217      865.972
10/18/2013  21:56:00     -101.131      -93.633        2.330       62.601       54.233       34.642     3918.944     2941.235     1200.077        1.353        0.403      137.821       34.399        0.062      338.373       10.980      865.977
10/18/2013  21:57:00      -82.045      -79.619        6.977       66.249       47.484       35.601     4388.876     2254.709     1267.401        1.051        0.396      114.327       31.402        0.075      338.429       11.074      865.979
10/18/2013  21:58:00      -92.472      -65.424        5.196       75.352       43.947       35.917     5677.969     1931.344     1290.047        1.088        0.445      113.276       33.497        0.087      338.450       11.109      865.991
10/18/2013  21:59:00      -72.625      -65.539        8.094       56.782       42.030       37.078     3224.180     1766.536     1374.798        0.800        0.318       97.825       33.233        0.115      338.379       10.990      866.001
10/18/2013  22:00:00     -170.303     -121.409       -1.886       47.700       47.441       33.183     2275.326     2250.647     1101.115        2.469        0.281      209.148       31.263        0.022      338.355       10.947      865.999
10/18/2013  22:01:00     -142.311      -91.690        6.472       69.653       50.884       35.721     4851.599     2589.205     1275.975        1.871        0.436      169.291       33.206        0.038      338.449       11.106      866.014
10/18/2013  22:02:00     -128.067      -76.343        6.020       64.171       55.255       31.080     4117.908     3053.153      965.963        1.520        0.407      149.095       31.155        0.044      338.400       11.025      866.007
10/18/2013  22:03:00     -156.455      -74.995        0.138       64.505       45.289       28.018     4160.860     2051.131      785.018        1.855        0.350      173.500       28.876        0.028      338.495       11.183      866.014
10/18/2013  22:04:00     -158.494      -79.020        0.696       47.297       38.759       28.059     2237.011     1502.270      787.300        1.795        0.226      177.100       23.315        0.017      338.516       11.221      866.021
10/18/2013  22:05:00     -138.845     -112.625        6.457       49.230       41.969       32.416     2423.620     1761.361     1050.822        1.862        0.262      178.781       26.596        0.022      338.593       11.349      866.024
10/18/2013  22:06:00     -117.978      -94.521        6.738       60.511       40.717       34.559     3661.548     1657.913     1194.334        1.470        0.326      151.172       34.839        0.053      338.530       11.244      866.031
10/18/2013  22:07:00      -93.436      -76.715       -0.134       69.878       41.719       30.281     4882.972     1740.434      916.925        1.108        0.377      120.895       29.722        0.060      338.421       11.061      866.026
10/18/2013  22:08:00     -117.733      -72.524      -15.417       34.204       24.762       20.829     1169.902      613.172      433.849        1.079        0.111      138.278       14.118        0.010      338.504       11.200      866.042
10/18/2013  22:09:00     -118.650      -59.628       -2.379       36.881       35.234       21.782     1360.216     1241.467      474.444        1.036        0.154      132.791       19.702        0.022      338.494       11.184      866.045
10/18/2013  22:10:00     -109.961      -85.135       -1.005       48.931       36.627       28.196     2394.220     1341.523      795.031        1.193        0.227      139.066       29.784        0.046      338.527       11.239      866.051
10/18/2013  22:11:00     -140.588      -90.143       -1.267       54.934       33.107       27.824     3017.725     1096.098      774.149        1.639        0.244      167.005       28.633        0.029      338.566       11.304      866.060
10/18/2013  22:12:00     -124.114      -87.503       -3.319       44.648       30.810       18.742     1993.487      949.269      351.273        1.318        0.165      151.858       15.129        0.010      338.512       11.213      866.064
10/18/2013  22:13:00     -122.870      -88.231        2.941       37.631       32.135       28.984     1416.117     1032.628      840.064        1.309        0.164      151.267       23.606        0.024      338.581       11.330      866.063
10/18/2013  22:14:00     -166.992      -67.589       -5.826       35.727       25.012       19.239     1276.438      625.594      370.156        1.738        0.114      180.151       12.013        0.004      338.566       11.305      866.067
10/18/2013  22:15:00     -152.077      -52.720       -6.094       26.071       22.372       16.507      679.677      500.491      272.469        1.370        0.073      160.956       11.566        0.005      338.504       11.200      866.055
10/18/2013  22:16:00     -149.281      -40.048       -9.837       33.456       31.904       19.982     1119.327     1017.838      399.273        1.326        0.127      154.559       14.845        0.009      338.449       11.108      866.055
10/18/2013  22:17:00     -145.104      -51.905       -2.660       28.745       26.762       19.740      826.293      716.209      389.667        1.284        0.097      154.108       14.797        0.009      338.431       11.078      866.061
10/18/2013  22:18:00     -157.968      -52.912       -4.842       26.808       18.984       16.100      718.662      360.391      259.200        1.456        0.067      166.594       13.901        0.007      338.412       11.046      866.054
10/18/2013  22:19:00     -132.995      -36.483       -4.194       41.693       22.593       17.591     1738.322      510.436      309.447        1.080        0.128      137.908       16.943        0.015      338.269       10.806      866.057
10/18/2013  22:20:00     -116.851      -25.641       -0.387       55.247       29.773       20.782     3052.230      886.443      431.879        0.934        0.219      119.631       26.845        0.050      338.213       10.712      866.073
10/18/2013  22:21:00     -112.477      -27.652        3.304       29.858       26.594       22.018      891.482      707.267      484.778        0.775        0.104      115.826       16.647        0.021      338.238       10.753      866.082
10/18/2013  22:22:00     -117.932      -24.714        2.805       43.990       19.616       17.183     1935.085      384.800      295.261        0.857        0.131      120.494       20.326        0.028      338.232       10.743      866.074
10/18/2013  22:23:00     -128.595      -34.985       -1.866       34.478       24.755       17.897     1188.727      612.817      320.303        0.994        0.106      133.269       16.875        0.016      338.274       10.814      866.073
10/18/2013  22:24:00     -107.248      -27.201        2.209       34.696       22.828       20.645     1203.823      521.137      426.229        0.720        0.108      110.644       20.575        0.035      338.170       10.639      866.079
10/18/2013  22:25:00     -111.854      -31.040       -0.083       34.693       21.775       18.512     1203.581      474.137      342.699        0.775        0.101      116.082       18.222        0.025      338.169       10.638      866.073
10/18/2013  22:26:00     -120.905      -44.461        1.230       26.344       19.734       17.014      694.022      389.446      289.492        0.898        0.069      128.821       16.454        0.016      338.204       10.695      866.071
10/18/2013  22:27:00     -125.649      -50.122       -0.657       28.447       22.603       14.567      809.205      510.917      212.187        0.992        0.077      135.277       12.479        0.009      338.234       10.747      866.073
10/18/2013  22:28:00     -132.169      -56.490       -1.656       24.122       17.630       18.292      581.882      310.811      334.613        1.094        0.061      143.735       16.658        0.013      338.274       10.814      866.076
10/18/2013  22:29:00     -120.008      -52.447       -5.187       25.262       15.180       12.797      638.177      230.422      163.774        0.911        0.052      130.968       13.038        0.010      338.228       10.737      866.073
10/18/2013  22:30:00     -115.804      -45.305       -2.166       19.564       18.070       10.752      382.765      326.539      115.598        0.815        0.041      124.351       10.468        0.007      338.211       10.707      866.076
10/18/2013  22:31:00     -115.698      -47.449       -1.540       10.029       13.872        8.516      100.590      192.437       72.523        0.800        0.018      125.050        6.230        0.002      338.184       10.662      866.080
10/18/2013  22:32:00     -106.935      -53.257       -8.873       12.773       14.077        9.447      163.150      198.151       89.251        0.740        0.023      119.463        4.238        0.001      338.021       10.389      866.075
10/18/2013  22:33:00      -89.546      -59.912       -8.497       28.579       16.880       13.602      816.738      284.944      185.018        0.648        0.064      107.740        7.818        0.005      337.899       10.186      866.072
10/18/2013  22:34:00      -87.948      -67.171       -9.568       30.760       24.578       19.711      946.189      604.095      388.532        0.714        0.097      110.665        8.376        0.006      337.878       10.149      866.088
10/18/2013  22:35:00     -104.003      -72.876       -3.644       50.864       32.918       23.605     2587.176     1083.608      557.194        1.018        0.211      126.995       21.886        0.030      337.833       10.074      866.091
10/18/2013  22:36:00      -89.498      -51.122        4.271       42.329       33.487       22.227     1791.764     1121.369      494.024        0.702        0.170      103.070       20.023        0.038      337.860       10.118      866.090
10/18/2013  22:37:00      -71.186      -53.100        4.408       51.177       31.149       23.169     2619.035      970.257      536.800        0.602        0.206       88.809       13.416        0.023      337.709        9.867      866.083
10/18/2013  22:38:00      -93.899      -70.371       -2.332       43.082       27.668       21.627     1856.086      765.514      467.735        0.843        0.154      117.342       16.871        0.021      337.705        9.860      866.085
10/18/2013  22:39:00     -126.608      -70.391       -1.082       32.143       24.691       18.479     1033.148      609.637      341.472        1.148        0.099      144.860       16.589        0.013      337.710        9.869      866.082
10/18/2013  22:40:00     -120.903      -78.597       -0.021       36.655       29.177       24.407     1343.623      851.270      595.707        1.179        0.140      144.205       20.406        0.020      337.749        9.934      866.073
10/18/2013  22:41:00     -132.599      -80.633       -2.312       39.700       32.034       22.127     1576.063     1026.169      489.585        1.359        0.155      155.191       20.287        0.017      337.763        9.958      866.079
10/18/2013  22:42:00     -115.167      -79.567       -2.104       45.686       39.515       27.455     2087.189     1561.442      753.769        1.200        0.220      139.980       23.163        0.027      337.738        9.914      866.083
10/18/2013  22:43:00     -137.270      -99.087       -2.506       40.590       31.974       22.795     1647.542     1022.332      519.633        1.593        0.159      169.297       18.166        0.012      337.701        9.852      866.072
10/18/2013  22:44:00     -125.920      -74.689       -3.266       48.190       33.995       23.098     2322.272     1155.643      533.527        1.273        0.201      146.404       17.240        0.014      337.638        9.747      866.065
10/18/2013  22:45:00     -126.664      -69.057       -3.035       40.419       36.595       26.416     1633.698     1339.183      697.810        1.225        0.184      144.266       22.135        0.024      337.594        9.673      866.070
10/18/2013  22:46:00     -160.869      -34.604      -12.056       42.196       34.517       23.958     1780.484     1191.450      574.007        1.538        0.177      164.549       20.815        0.016      337.476        9.475      866.071
10/18/2013  22:47:00     -192.491      -57.408        0.425       46.387       40.346       21.341     2151.765     1627.808      455.443        2.229        0.212      200.870       21.383        0.011      337.542        9.585      866.058
10/18/2013  22:48:00     -149.593      -79.297        4.373       39.780       31.679       26.989     1582.471     1003.537      728.429        1.600        0.166      169.311       26.005        0.024      337.485        9.491      866.059
10/18/2013  22:49:00     -114.352      -74.107       -3.331       51.510       33.542       27.639     2653.283     1125.062      763.894        1.156        0.227      136.265       26.701        0.038      337.427        9.392      866.063
10/18/2013  22:50:00     -111.818      -62.135       -6.133       28.503       21.596       20.130      812.408      466.378      405.222        0.904        0.084      127.922       19.372        0.023      337.366        9.292      866.059
10/18/2013  22:51:00      -75.458      -54.128        5.492       44.970       26.990       20.637     2022.339      728.474      425.883        0.591        0.159       92.864       19.645        0.045      337.440        9.413      866.076
10/18/2013  22:52:00      -48.044      -38.267       10.445       37.777       29.230       22.182     1427.073      854.392      492.022        0.333        0.139       61.422       18.781        0.093      337.458        9.445      866.085
10/18/2013  22:53:00      -32.855      -34.493        6.971       40.217       32.689       22.083     1617.403     1068.575      487.674        0.275        0.159       47.636       20.804        0.191      337.474        9.471      866.082
10/18/2013  22:54:00      -66.255      -44.770        1.995       36.803       22.568       20.354     1354.464      509.298      414.298        0.434        0.114       79.962       19.281        0.058      337.522        9.553      866.091
10/18/2013  22:55:00      -55.713      -42.352        2.445       44.366       23.079       17.193     1968.348      532.631      295.582        0.385        0.140       69.983       17.559        0.063      337.598        9.680      866.091
10/18/2013  22:56:00      -85.652      -42.545       -0.276       44.397       17.146       19.520     1971.053      293.973      381.049        0.590        0.132       95.637       23.923        0.063      337.504        9.521      866.081
10/18/2013  22:57:00     -126.088      -63.360       -7.685       22.571       19.672       14.447      509.470      387.006      208.721        1.054        0.055      141.112       11.225        0.006      337.464        9.455      866.078
10/18/2013  22:58:00     -127.509      -48.095      -16.202       10.800       16.265       10.833      116.637      264.562      117.363        0.967        0.025      136.278        7.142        0.003      337.458        9.445      866.072
10/18/2013  22:59:00     -134.331      -40.397       -9.473       16.469       14.431       11.963      271.235      208.261      143.107        1.019        0.031      140.274        8.433        0.004      337.520        9.549      866.062
10/18/2013  23:00:00     -129.027      -65.115      -10.542       14.932       13.320        8.928      222.972      177.410       79.701        1.074        0.024      144.527        7.030        0.002      337.546        9.592      866.061
10/18/2013  23:01:00     -123.464      -71.036       -5.950       17.915       15.982       12.659      320.953      255.431      160.254        1.053        0.037      142.441        8.952        0.004      337.538        9.580      866.063
10/18/2013  23:02:00     -113.534      -70.049       -4.026       18.812       14.925       14.679      353.879      222.762      215.464        0.930        0.040      133.405       11.251        0.007      337.475        9.474      866.065
10/18/2013  23:03:00      -78.342      -62.559        4.051       37.790       24.768       19.775     1428.117      613.461      391.040        0.625        0.122      100.256       22.333        0.050      337.479        9.480      866.075
10/18/2013  23:04:00      -73.518      -56.902        0.972       31.597       27.038       19.404      998.360      731.038      376.527        0.537        0.105       92.966       12.863        0.019      337.483        9.487      866.090
10/18/2013  23:05:00      -28.222      -35.030        9.430       36.383       26.828       20.605     1323.709      719.715      424.564        0.229        0.123       44.985       20.989        0.218      337.471        9.467      866.097
10/18/2013  23:06:00      -63.270      -36.463        0.885       44.364       29.157       20.040     1968.185      850.156      401.614        0.428        0.161       73.024       18.506        0.064      337.514        9.540      866.114
10/18/2013  23:07:00     -110.037      -58.882       -0.859       29.742       22.263       16.983      884.581      495.638      288.439        0.862        0.083      124.801       14.819        0.014      337.571        9.635      866.129
10/18/2013  23:08:00      -87.496      -48.348        1.486       29.632       24.657       17.875      878.073      607.973      319.508        0.590        0.090       99.965       13.031        0.017      337.485        9.490      866.133
10/18/2013  23:09:00      -26.955      -32.556       11.991       38.395       24.730       19.568     1474.182      611.595      382.920        0.220        0.123       42.267       20.849        0.243      337.425        9.390      866.149
10/18/2013  23:10:00      -67.679      -50.422       -2.620       27.383       20.985       14.700      749.808      440.371      216.086        0.427        0.070       84.397       13.957        0.027      337.381        9.317      866.158
10/18/2013  23:11:00      -67.659      -38.344       -1.630       16.520       17.943       11.582      272.906      321.938      134.146        0.339        0.036       77.769        8.535        0.012      337.395        9.339      866.154
10/18/2013  23:12:00      -52.079      -29.980        0.542       22.632       15.539       10.827      512.215      241.475      117.215        0.224        0.044       60.092        5.217        0.008      337.428        9.394      866.166
10/18/2013  23:13:00      -27.295      -14.264        6.798       24.532       14.031       12.643      601.837      196.872      159.840        0.098        0.048       30.798        9.868        0.103      337.367        9.292      866.161
10/18/2013  23:14:00      -24.485      -21.895        2.866       24.400       13.088       12.997      595.372      171.290      168.931        0.101        0.047       32.847       13.895        0.179      337.325        9.225      866.159
10/18/2013  23:15:00      -15.040      -22.714        3.086       23.084       15.025       10.157      532.889      225.757      103.160        0.081        0.043       27.242        8.097        0.088      337.297        9.175      866.166
10/18/2013  23:16:00      -54.111      -35.077       -0.755       20.553       13.935       12.515      422.421      194.183      156.614        0.247        0.039       64.485       10.395        0.026      337.278        9.145      866.164
10/18/2013  23:17:00      -68.093      -30.960        2.124       16.602       15.721        9.055      275.614      247.162       81.990        0.310        0.030       74.801        6.974        0.009      337.240        9.082      866.174
10/18/2013  23:18:00      -56.262      -32.406       -0.755       25.473        9.781       11.613      648.896       95.662      134.868        0.255        0.044       64.927       10.878        0.028      337.211        9.031      866.193
10/18/2013  23:19:00      -47.521      -25.480        5.387       25.273       14.726       17.023      638.707      216.845      289.784        0.204        0.057       53.921       16.179        0.090      337.120        8.878      866.202
10/18/2013  23:20:00      -36.304      -19.862        6.073       27.373       21.640       15.654      749.255      468.283      245.058        0.161        0.073       41.382       15.561        0.141      337.092        8.833      866.202
10/18/2013  23:21:00      -87.892      -34.422       -1.090       21.330       15.494       16.593      454.968      240.060      275.341        0.494        0.049       94.392       15.011        0.025      337.108        8.859      866.191
10/18/2013  23:22:00      -88.767      -46.001       -0.638       15.231       14.164       12.208      231.989      200.629      149.046        0.529        0.029       99.978        5.689        0.003      337.130        8.897      866.199
10/18/2013  23:23:00      -70.993      -31.844        2.106       26.486       20.187       15.622      701.515      407.516      244.043        0.371        0.068       77.808       16.185        0.043      337.125        8.888      866.201
10/18/2013  23:24:00      -62.285      -35.440       -0.134       21.890       18.879       16.064      479.191      356.409      258.038        0.311        0.055       71.662       13.344        0.035      337.060        8.778      866.200
10/18/2013  23:25:00      -27.030      -24.555        6.626       24.567       21.885       17.848      603.556      478.949      318.535        0.139        0.070       36.519       15.189        0.173      337.018        8.710      866.202
10/18/2013  23:26:00      -53.678      -26.985        0.605       35.466       14.858       11.469     1257.807      220.764      131.547        0.261        0.081       60.079       15.518        0.067      337.071        8.798      866.201
10/18/2013  23:27:00      -58.008      -31.280        3.895       30.404       20.962       18.011      924.433      439.408      324.396        0.302        0.084       65.904       16.916        0.066      337.086        8.821      866.202
10/18/2013  23:28:00      -40.418      -31.290        6.679       32.084       25.011       23.180     1029.384      625.561      537.312        0.242        0.110       51.114       20.196        0.156      337.025        8.717      866.193
10/18/2013  23:29:00      -76.850      -56.348        4.393       44.372       32.217       25.736     1968.909     1037.919      662.347        0.638        0.183       95.294       25.921        0.074      337.075        8.803      866.190
10/18/2013  23:30:00     -119.837      -59.293       -2.521       40.129       30.752       19.768     1610.351      945.668      390.772        1.041        0.147      133.704       17.151        0.016      337.094        8.835      866.174
10/18/2013  23:31:00      -73.210      -63.887        5.432       53.580       36.810       26.833     2870.855     1354.940      719.985        0.721        0.247       97.166       28.279        0.085      337.059        8.777      866.171
10/18/2013  23:32:00      -96.129      -75.639        2.568       42.997       52.167       29.168     1848.713     2721.394      850.772        1.019        0.271      122.320       24.739        0.041      337.045        8.753      866.185
10/18/2013  23:33:00     -128.094     -107.448      -12.822       43.170       46.346       23.401     1863.691     2147.954      547.629        1.634        0.228      167.192       16.060        0.009      337.014        8.701      866.196
10/18/2013  23:34:00     -126.619      -84.850      -12.707       36.995       36.736       25.638     1368.615     1349.536      657.329        1.338        0.169      152.420       18.613        0.015      337.003        8.683      866.199
10/18/2013  23:35:00     -140.906     -106.102      -11.833       44.119       48.801       29.068     1946.486     2381.511      844.937        1.821        0.259      176.386       18.854        0.011      336.857        8.438      866.208
10/18/2013  23:36:00     -130.952     -117.383       -1.398       38.451       42.807       25.826     1478.505     1832.416      667.000        1.745        0.199      175.861       23.044        0.017      336.835        8.403      866.212
10/18/2013  23:37:00     -108.146      -90.022       -7.953       52.977       37.928       26.223     2806.589     1438.536      687.627        1.240        0.247      140.711       20.598        0.021      336.828        8.393      866.223
10/18/2013  23:38:00     -122.244     -109.411       -9.132       49.965       45.014       24.248     2496.491     2026.227      587.967        1.605        0.256      164.056       16.282        0.010      336.792        8.333      866.212
10/18/2013  23:39:00     -122.405     -112.113       -7.043       52.475       43.060       31.885     2753.576     1854.156     1016.666        1.661        0.281      165.989       27.290        0.027      336.790        8.329      866.203
10/18/2013  23:40:00     -138.285     -111.094       -8.407       43.870       42.994       32.674     1924.535     1848.492     1067.592        1.819        0.242      177.383       28.801        0.026      336.763        8.282      866.197
10/18/2013  23:41:00     -172.249     -134.418      -12.617       42.560       37.241       26.462     1811.316     1386.897      700.253        2.590        0.195      218.490       20.279        0.009      336.721        8.211      866.194
10/18/2013  23:42:00     -138.344     -116.094       -2.026       60.486       42.117       36.523     3658.611     1773.875     1333.910        1.969        0.338      180.601       39.293        0.047      336.712        8.195      866.179
10/18/2013  23:43:00     -119.325      -82.367       -0.214       51.451       49.242       32.972     2647.209     2424.767     1087.131        1.359        0.308      144.992       27.637        0.036      336.725        8.219      866.178
10/18/2013  23:44:00      -90.511      -67.312       10.979       48.068       34.548       24.513     2310.575     1193.572      600.880        0.847        0.205      112.797       25.084        0.049      336.725        8.220      866.188
10/18/2013  23:45:00     -115.122      -92.116       -5.709       42.394       34.128       25.949     1797.250     1164.731      673.362        1.270        0.182      147.440       26.315        0.032      336.763        8.284      866.187
10/18/2013  23:46:00      -77.561      -56.371        5.330       48.061       39.788       25.136     2309.905     1583.059      631.820        0.687        0.226       95.882       21.946        0.052      336.726        8.222      866.184
10/18/2013  23:47:00      -86.510      -42.775       -4.383       28.245       25.160       17.697      797.769      633.051      313.170        0.554        0.087       96.507       13.321        0.019      336.760        8.279      866.198
10/18/2013  23:48:00     -107.028      -27.097       -6.709       26.038       16.426       13.444      677.998      269.799      180.731        0.668        0.056      110.405       14.731        0.018      336.646        8.090      866.202
10/18/2013  23:49:00     -115.860      -12.660       -5.662       34.047       24.074       20.271     1159.184      579.567      410.903        0.788        0.107      116.550       17.985        0.024      336.568        7.957      866.205
10/18/2013  23:50:00     -105.451       -0.953       -1.644       32.307       25.255       17.788     1043.735      637.801      316.407        0.656        0.100      105.455       16.239        0.024      336.448        7.756      866.222
10/18/2013  23:51:00      -98.779      -29.600        1.385       33.699       24.491       15.875     1135.642      599.820      252.026        0.631        0.099      103.119       14.457        0.020      336.485        7.819      866.217
10/18/2013  23:52:00     -106.112      -24.848       -3.009       26.808       21.927       15.592      718.688      480.774      243.103        0.666        0.072      108.982       13.526        0.015      336.496        7.837      866.221
10/18/2013  23:53:00     -105.677       -5.903       -7.708       33.479       22.621       20.697     1120.834      511.699      428.356        0.666        0.103      105.841       21.239        0.040      336.403        7.680      866.227
10/18/2013  23:54:00      -78.760      -14.491       -8.652       18.879       17.988       13.240      356.429      323.558      175.309        0.367        0.043       80.082       10.793        0.018      336.398        7.672      866.224
10/18/2013  23:55:00      -85.820      -28.513       -5.439       19.540       12.955        9.276      381.809      167.821       86.041        0.442        0.032       90.433        8.046        0.008      336.431        7.727      866.233
10/18/2013  23:56:00      -81.877      -16.402       -5.653       15.812       16.018       11.200      250.019      256.584      125.436        0.382        0.032       83.503        7.842        0.009      336.523        7.883      866.230
10/18/2013  23:57:00      -99.097      -30.561       -5.250       21.130       14.830       14.373      446.476      219.921      206.576        0.583        0.044      103.703        8.526        0.007      336.544        7.918      866.240
10/18/2013  23:58:00     -107.787      -32.792       -7.268       15.141       14.252        9.047      229.252      203.125       81.851        0.663        0.026      112.665        7.324        0.004      336.517        7.873      866.257
10/18/2013  23:59:00     -107.536      -30.495      -10.637        8.509       11.525        8.473       72.399      132.831       71.789        0.644        0.014      111.776        4.350        0.002      336.566        7.956      866.262
